[[{"header":{"parameterUnit":"m.s-1","parameterCategory":1,"la1":30.6,"la2":29.2853,"lo1":-89.7004,"lo2":-87.6739,"dy":0.0162,"dx":0.0183,"nx":112,"ny":82,"refTime":"2023-08-17T06:00:00:Z","depth":0,"parameterNumber":2,"parameterNumberName":"U-component_of_WINDS"},"data":[0.0,0.0,0.0,0.0,0.0,0.0,0.0,0.0,0.0,0.0,0.0,0.0,0.0,0.0,0.0,0.0,0.0,0.0,0.0,0.0,0.0,0.0,0.0,0.0,0.0,0.0,0.0,0.0,0.0,0.0,0.0,0.0,0.0,0.0,0.0,0.0,0.0,0.0,0.0,0.0,0.0,0.0,0.0,0.0,0.0,0.0,0.0,0.0,0.0,0.0,0.0,0.0,0.0,0.0,0.0,0.0,0.0,0.0,0.0,0.0,0.0,0.0,0.0,0.0,0.0,0.0,0.0,0.0,0.0,0.0,0.0,0.0,0.0,0.0,0.0,0.0,0.0,0.0,0.0,0.0,0.0,0.0,0.0,0.0,0.0,0.0,0.0,0.0,0.0,0.0,0.267,0.266,0.4466,0.5607,0.5446,0.5464,0.457,0.2269,0.0,0.0,0.0,0.0,0.0,0.0,0.0,0.0,0.0,0.0,0.0,0.0,0.0,0.0,0.0,0.0,0.0,0.0,0.0,0.0,0.0,0.0,0.0,0.0,0.0,0.0,0.0,0.0,0.0,0.0,0.0,0.0,0.0,0.0,0.0,0.0,0.0,0.0,0.0,0.0,0.0,0.0,0.0,0.0,0.0,0.0,0.0,0.0,0.0,0.0,0.0,0.0,0.0,0.0,0.0,0.0,0.0,0.0,0.0,0.0,0.0,0.0,0.0,0.0,0.0,0.0,0.0,0.0,0.0,0.0,0.0,0.0,0.0,0.0,0.0,0.0,0.0,0.0,0.0,0.0,0.0,0.0,0.0,0.0,0.0,0.0,0.0,0.0,0.0,0.0,0.0,0.0,0.0,0.0,0.0,0.0,0.0,0.0,0.0,0.0,0.0,0.0,0.0,0.0,0.3257,0.4247,0.5105,0.5576,0.5442,0.5264,0.454,0.2928,0.0,0.0,0.0,0.0,0.0,0.0,0.0,0.0,0.0,0.0,0.0,0.0,0.0,0.0,0.0,0.0,0.0,0.0,0.0,0.0,0.0,0.0,0.0,0.0,0.0,0.0,0.0,0.0,0.0,0.0,0.0,0.0,0.0,0.0,0.0,0.0,0.0,0.0,0.0,0.0,0.0,0.0,0.0,0.0,0.0,0.0,0.0,0.0,0.0,0.0,0.0,0.0,0.0,0.0,0.0,0.0,0.0,0.0,0.0,0.0,0.0,0.0,0.0,0.0,0.0,0.0,0.0,0.0,0.0,0.0,0.0,0.0,0.0,0.0,0.0,0.0,0.0,0.0,0.0,0.0,0.0,0.0,0.0,0.0,0.0,0.0,0.0,0.0,0.0,0.0,0.0,0.0,0.0,0.0,0.0,0.0,0.0,0.0,0.0,0.0,0.0,0.0,0.0,0.2916,0.3681,0.471,0.5206,0.5437,0.5432,0.5148,0.4369,0.2823,0.2516,0.0,0.0,0.0,0.0,0.0,0.0,0.0,0.0,0.0,0.0,0.0,0.0,0.0,0.0,0.0,0.0,0.0,0.0,0.0,0.0,0.0,0.0,0.0,0.0,0.0,0.0,0.0,0.0,0.0,0.0,0.0,0.0,0.0,0.0,0.0,0.0,0.0,0.0,0.0,0.0,0.0,0.0,0.0,0.0,0.0,0.0,0.0,0.0,0.0,0.0,0.0,0.0,0.0,0.0,0.0,0.0,0.0,0.0,0.0,0.0,0.0,0.0,0.0,0.0,0.0,0.0,0.0,0.0,0.0,0.0,0.0,0.0,0.0,0.0,0.0,0.0,0.0,0.0,0.0,0.0,0.0,0.0,0.0,0.0,0.0,0.0,0.0,0.0,0.0,0.0,0.0,0.0,0.0,0.0,0.0,0.0,0.0,0.0,0.0,0.0,0.0,0.0,0.329,0.402,0.4773,0.5128,0.5308,0.5308,0.4942,0.4125,0.2821,0.2536,0.0,0.0,0.0,0.0,0.0,0.0,0.0,0.0,0.0,0.0,0.0,0.0,0.0,0.0,0.0,0.0,0.0,0.0,0.0,0.0,0.0,0.0,0.0,0.0,0.0,0.0,0.0,0.0,0.0,0.0,0.0,0.0,0.0,0.0,0.0,0.0,0.0,0.0,0.0,0.0,0.0,0.0,0.0,0.0,0.0,0.0,0.0,0.0,0.0,0.0,0.0,0.0,0.0,0.0,0.0,0.0,0.0,0.0,0.0,0.0,0.0,0.0,0.0,0.0,0.0,0.0,0.0,0.0,0.0,0.0,0.0,0.0,0.0,0.0,0.0,0.0,0.0,0.0,0.0,0.0,0.0,0.0,0.0,0.0,0.0,0.0,0.0,0.0,0.0,0.0,0.0,0.0,0.0,0.0,0.0,0.0,0.0,0.0,0.0,0.0,0.0,0.0,0.3536,0.4321,0.4674,0.4969,0.5145,0.5145,0.4445,0.3887,0.3536,0.2261,0.0,0.0,0.0,0.0,0.0,0.0,0.0,0.0,0.0,0.0,0.0,0.0,0.0,0.0,0.0,0.0,0.0,0.0,0.0,0.0,0.0,0.0,0.0,0.0,0.0,0.0,0.0,0.0,0.0,0.0,0.0,0.0,0.0,0.0,0.0,0.0,0.0,0.0,0.0,0.0,0.0,0.0,0.0,0.0,0.0,0.0,0.0,0.0,0.0,0.0,0.0,0.0,0.0,0.0,0.0,0.0,0.0,0.0,0.0,0.0,0.0,0.0,0.0,0.0,0.0,0.0,0.0,0.0,0.0,0.0,0.0,0.0,0.0,0.0,0.0,0.0,0.0,0.0,0.0,0.0,0.0,0.0,0.0,0.0,0.0,0.0,0.0,0.0,0.0,0.0,0.0,0.0,0.0,0.0,0.0,0.0,0.0,0.0,0.0,0.0,0.0,0.0,0.3444,0.4166,0.0,0.4874,0.4999,0.4999,0.4619,0.4101,0.3233,0.0,0.0,0.0,0.0,0.0,0.0,0.0,0.0,0.0,0.0,0.0,0.0,0.0,0.0,0.0,0.0,0.0,0.0,0.0,0.0,0.0,0.0,0.0,0.0,0.0,0.0,0.0,0.0,0.0,0.0,0.0,0.0,0.0,0.0,0.0,0.0,0.0,0.0,0.0,0.0,0.0,0.0,0.0,0.0,0.0,0.0,0.0,0.0,0.0,0.0,0.0,0.0,0.0,0.0,0.0,0.0,0.0,0.0,0.0,0.0,0.0,0.0,0.0,0.0,0.0,0.0,0.0,0.0,0.0,0.0,0.0,0.0,0.0,0.0,0.0,0.0,0.0,0.0,0.0,0.0,0.0,0.0,0.0,0.0,0.0,0.0,0.0,0.0,0.0,0.0,0.0,0.0,0.0,0.0,0.0,0.0,0.0,0.0,0.0,0.0,0.0,0.0,0.2904,0.3698,0.4389,0.0,0.4755,0.4847,0.4847,0.4572,0.4045,0.3168,0.0,0.0,0.0,0.0,0.0,0.0,0.0,0.0,0.0,0.0,0.0,0.0,0.0,0.0,0.0,0.0,0.0,0.0,0.0,0.0,0.0,0.0,0.0,0.0,0.0,0.0,0.0,0.0,0.0,0.0,0.0,0.0,0.0,0.0,0.0,0.0,0.0,0.0,0.0,0.0,0.0,0.0,0.0,0.0,0.0,0.0,0.0,0.0,0.0,0.0,0.0,0.0,0.0,0.0,0.0,0.0,0.0,0.0,0.0,0.0,0.0,0.0,0.0,0.0,0.0,0.0,0.0,0.0,0.0,0.0,0.0,0.0,0.0,0.0,0.0,0.0,0.0,0.0,0.0,0.0,0.0,0.0,0.0,0.0,0.0,0.0,0.0,0.0,0.0,0.0,0.0,0.0,0.0,0.0,0.0,0.0,0.0,0.0,0.0,0.0,0.0,0.0,0.3064,0.4337,0.5088,0.4556,0.4656,0.4687,0.4687,0.4161,0.3751,0.0,0.0,0.0,0.0,0.0,0.0,0.0,0.0,0.0,0.0,0.0,0.0,0.0,0.0,0.0,0.0,0.0,0.0,0.0,0.0,0.0,0.0,0.0,0.0,0.0,0.0,0.0,0.0,0.0,0.0,0.0,0.0,0.0,0.0,0.0,0.0,0.0,0.0,0.0,0.0,0.0,0.0,0.0,0.0,0.0,0.0,0.0,0.0,0.0,0.0,0.0,0.0,0.0,0.0,0.0,0.0,0.0,0.0,0.0,0.0,0.0,0.0,0.0,0.0,0.0,0.0,0.0,0.0,0.0,0.0,0.0,0.0,0.0,0.0,0.0,0.0,0.0,0.0,0.0,0.0,0.0,0.0,0.0,0.0,0.0,0.0,0.0,0.0,0.0,0.0,0.0,0.0,0.0,0.0,0.0,0.0,0.0,0.0,0.0,0.0,0.0,0.0,0.0,0.5011,0.5743,0.5972,0.5269,0.5266,0.5242,0.5242,0.5127,0.4836,0.4545,0.0,0.0,0.0,0.0,0.0,0.0,0.0,0.0,0.0,0.0,0.0,0.0,0.0,0.0,0.0,0.0,0.0,0.0,0.0,0.0,0.0,0.0,0.0,0.0,0.0,0.0,0.0,0.0,0.0,0.0,0.0,0.0,0.0,0.0,0.0,0.0,0.0,0.0,0.0,0.0,0.0,0.0,0.0,0.0,0.0,0.0,0.0,0.0,0.0,0.0,0.0,0.0,0.0,0.0,0.0,0.0,0.0,0.0,0.0,0.0,0.0,0.0,0.0,0.0,0.0,0.0,0.0,0.0,0.0,0.0,0.0,0.0,0.0,0.0,0.0,0.0,0.0,0.0,0.0,0.0,0.0,0.0,0.0,0.0,0.0,0.0,0.0,0.0,0.0,0.0,0.0,0.0,0.0,0.0,0.0,0.0,0.0,0.0,0.0,0.0,0.0,0.0,0.5467,0.6426,0.6637,0.5597,0.5487,0.5487,0.5487,0.5487,0.5478,0.5526,0.0,0.0,0.0,0.0,0.0,0.0,0.0,0.0,0.0,0.0,0.0,0.0,0.0,0.0,0.0,0.0,0.0,0.0,0.0,0.0,0.0,0.0,0.0,0.0,0.0,0.0,0.0,0.0,0.0,0.0,0.0,0.0,0.0,0.0,0.0,0.0,0.0,0.0,0.0,0.0,0.0,0.0,0.0,0.0,0.0,0.0,0.0,0.0,0.0,0.0,0.0,0.0,0.0,0.0,0.0,0.0,0.0,0.0,0.0,0.0,0.0,0.0,0.0,0.0,0.0,0.0,0.0,0.0,0.0,0.0,0.0,0.0,0.0,0.0,0.0,0.0,0.0,0.0,0.0,0.0,0.0,0.0,0.0,0.0,0.0,0.0,0.0,0.0,0.0,0.0,0.0,0.0,0.0,0.0,0.0,0.0,0.0,0.0,0.0,0.0,0.0,0.0,0.5132,0.6681,0.723,0.576,0.5597,0.5597,0.5597,0.5597,0.5873,0.6495,0.0,0.0,0.0,0.0,0.0,0.0,0.0,0.0,0.0,0.0,0.0,0.0,0.0,0.0,0.0,0.0,0.0,0.0,0.0,0.0,0.0,0.0,0.0,0.0,0.0,0.0,0.0,0.0,0.0,0.0,0.0,0.0,0.0,0.0,0.0,0.0,0.0,0.0,0.0,0.0,0.0,0.0,0.0,0.0,0.0,0.0,0.0,0.0,0.0,0.0,0.0,0.0,0.0,0.0,0.0,0.0,0.0,0.0,0.0,0.0,0.6141,0.0,0.0,0.0,0.0,0.0,0.0,0.0,0.0,0.0,0.0,0.0,0.0,0.0,0.0,0.0,0.0,0.0,0.0,0.0,0.0,0.0,0.0,0.0,0.0,0.0,0.0,0.0,0.0,0.0,0.0,0.0,0.0,0.0,0.0,0.0,0.0,0.0,0.0,0.0,0.0,0.0,0.623,0.761,0.799,0.6529,0.6367,0.6367,0.6367,0.6367,0.6708,0.7544,0.7378,0.0,0.0,0.0,0.0,0.0,0.0,0.0,0.0,0.0,0.0,0.0,0.0,0.0,0.0,0.0,0.0,0.0,0.0,0.0,0.0,0.0,0.0,0.0,0.0,0.0,0.0,0.0,0.0,0.0,0.0,0.0,0.0,0.0,0.0,0.0,0.0,0.0,0.0,0.0,0.0,0.0,0.0,0.0,0.0,0.0,0.0,0.0,0.0,0.0,0.0,0.0,0.0,0.0,0.0,0.0,0.0,0.0,0.0,0.0,0.0,0.6516,0.0,0.0,0.0,0.0,0.0,0.0,0.0,0.0,0.0,0.0,0.0,0.0,0.0,0.0,0.0,0.0,0.0,0.0,0.0,0.0,0.0,0.0,0.0,0.0,0.0,0.0,0.0,0.0,0.0,0.0,0.0,0.0,0.0,0.0,0.0,0.0,0.0,0.0,0.0,0.0,0.7324,0.8183,0.8209,0.675,0.6588,0.6588,0.6588,0.6588,0.7068,0.8239,0.8015,0.0,0.0,0.0,0.0,0.0,0.0,0.0,0.0,0.0,0.0,0.0,0.0,0.0,0.0,0.0,0.0,0.0,0.0,0.0,0.0,0.0,0.0,0.0,0.0,0.0,0.0,0.0,0.0,0.0,0.0,0.0,0.0,0.0,0.0,0.0,0.0,0.0,0.0,0.0,0.0,0.0,0.0,0.0,0.0,0.0,0.0,0.0,0.0,0.0,0.0,0.0,0.0,0.0,0.8641,0.9066,0.9279,0.995,1.0361,1.048,0.9369,0.908,0.9317,0.7982,0.0,0.0,0.0,0.0,0.0,0.0,0.0,0.0,0.0,0.0,0.0,0.0,0.0,0.0,0.0,0.0,0.0,0.0,0.0,0.0,0.0,0.0,0.0,0.0,1.2386,1.2128,1.1575,0.0,0.0,0.0,0.0,0.0,0.0,0.0,0.0,0.0,0.0,0.0,0.8081,0.8546,0.8262,0.6912,0.6696,0.6588,0.6588,0.6588,0.7182,0.854,0.8245,0.8062,0.0,0.0,0.0,0.0,0.0,0.0,0.0,0.0,0.0,0.0,0.0,0.0,0.0,0.0,0.0,0.0,0.0,0.0,0.0,0.0,0.0,0.0,0.0,0.0,0.0,0.0,0.0,0.0,0.0,0.0,0.0,0.0,0.7682,0.7813,0.0,0.0,0.0,0.0,0.0,0.0,0.0,0.0,0.0,0.0,0.0,0.0,0.0,0.7843,0.906,0.9646,1.0368,1.124,1.1598,1.1755,1.1801,1.2244,1.255,1.2738,1.2058,0.0,1.0629,0.9901,0.0,0.0,0.0,0.0,0.0,0.0,0.0,0.0,0.0,0.0,0.0,0.0,0.0,0.0,0.0,0.0,0.0,0.0,0.0,0.0,0.0,0.0,1.2151,1.2514,1.2792,1.304,0.0,1.1017,0.9139,0.8639,0.8205,0.0,0.0,0.0,0.0,0.0,0.0,0.0,0.8217,0.8546,0.848,0.767,0.6966,0.6588,0.6588,0.6588,0.6966,0.7777,0.8353,0.879,0.9,0.8745,0.0,0.0,0.0,0.0,0.0,0.0,0.0,0.0,0.0,0.0,0.0,0.0,0.0,0.0,0.0,0.0,0.0,0.0,0.0,0.0,0.0,0.0,0.0,0.0,0.0,0.0,0.0,0.0,0.0,0.668,0.7306,0.7508,0.7137,0.6805,0.0,0.0,0.0,0.0,0.0,0.0,0.0,0.0,0.0,0.8833,0.918,0.994,1.1346,1.1597,1.21,1.2866,1.3166,1.3394,1.3561,1.3854,1.4155,1.4429,1.4124,1.3754,1.308,1.1629,1.0987,1.0802,0.0,0.0,0.0,0.0,0.9249,0.9549,1.0124,1.0784,0.0,1.1784,0.0,0.0,0.0,0.0,0.0,0.0,0.0,0.0,0.0,0.0,1.2813,1.2967,1.3347,1.3467,1.2862,1.1922,1.1034,0.0,0.9583,0.8765,0.8001,0.0,0.0,0.0,0.0,0.8722,0.9174,0.9302,0.9013,0.8271,0.7926,0.7699,0.7699,0.7577,0.7775,0.8494,0.8678,0.8938,0.9176,0.923,0.9395,0.0,0.0,0.0,0.0,0.0,0.0,0.0,0.0,0.0,0.0,0.0,0.0,0.0,0.0,0.0,0.0,0.0,0.0,0.0,0.0,0.0,0.0,0.0,0.0,0.0,0.0,0.0,0.0,0.654,0.7005,0.7164,0.7163,0.712,0.0,0.0,0.0,0.0,0.0,0.0,0.8728,0.9258,1.0098,1.1222,1.1379,1.2084,1.3193,1.3353,1.3574,1.4095,1.4315,1.4576,1.4863,1.5084,1.5304,1.5504,1.5504,1.5193,1.4598,1.3189,1.2485,1.2296,1.1795,1.1294,1.0867,1.0522,1.0511,1.0716,1.0836,1.1058,1.1323,1.2116,1.1625,1.0757,1.1135,0.0,0.0,0.0,0.0,1.0704,1.1614,1.2068,1.2366,1.2385,1.29,1.3161,1.2263,1.2546,1.2655,0.0,1.0837,1.0009,0.9209,0.0,0.0,0.0,0.0,0.9348,1.0033,0.9866,0.9505,0.8968,0.8727,0.861,0.861,0.82,0.8253,0.9002,0.8734,0.8749,0.9283,0.9566,0.9577,0.937,0.0,0.0,0.0,0.0,0.0,0.0,0.0,0.0,0.0,0.0,0.0,0.0,0.0,0.0,0.0,0.0,0.0,0.0,0.0,0.0,0.0,0.0,0.0,0.0,0.0,0.0,0.0,0.0,0.0,0.7224,0.8809,0.0,0.0,0.0,0.0,0.8951,0.893,0.961,1.1237,1.1367,1.1878,1.3021,1.3661,1.4108,1.4429,1.471,1.5003,1.5311,1.5324,1.5484,1.5765,1.5778,1.5792,1.5805,1.5805,1.5114,1.3969,1.4244,1.3997,1.3439,1.2609,1.2222,1.205,1.0864,1.0401,1.029,0.9647,0.9404,0.9562,1.0134,1.0199,1.0096,1.0114,0.9443,0.0,0.0,0.961,0.9054,0.9731,0.9777,0.9712,0.9827,1.0809,1.1621,1.1529,1.2435,1.2832,0.0,1.1617,1.1493,1.0504,0.0,1.0905,1.0116,1.0245,1.0421,1.0147,0.9866,0.9679,0.9621,0.9026,0.861,0.861,0.7736,0.7583,0.8574,0.8055,0.8336,0.9639,0.9679,0.982,1.0053,0.8742,0.0,0.0,0.0,0.0,0.0,0.0,0.0,0.0,0.0,0.0,0.0,0.0,0.0,0.0,0.0,0.0,0.0,0.0,0.0,0.0,0.0,0.0,0.0,0.0,0.0,0.0,0.0,0.0,0.854,0.973,0.0,1.0127,1.029,1.0447,1.0479,1.1222,1.2022,1.2824,1.3225,1.3749,1.4596,1.4823,1.507,1.5357,1.5464,1.5571,1.5671,1.4804,1.4463,1.4561,1.3692,1.3307,1.3307,1.3307,1.3011,1.2603,1.2736,1.3084,1.3361,1.2029,1.1991,1.2599,1.1294,1.0948,1.1081,1.0801,1.0741,1.0696,1.0348,1.0037,0.978,0.9652,0.9454,0.9436,1.006,0.9988,0.9814,1.0502,1.0425,1.0235,1.0418,1.0763,1.0942,1.0725,1.1117,1.1277,1.0451,1.1273,1.1979,1.1475,1.1411,1.1321,1.0944,1.1042,1.1076,1.0969,1.0267,0.9811,0.9709,0.8913,0.8334,0.8242,0.7705,0.7486,0.7873,0.7528,0.7608,0.8232,0.8304,0.8421,0.873,0.8451,0.8073,0.0,0.0,0.0,0.0,0.0,0.0,0.0,0.0,0.0,0.0,0.0,0.0,0.0,0.0,0.0,0.0,0.0,0.0,0.0,0.0,0.0,0.0,0.0,0.0,0.0,0.0,0.9106,0.9781,1.095,1.1719,1.1719,1.1893,1.2086,1.228,1.2824,1.3581,1.4502,1.3989,1.4062,1.4993,1.4527,1.4423,1.4594,1.46,1.46,1.46,1.363,1.3199,1.3199,1.2334,1.1945,1.1945,1.1945,1.1653,1.1268,1.1268,1.1661,1.2173,1.1556,1.1874,1.2434,1.1219,1.0834,1.0948,1.0473,1.028,1.0205,0.957,0.925,0.9117,0.9271,0.913,0.9099,0.9821,0.9696,0.9487,0.9926,0.9802,0.9692,0.9726,1.0016,1.0154,0.988,1.0216,1.0414,0.9965,1.0712,1.138,1.0974,1.0639,1.0318,1.0096,1.0018,0.9907,0.9745,0.939,0.9082,0.8864,0.8516,0.818,0.8093,0.7134,0.6841,0.7623,0.6648,0.6506,0.7608,0.7218,0.7154,0.7631,0.7697,0.7362,0.6781,0.0,0.0,0.0,0.0,0.0,0.0,0.0,0.0,0.0,0.0,0.0,0.0,0.0,0.0,0.0,0.0,0.0,0.0,0.0,0.0,0.0,0.0,0.0,0.7895,0.9549,1.071,1.0798,1.2492,1.3386,1.2976,1.338,1.3878,1.4442,1.356,1.3957,1.6044,1.3459,1.265,1.4161,1.2877,1.2174,1.2169,1.2169,1.2169,1.2164,1.1953,1.1853,1.1858,1.1755,1.175,1.175,1.175,1.1072,0.9903,0.9903,0.9903,1.0096,1.1268,1.1848,1.1658,1.0386,0.9903,0.9702,0.8432,0.8038,0.8014,0.7868,0.7818,0.798,0.8949,0.8442,0.783,0.9112,0.8679,0.7818,0.7818,0.7818,0.7784,0.7641,0.831,0.9079,0.9075,0.9809,1.0388,1.0179,0.9945,0.9624,0.9122,0.8702,0.8247,0.7695,0.7367,0.0,0.659,0.7119,0.7465,0.7179,0.7816,0.8264,0.8069,0.5951,0.5547,0.7797,0.5436,0.517,0.7827,0.6518,0.6199,0.6941,0.6542,0.6393,0.671,0.0,0.0,0.0,0.0,0.0,0.0,0.0,0.0,0.0,0.0,0.0,0.0,0.0,0.0,0.0,0.0,0.0,0.0,0.0,0.0,0.0,0.0,0.9569,0.9431,1.0108,1.1288,1.2974,1.3305,1.382,1.488,1.5324,1.5136,1.4321,1.4187,1.3922,1.3521,1.2658,1.2451,1.2913,1.2511,1.2334,1.2169,1.2169,1.2169,1.2164,1.1067,1.0555,1.058,0.9561,0.9118,0.9118,0.9118,0.892,0.8528,0.8528,0.8528,0.8627,0.892,0.9706,1.0386,0.9019,0.8528,0.8531,0.8137,0.8038,0.8031,0.7991,0.7977,0.7967,0.8314,0.8108,0.7926,0.8357,0.8171,0.7977,0.7977,0.7977,0.794,0.7787,0.8002,0.8128,0.8016,0.8139,0.8274,0.8228,0.7895,0.807,0.9322,0.9404,0.928,0.9119,0.8988,0.0,0.865,0.8102,0.7271,0.5889,0.6314,0.612,0.4819,0.5146,0.5705,0.6211,0.5579,0.5457,0.6083,0.5715,0.5885,0.6798,0.5821,0.6015,0.0,0.0,0.0,0.0,0.0,0.0,0.0,0.0,0.0,0.0,0.0,0.0,0.0,0.0,0.0,0.0,0.0,0.0,0.0,0.0,0.0,0.0,0.9939,1.1552,1.1819,1.2061,1.2856,1.4475,1.4062,1.404,1.4998,1.5272,1.4912,1.3512,1.365,1.3362,1.2635,1.1417,1.1101,1.1703,1.1185,1.0819,1.0707,1.0707,1.0664,1.0684,0.9774,0.9341,0.9365,0.8537,0.8225,0.8221,0.8163,0.8136,0.8133,0.8065,0.8038,0.0,0.0,0.0,0.0,0.0,0.8038,0.8038,0.8038,0.8038,0.8038,0.8038,0.8038,0.8038,0.8038,0.8038,0.8038,0.8038,0.8038,0.8038,0.8038,0.8038,0.8018,0.7929,0.7858,0.7787,0.7706,0.7573,0.7465,0.7465,0.7329,0.0,0.8541,0.8375,0.8046,0.795,0.7725,0.7523,0.7356,0.7012,0.6359,0.5228,0.5705,0.567,0.4607,0.4806,0.0,0.0,0.0,0.4722,0.4789,0.4929,0.0,0.0,0.0,0.5374,0.704,0.8075,0.0,0.0,0.7947,0.7565,0.0,0.0,0.0,0.0,0.0,0.0,0.0,0.0,0.0,0.0,0.0,0.0,0.0,0.0,0.0,0.0,1.1149,1.327,1.4281,1.4635,1.4937,1.5391,1.4469,1.3831,1.4109,1.4097,1.3624,1.2284,1.2339,1.2447,1.2327,0.0,0.0,0.0,0.0,0.8726,0.871,0.871,0.8642,0.8509,0.8489,0.8425,0.8323,0.8431,0.8482,0.8476,0.835,0.8286,0.8258,0.8123,0.8055,0.8038,0.8038,0.8038,0.8038,0.8038,0.8038,0.8038,0.8038,0.0,0.0,0.8038,0.8038,0.8038,0.8038,0.8038,0.8038,0.8038,0.8038,0.8038,0.8038,0.8038,0.8038,0.8038,0.7936,0.7838,0.7838,0.7726,0.7624,0.7624,0.7611,0.755,0.7397,0.6618,0.5967,0.5625,0.5269,0.4935,0.4674,0.5178,0.5373,0.4976,0.0,0.0,0.5806,0.481,0.4698,0.5778,0.4517,0.3889,0.4117,0.4507,0.4218,0.3031,0.4006,0.5072,0.6249,0.7626,0.9165,1.0765,0.8541,0.8591,0.0,0.0,0.0,0.0,0.0,0.0,0.0,0.0,0.0,0.0,0.0,0.0,0.0,0.0,0.0,1.0062,1.2582,1.4391,1.4054,1.5294,1.6146,1.5792,1.4016,1.3147,1.3887,1.3398,1.2437,1.0863,1.1141,1.0908,0.9757,0.9081,0.8972,0.9325,0.9003,0.8835,0.8713,0.871,0.8696,0.8665,0.0,0.0,0.8621,0.8526,0.8482,0.8479,0.8455,0.8377,0.8269,0.8238,0.815,0.8038,0.8038,0.8038,0.8038,0.8038,0.8038,0.8038,0.8038,0.8038,0.8038,0.8038,0.8038,0.8038,0.8038,0.8038,0.0,0.8038,0.8038,0.8038,0.8038,0.8038,0.8038,0.8038,0.8018,0.7994,0.7994,0.7875,0.777,0.777,0.7678,0.755,0.7397,0.7232,0.7072,0.6802,0.6583,0.6494,0.6408,0.6431,0.5862,0.4426,0.5598,0.5894,0.4415,0.5274,0.5899,0.5925,0.5599,0.54,0.5403,0.559,0.5915,0.62,0.6548,0.719,0.8259,0.8558,0.939,1.0777,1.1101,1.1505,0.0,0.0,0.0,0.0,0.0,0.0,0.0,0.0,0.0,0.0,0.0,0.9315,0.0,0.0,1.2158,1.2082,1.4109,1.5576,1.5303,1.562,1.5727,1.5214,1.3674,1.2552,1.2344,1.2011,1.1248,0.977,1.057,1.0457,0.8937,0.894,0.894,0.894,0.894,0.8903,0.8825,0.8825,0.8784,0.871,0.871,0.871,0.871,0.871,0.871,0.8706,0.8628,0.8557,0.8479,0.8333,0.8225,0.8147,0.8069,0.8038,0.8038,0.8038,0.8038,0.8038,0.8038,0.8038,0.8038,0.8038,0.8038,0.8038,0.8038,0.8038,0.8038,0.8038,0.8038,0.8038,0.8038,0.8038,0.8038,0.8038,0.8038,0.8038,0.8038,0.798,0.7926,0.7926,0.7868,0.777,0.7617,0.759,0.7489,0.7187,0.7021,0.6929,0.6929,0.6797,0.636,0.5432,0.5981,0.6147,0.5178,0.5871,0.628,0.6129,0.5962,0.5915,0.5915,0.5989,0.625,0.6697,0.6776,0.7036,0.7559,0.808,0.8656,0.9362,1.0346,1.1323,0.0,0.0,0.0,0.0,0.0,0.0,0.0,0.0,0.8826,0.9039,1.0085,1.0774,1.0369,1.1866,1.3185,1.3159,1.4836,1.5995,1.57,1.5293,1.4821,1.3892,1.2936,1.1831,1.0767,1.0519,1.0074,0.8996,1.0006,1.0131,0.8937,0.894,0.895,0.8981,0.8954,0.8967,0.9025,0.8994,0.892,0.8798,0.8923,0.8899,0.876,0.8882,0.894,0.893,0.8777,0.871,0.8689,0.8421,0.8313,0.8299,0.8174,0.8109,0.8079,0.8052,0.8038,0.8038,0.8038,0.8041,0.7952,0.7979,0.7972,0.7955,0.7979,0.7969,0.8045,0.8041,0.8041,0.8045,0.8041,0.8041,0.8045,0.8041,0.8038,0.8038,0.8038,0.8038,0.8038,0.8038,0.8038,0.7991,0.7841,0.7818,0.7682,0.7288,0.7105,0.7017,0.7017,0.6881,0.6719,0.6539,0.6519,0.6291,0.5733,0.5643,0.5832,0.6256,0.616,0.6078,0.6074,0.6074,0.6132,0.6257,0.6338,0.6338,0.6338,0.7099,0.7629,0.7859,0.8618,0.997,0.2773,0.2508,0.2847,0.3595,0.4216,0.5218,0.0,0.0,1.0003,1.0,1.1541,1.2464,1.1266,1.1741,1.2079,1.1163,1.3404,1.445,1.2116,1.3853,1.4399,1.1797,1.1368,1.1027,1.0506,0.9604,0.8972,0.8743,0.8968,0.9047,0.894,0.894,0.8998,0.9123,0.9005,0.9066,0.933,0.9198,0.912,0.9103,0.912,0.9052,0.8913,0.893,0.894,0.893,0.8777,0.871,0.8699,0.8526,0.8459,0.8459,0.8438,0.8353,0.8228,0.8092,0.8038,0.8038,0.8038,0.7952,0.7992,0.8021,0.7981,0.8009,0.8028,0.7971,0.7965,0.8045,0.7955,0.7965,0.8045,0.7955,0.7965,0.8045,0.8038,0.8038,0.8038,0.8038,0.8038,0.8038,0.8038,0.7898,0.7764,0.7741,0.7677,0.7577,0.7417,0.7322,0.7322,0.7187,0.699,0.6805,0.6774,0.5831,0.3684,0.3437,0.4295,0.6173,0.6251,0.6247,0.6237,0.6234,0.6244,0.6338,0.6338,0.6338,0.6338,0.6416,0.6945,0.7783,0.7936,0.8537,0.5301,0.4756,0.0,0.0,0.6761,0.681,0.8739,1.0009,1.0862,1.1072,1.2269,1.3075,1.2457,1.2772,1.2959,0.0,1.3482,1.3795,1.2698,1.2695,1.2326,1.1156,1.021,0.9537,0.9485,0.9103,0.8815,0.8842,0.8903,0.8974,0.9059,0.9062,0.9089,0.915,0.9181,0.9215,0.9249,0.9273,0.9242,0.9154,0.9154,0.9079,0.8944,0.9025,0.9113,0.9188,0.9035,0.892,0.8832,0.8679,0.8615,0.8608,0.8424,0.8411,0.8421,0.8267,0.8103,0.7972,0.7965,0.8049,0.7785,0.6196,0.567,0.5644,0.5684,0.6793,0.7982,0.7972,0.7975,0.7672,0.6029,0.6848,0.7979,0.7972,0.7969,0.7969,0.7969,0.7969,0.7969,0.7969,0.7969,0.7952,0.7898,0.6569,0.5548,0.5501,0.6614,0.7409,0.7224,0.7158,0.6523,0.5063,0.5918,0.6115,0.5042,0.3834,0.3515,0.438,0.5634,0.6268,0.6338,0.6338,0.6338,0.6338,0.6338,0.6338,0.6338,0.6338,0.649,0.6945,0.6945,0.7176,0.6329,0.0,0.0,0.8307,0.829,0.7964,0.9313,1.0493,1.1216,1.1052,1.1962,1.2576,1.2192,1.2342,1.2493,1.2552,1.2735,1.2734,1.2459,1.1529,1.0715,1.0297,0.9162,0.8526,0.8788,0.875,0.8757,0.8866,0.8913,0.9001,0.9147,0.9154,0.9191,0.9276,0.9347,0.9367,0.9337,0.9408,0.9388,0.9279,0.9279,0.9201,0.9066,0.9167,0.9276,0.9371,0.9218,0.9096,0.8994,0.8845,0.8788,0.8784,0.8578,0.8031,0.7525,0.8239,0.7795,0.6911,0.6873,0.7382,0.7652,0.572,0.4085,0.286,0.2872,0.4291,0.5994,0.6709,0.7406,0.7381,0.4724,0.4929,0.5947,0.6759,0.6859,0.6859,0.6859,0.6859,0.6859,0.6859,0.6859,0.7169,0.7895,0.6358,0.4832,0.4126,0.5522,0.6542,0.6273,0.6725,0.645,0.4772,0.4572,0.4537,0.4537,0.4178,0.3992,0.3988,0.5476,0.6264,0.6338,0.6338,0.6338,0.6338,0.6338,0.6338,0.6338,0.6338,0.6338,0.6338,0.6338,0.6264,0.0,0.0,0.6535,0.6408,0.7073,0.7933,0.8632,1.0085,1.0887,0.9567,1.0358,1.0875,0.9296,0.9171,0.9432,0.947,1.0599,1.0992,0.9694,1.0303,1.04,0.8921,0.8452,0.8333,0.0,0.8625,0.8713,0.8716,0.8855,0.9001,0.9147,0.9154,0.9289,0.9588,0.9456,0.9517,0.9798,0.9669,0.9602,0.9595,0.9595,0.9517,0.9367,0.9371,0.9374,0.9371,0.9218,0.9164,0.9167,0.9025,0.8866,0.8886,0.8883,0.71,0.5025,0.7817,0.6837,0.4116,0.4145,0.5819,0.7949,0.7874,0.4367,0.0107,0.0108,0.0212,0.0826,0.3404,0.6037,0.7397,0.4726,0.2109,0.0905,0.3513,0.4117,0.4117,0.4117,0.4117,0.4117,0.4117,0.4117,0.4931,0.7503,0.7922,0.6997,0.4354,0.4046,0.4083,0.4104,0.5891,0.7097,0.6993,0.2925,0.0163,0.0163,0.3907,0.6237,0.6217,0.6285,0.6274,0.6338,0.6338,0.6338,0.6338,0.6338,0.6338,0.6338,0.6338,0.6338,0.6338,0.6338,0.6268,0.0,0.0,0.6796,0.7959,0.8442,0.8638,0.8937,0.9574,1.0,0.9439,0.9836,0.9865,0.8262,0.7699,0.7684,0.8115,0.8433,0.8813,0.9191,0.9364,0.9197,0.8676,0.8387,0.0,0.0,0.0,0.0,0.8696,0.8757,0.8893,0.914,0.9154,0.9245,0.9452,0.9507,0.9581,0.968,0.9727,0.9703,0.9608,0.9507,0.9486,0.9534,0.9429,0.9486,0.9683,0.9573,0.9473,0.9106,0.6907,0.5931,0.6161,0.8103,0.8304,0.7578,0.8575,0.7916,0.6144,0.2561,0.1909,0.2645,0.2661,0.1493,-0.0,-0.0,-0.0,0.0207,0.114,0.2046,0.2523,0.1613,0.0706,0.0202,0.1108,0.131,0.131,0.131,0.131,0.131,0.131,0.131,0.1613,0.2523,0.2726,0.2424,0.1515,0.1299,0.1375,0.1337,0.1921,0.2387,0.2353,0.0932,-0.0,-0.0,0.2602,0.4818,0.6201,0.6332,0.6264,0.6338,0.6338,0.6338,0.6338,0.6352,0.6356,0.6338,0.6356,0.6356,0.6274,0.6274,0.6278,0.7008,0.7599,0.764,0.8831,0.9154,0.9137,0.9283,0.9469,0.9523,0.9446,0.9536,0.8831,0.6215,0.5732,0.6007,0.6895,0.7081,0.7464,0.8826,0.874,0.8557,0.8564,0.8435,0.8306,0.0,0.0,0.0,0.8543,0.8703,0.8896,0.914,0.9205,0.933,0.9534,0.9635,0.9686,0.9686,0.9774,0.9774,0.9683,0.9534,0.9544,0.9696,0.954,0.8985,0.8108,0.7997,0.8614,0.9322,0.7056,0.4814,0.3132,0.4935,0.698,0.8686,0.6463,0.5433,0.4641,0.119,-0.0,-0.0,-0.0,-0.0,-0.0,-0.0,-0.0,-0.0,-0.0,-0.0,-0.0,-0.0,-0.0,-0.0,-0.0,-0.0,-0.0,-0.0,-0.0,-0.0,-0.0,-0.0,-0.0,-0.0,-0.0,-0.0,-0.0,0.1598,0.2161,0.0287,-0.0,-0.0,-0.0,0.1554,0.2556,0.2556,0.3635,0.4947,0.6351,0.6356,0.6338,0.6338,0.6338,0.6338,0.6338,0.6349,0.6352,0.6268,0.6359,0.6363,0.6285,0.5485,0.5572,0.7622,0.8589,0.8885,0.8944,0.9184,0.9429,0.9568,0.9588,0.9531,0.9501,0.9338,0.7898,0.0,0.0,0.4223,0.5691,0.6297,0.7132,0.8518,0.8482,0.8418,0.0,0.0,0.0,0.0,0.0,0.0,0.8316,0.0,0.9001,0.9147,0.93,0.9513,0.9802,0.9812,0.9815,0.9822,0.9822,0.9822,0.9819,0.9686,0.9703,0.9849,0.9597,0.7892,0.5151,0.4756,0.6469,0.9212,0.8688,0.5052,-0.0,-0.0,0.3482,0.7794,0.2132,-0.0,-0.0,-0.0,-0.0,-0.0,-0.0,-0.0,-0.0,-0.0,-0.0,-0.0,-0.0,-0.0,-0.0,-0.0,-0.0,-0.0,-0.0,-0.0,-0.0,-0.0,-0.0,-0.0,-0.0,-0.0,0.0101,0.0404,0.0404,0.0404,0.0202,0.4545,0.5988,0.1055,0.0277,0.018,0.018,0.424,0.701,0.7101,0.6791,0.6603,0.6603,0.6434,0.6338,0.6338,0.6338,0.6338,0.6264,0.6349,0.6278,0.6291,0.6217,0.6224,0.623,0.4235,0.424,0.7905,0.8779,0.9193,0.9344,0.9496,0.9534,0.9456,0.9631,0.9561,0.9151,0.9371,0.8529,0.0,0.0,0.0,0.4042,0.5562,0.0,0.8531,0.8835,0.0,0.8886,0.0,0.894,0.8835,0.892,0.0,0.0,0.8872,0.9001,0.9147,0.93,0.9466,0.9656,0.9663,0.9713,0.9819,0.9822,0.9822,0.9822,0.9802,0.9815,0.9856,0.9741,0.9329,0.8268,0.3323,0.1753,0.254,0.2375,0.1345,-0.0,-0.0,0.0897,0.2132,0.0561,-0.0,-0.0,-0.0,-0.0,-0.0,-0.0,-0.0,-0.0,-0.0,-0.0,-0.0,-0.0,-0.0,-0.0,-0.0,-0.0,-0.0,-0.0,-0.0,-0.0,-0.0,-0.0,-0.0,-0.0,-0.0,0.1313,0.526,0.5974,0.5256,0.3318,0.4177,0.5219,0.5869,0.4001,0.2698,0.2657,0.3773,0.5245,0.6962,0.677,0.6592,0.6592,0.6413,0.6338,0.6338,0.6338,0.6264,0.6274,0.6465,0.6451,0.6294,0.491,0.4999,0.6324,0.5749,0.4079,0.8311,0.9059,0.9395,0.9568,0.9608,0.954,0.9613,0.9547,0.9023,0.7239,0.8206,0.0,0.0,0.0,0.0,0.0,0.0,0.0,0.833,0.8716,0.8903,0.0,0.9103,0.0,0.9133,0.9208,0.9218,0.0,0.9133,0.9167,0.9249,0.9398,0.9551,0.9696,0.9703,0.9741,0.9822,0.9822,0.9825,0.9836,0.9664,0.9687,0.9767,0.9539,0.8007,0.5307,0.0,-0.0,-0.0,-0.0,-0.0,-0.0,-0.0,-0.0,-0.0,-0.0,-0.0,-0.0,-0.0,-0.0,-0.0,-0.0,-0.0,-0.0,-0.0,-0.0,-0.0,-0.0,-0.0,-0.0,-0.0,-0.0,-0.0,-0.0,-0.0,-0.0,-0.0,-0.0,-0.0,-0.0,0.1918,0.4448,0.751,0.8016,0.7491,0.5942,0.5787,0.6254,0.7773,0.6599,0.5385,0.5179,0.5206,0.5784,0.7009,0.6873,0.6706,0.6639,0.6488,0.6329,0.6271,0.6332,0.6264,0.6288,0.5456,0.55,0.6275,0.5254,0.4347,0.3532,0.357,0.2251,0.8838,0.9422,0.9639,0.9639,0.9608,0.9583,0.9694,0.9176,0.7925,0.5355,0.0,0.6306,0.2278,0.0,0.3531,0.4877,0.0,0.6623,0.8069,0.8428,0.8686,0.9079,0.9161,0.9242,0.9398,0.9412,0.9418,0.9439,0.9439,0.9432,0.9412,0.9554,0.9693,0.9819,0.9822,0.9822,0.9825,0.9825,0.9839,0.9737,0.9617,0.965,0.9808,0.8321,0.489,-0.0,-0.0,-0.0,-0.0,-0.0,-0.0,-0.0,-0.0,-0.0,-0.0,-0.0,-0.0,-0.0,-0.0,-0.0,-0.0,-0.0,-0.0,-0.0,-0.0,-0.0,-0.0,-0.0,-0.0,-0.0,-0.0,-0.0,-0.0,-0.0,-0.0,0.0206,0.0912,0.1111,0.0909,0.0605,0.4241,0.7607,0.7915,0.8002,0.7985,0.7982,0.7975,0.7969,0.7969,0.7938,0.7809,0.7178,0.7326,0.7339,0.7094,0.6934,0.6865,0.6712,0.6559,0.6417,0.6285,0.6,0.6023,0.6332,0.4499,0.4196,0.5445,0.5456,0.3572,-0.0,0.0649,0.097,0.9466,0.9656,0.9785,0.9785,0.9602,0.9394,0.9277,0.7366,0.0,0.0,0.0,0.1424,0.4154,0.3749,0.0,0.6269,0.0,0.0,0.0,0.0,0.8889,0.0,0.0,0.0,0.0,0.0,0.0,0.0,0.0,0.9693,0.9578,0.9707,0.9795,0.9822,0.9822,0.9829,0.9849,0.9849,0.9744,0.9774,0.9771,0.9784,0.9565,0.4053,0.0967,-0.0,-0.0,0.0,-0.0,-0.0,-0.0,-0.0,-0.0,-0.0,-0.0,-0.0,-0.0,-0.0,-0.0,-0.0,-0.0,-0.0,-0.0,-0.0,-0.0,-0.0,-0.0,-0.0,-0.0,-0.0,-0.0,-0.0,-0.0,-0.0,-0.0,0.1217,0.5689,0.6597,0.5967,0.372,0.4021,0.5434,0.7572,0.7979,0.7969,0.7952,0.8045,0.8045,0.8045,0.7892,0.7729,0.7584,0.7455,0.7316,0.716,0.7014,0.6865,0.6712,0.6658,0.6513,0.6285,0.4633,0.4528,0.6263,0.5956,0.4227,0.1112,0.1096,0.0675,0.0086,0.405,0.5868,0.8414,0.8991,0.9822,0.9822,0.9483,0.9116,0.9071,0.0,0.0,0.0,0.0,-0.0295,0.2366,0.0,0.0,0.0,0.0,0.0,0.0,0.0,0.0,0.0,0.0,0.0,0.0,0.0,0.0,0.0,0.0,0.9791,0.9724,0.9785,0.9822,0.9822,0.9822,0.9798,0.9747,0.9747,0.9851,0.9813,0.9823,0.7987,0.4582,0.1446,-0.0,-0.0,-0.0,-0.0,-0.0,-0.0,-0.0,-0.0,-0.0,-0.0,-0.0,-0.0,-0.0,-0.0,-0.0,-0.0,-0.0,-0.0,-0.0,-0.0,-0.0,-0.0,-0.0,-0.0,0.2242,0.4594,0.467,0.3523,0.2393,0.2351,0.2188,0.2758,0.5328,0.7033,0.7591,0.635,0.6039,0.6442,0.7769,0.7962,0.7952,0.8041,0.8038,0.8038,0.8038,0.7977,0.7872,0.7726,0.758,0.7428,0.7275,0.7126,0.689,0.6753,0.6695,0.6559,0.6347,0.5345,0.4232,0.3014,0.3002,0.2034,-0.0,-0.0,-0.0,0.0086,0.4889,0.7109,0.7681,0.8651,0.9774,0.9774,0.933,0.8845,0.8858,0.6528,0.0,0.0,-0.0883,-0.0724,0.0623,0.0,0.0,0.0,0.0,0.0,0.0,0.0,0.0,0.0,0.0,0.0,0.0,0.0,0.0,0.0,0.0,0.0,0.9822,0.9822,0.9822,0.9822,0.9822,0.9764,0.9768,0.9278,0.8616,0.7682,0.7682,0.495,-0.0,-0.0,-0.0,-0.0,-0.0,-0.0,-0.0,-0.0,-0.0,-0.0,-0.0,-0.0,-0.0,-0.0,-0.0,-0.0,-0.0,-0.0,-0.0,-0.0,-0.0,-0.0,-0.0,0.0897,0.1905,0.1905,0.4825,0.8106,0.868,0.7168,0.5431,0.5445,0.5204,0.499,0.4986,0.657,0.8032,0.8029,0.7995,0.7965,0.7965,0.7952,0.8038,0.8038,0.8038,0.8038,0.8038,0.8038,0.7994,0.7872,0.7702,0.7539,0.7383,0.7234,0.7001,0.6781,0.681,0.6692,0.6355,0.5413,0.3414,0.0083,-0.0,-0.0,-0.0,-0.0,0.0519,0.1623,0.5378,0.7128,0.8781,0.9372,0.9629,0.9629,0.9174,0.8656,0.8542,0.0,0.0,-0.0209,-0.1003,-0.0458,0.1626,0.0475,0.0,0.0,0.0,0.0,0.0,0.0,0.0,0.0,0.0,0.0,0.0,0.0,0.0,0.0,0.0,0.0,0.9822,0.9822,0.9822,0.9822,0.9822,0.9764,0.9523,0.7568,0.4641,0.0939,0.0939,0.0588,-0.0,-0.0,-0.0,-0.0,-0.0,-0.0,0.0,-0.0,-0.0,-0.0,-0.0,-0.0,-0.0,-0.0,-0.0,-0.0,-0.0,-0.0,-0.0,-0.0,-0.0,-0.0,-0.0,0.3813,0.8112,0.8112,0.651,0.5485,0.8208,0.8682,0.854,0.8501,0.8444,0.8418,0.818,0.827,0.8265,0.8255,0.814,0.8041,0.8041,0.8041,0.8038,0.8038,0.8038,0.8038,0.8038,0.8038,0.8035,0.8021,0.7767,0.7539,0.7383,0.7248,0.7017,0.6781,0.7007,0.685,0.6322,0.2638,0.0416,-0.0,-0.0,-0.0,-0.0,-0.0,0.2194,0.6456,0.688,0.7058,0.5939,0.7653,0.9449,0.9357,0.8747,0.8258,0.8483,0.0,0.0,0.0205,-0.0659,-0.0706,0.0252,-0.026,-0.0477,0.0,0.0,0.0,0.0,0.0,0.0,0.0,0.0,0.0,0.0,0.0,0.0,0.0,0.0,0.0,0.9822,0.9822,0.9822,0.9822,0.9822,0.9764,0.9649,0.8582,0.7171,0.5326,0.3551,0.2735,0.2739,0.2765,0.2753,0.2713,0.2738,0.2724,0.0,0.2684,0.1677,-0.0,-0.0,-0.0,-0.0,-0.0,-0.0,-0.0,-0.0,0.2368,0.5396,0.5318,0.4169,0.3022,0.4825,0.5875,0.6827,0.8678,0.8317,0.761,0.8768,0.8998,0.8862,0.8913,0.8824,0.8755,0.8635,0.8448,0.8275,0.8272,0.8147,0.8038,0.8038,0.8038,0.8038,0.8038,0.8038,0.8038,0.8038,0.7952,0.7959,0.7959,0.7774,0.7685,0.7626,0.7305,0.7082,0.6946,0.7073,0.5686,0.2662,0.0851,-0.0,-0.0,-0.0,0.1239,0.3791,0.376,0.487,0.6867,0.689,0.6483,0.4388,0.6445,0.8591,0.8913,0.824,0.7412,0.0,0.0,0.0,0.0525,-0.0511,-0.0875,-0.0795,-0.0755,-0.0787,0.0,0.0,0.1434,0.0,0.0,0.0,0.0,0.0,0.0,0.0,0.0,0.0,0.0,0.0,0.0,0.9822,0.9822,0.9802,0.9758,0.9798,0.9741,0.9689,0.9386,0.9169,0.8925,0.6819,0.5745,0.5751,0.5788,0.5771,0.5826,0.5777,0.5769,0.0,0.5822,0.4585,0.257,0.1675,0.1342,0.1344,0.1344,0.1344,0.1344,0.1344,0.4033,0.7762,0.8565,0.7524,0.6156,0.832,0.7604,0.6645,0.8742,0.9308,0.9167,0.9123,0.9028,0.894,0.894,0.8855,0.8764,0.872,0.8513,0.8319,0.8279,0.8147,0.8038,0.8038,0.8038,0.8038,0.8038,0.8038,0.8041,0.8048,0.7962,0.7666,0.6951,0.7442,0.7501,0.667,0.6897,0.7138,0.7141,0.5742,0.3493,0.0176,-0.0,0.0698,0.2108,0.2139,0.3209,0.5534,0.604,0.6519,0.681,0.6741,0.5895,0.4975,0.6232,0.6774,0.8314,0.7637,0.6262,0.0,0.0,0.0,0.0478,-0.0472,-0.0884,-0.0884,-0.093,-0.1044,-0.1074,-0.0493,0.0,0.0,0.0,0.0,0.0,0.0,0.0,0.0,0.0,0.0,0.0,0.0,0.0,0.9822,0.9822,0.9758,0.9615,0.9747,0.968,0.9388,0.9534,0.9422,0.9172,0.902,0.8847,0.8863,0.8845,0.8897,0.8893,0.8897,0.8897,0.0,0.8893,0.8782,0.8549,0.5596,0.447,0.447,0.447,0.447,0.447,0.447,0.447,0.5033,0.7979,0.888,0.886,0.8863,0.9072,0.9184,0.9188,0.9171,0.912,0.8977,0.894,0.894,0.894,0.8937,0.8896,0.8743,0.8587,0.8438,0.8296,0.8147,0.8038,0.8038,0.8038,0.8038,0.8038,0.8038,0.8048,0.7969,0.7972,0.6954,0.4318,0.6457,0.6937,0.4282,0.5893,0.7138,0.7135,0.2642,0.0088,-0.0,-0.0,0.2197,0.6946,0.7045,0.5933,0.3659,0.5452,0.6614,0.7091,0.684,0.5565,0.2454,0.3974,0.5385,0.6542,0.5817,0.4603,0.3979,0.0,0.0,0.0177,-0.0289,-0.0399,-0.0797,-0.0945,-0.0803,-0.0325,-0.0135,0.0,0.0,0.0,0.0,0.0,0.0,0.0,0.0,0.0,0.0,0.0,0.0,0.0,0.9812,0.9629,0.9591,0.9747,0.9798,0.973,0.954,0.9483,0.9381,0.9232,0.8974,0.8907,0.8913,0.887,0.885,0.0,0.885,0.885,0.885,0.885,0.886,0.8759,0.7844,0.751,0.7522,0.7522,0.7522,0.7522,0.7522,0.7513,0.7616,0.8641,0.8856,0.895,0.895,0.9123,0.932,0.932,0.9239,0.912,0.8977,0.894,0.8913,0.8808,0.8781,0.874,0.8587,0.8438,0.8323,0.8279,0.8147,0.8038,0.8038,0.8038,0.8045,0.7959,0.7962,0.7969,0.7982,0.7999,0.7698,0.6776,0.7493,0.7693,0.6831,0.3941,0.229,0.229,0.081,0.1427,0.4678,0.483,0.4819,0.4746,0.629,0.6646,0.5658,0.6319,0.6141,0.5137,0.6033,0.6235,0.0,0.1672,0.319,0.5041,0.4494,0.0,0.0,0.0,0.0,0.0,0.011,-0.0,-0.0384,-0.0565,-0.0471,-0.0124,0.013,0.0,0.0,0.0,0.0,0.0,0.0,0.0,0.0,0.0,0.0,0.0,0.0,0.0,0.9646,0.9483,0.9466,0.9649,0.9656,0.9585,0.9439,0.9401,0.9334,0.9239,0.9089,0.9018,0.9018,0.8964,0.894,0.894,0.894,0.894,0.0,0.894,0.8947,0.885,0.885,0.886,0.887,0.887,0.887,0.887,0.887,0.886,0.885,0.885,0.895,0.895,0.9001,0.9147,0.9296,0.9296,0.9225,0.9106,0.8903,0.8852,0.8815,0.8662,0.8625,0.8584,0.8435,0.8333,0.8252,0.8194,0.8106,0.8041,0.7952,0.7952,0.7959,0.7975,0.7156,0.6856,0.7895,0.8016,0.8029,0.8036,0.8011,0.7916,0.7703,0.4553,0.2312,0.1384,0.1359,0.2688,0.5662,0.6662,0.6382,0.4914,0.6364,0.6997,0.68,0.684,0.5803,0.3802,0.5482,0.6482,0.0,0.0,0.0,0.0,0.0,0.0,0.0,0.0,0.0,0.0,0.0,0.0,0.0,0.0109,-0.0057,-0.0117,0.0,0.0,0.0,0.0,0.0,0.0,0.0,0.0,0.0,0.0,0.0,0.0,0.0,0.0,0.9381,0.9361,0.9354,0.9364,0.9354,0.9286,0.9154,0.9293,0.9361,0.9347,0.9205,0.9137,0.9133,0.8998,0.894,0.0,0.894,0.894,0.894,0.894,0.894,0.894,0.894,0.894,0.8937,0.8927,0.893,0.8937,0.8927,0.893,0.894,0.894,0.894,0.8964,0.9096,0.9137,0.914,0.915,0.9147,0.9072,0.8784,0.871,0.8669,0.8506,0.8465,0.8428,0.8286,0.8255,0.8211,0.8069,0.8041,0.8048,0.7969,0.7872,0.7772,0.7989,0.5842,0.5135,0.7711,0.8026,0.7928,0.774,0.7707,0.7511,0.7208,0.7146,0.6216,0.3963,0.3884,0.3838,0.3838,0.5913,0.7091,0.7068,0.7058,0.7054,0.7139,0.691,0.5594,0.3415,0.5373,0.6515,0.0441,0.0,0.0581,0.1873,0.1913,0.0,0.0,0.0,0.0,0.0,0.0,0.0,0.0,0.0,0.0,0.0,0.0,0.0,0.0,0.0,0.0,0.0,0.0,0.0,0.0,0.0,0.0,0.0,0.0,0.9144,0.9367,0.9164,0.9093,0.9205,0.91,0.9076,0.9154,0.9188,0.915,0.9042,0.9005,0.8988,0.8988,0.8954,0.894,0.894,0.894,0.894,0.894,0.894,0.894,0.894,0.894,0.894,0.8923,0.8808,0.8838,0.892,0.8804,0.8842,0.894,0.894,0.894,0.8947,0.8977,0.8988,0.9011,0.9123,0.9076,0.8947,0.876,0.871,0.8645,0.8384,0.8319,0.8279,0.8126,0.8096,0.8089,0.7969,0.7965,0.7969,0.7982,0.6345,0.5639,0.7704,0.75,0.7296,0.7922,0.8026,0.7196,0.514,0.4914,0.5669,0.7372,0.75,0.7145,0.6293,0.6262,0.6278,0.6269,0.6815,0.7031,0.699,0.6871,0.6919,0.7139,0.6813,0.6457,0.6051,0.6386,0.6666,0.095,0.0886,0.0908,0.1297,0.1436,0.1468,0.0,0.0,0.0,0.0,0.0,0.0,0.0,0.0,0.0,0.0,0.0,0.0,0.0,0.0,0.0,0.0,0.0,0.0,0.0,0.0,0.0,0.0,0.0,0.9008,0.9167,0.8957,0.8869,0.8947,0.8804,0.8801,0.8947,0.895,0.8876,0.873,0.873,0.8767,0.8832,0.876,0.8804,0.8933,0.8866,0.8832,0.8832,0.8832,0.8794,0.873,0.873,0.8771,0.8825,0.874,0.8808,0.8927,0.8845,0.8869,0.894,0.894,0.894,0.894,0.894,0.8889,0.8866,0.9011,0.8947,0.8798,0.8645,0.8557,0.8448,0.8218,0.8163,0.8143,0.8072,0.7955,0.7959,0.7979,0.7056,0.655,0.7795,0.677,0.545,0.4446,0.6382,0.8026,0.8026,0.8016,0.7488,0.5944,0.579,0.6208,0.7459,0.7529,0.74,0.7211,0.7161,0.7078,0.7071,0.7071,0.7027,0.7027,0.6946,0.698,0.7139,0.684,0.6773,0.6926,0.6699,0.6709,0.1232,0.1362,0.1502,0.1466,0.1693,0.1917,0.0,0.0,0.0,0.0,0.0,0.0,0.0,0.0,0.0,0.0,0.0,0.0,0.0,0.0,0.0,0.0,0.0,0.0,0.0,0.0,0.0,0.0,0.0,0.8869,0.8869,0.8747,0.8676,0.8676,0.855,0.8533,0.8642,0.8665,0.8611,0.8482,0.8482,0.855,0.8672,0.854,0.8625,0.8862,0.0,0.0,0.8676,0.8676,0.8601,0.8482,0.8482,0.856,0.8672,0.8652,0.8737,0.8872,0.8896,0.8889,0.8872,0.8896,0.8903,0.8899,0.8876,0.8794,0.8733,0.8838,0.8774,0.8638,0.8489,0.836,0.8235,0.8079,0.8045,0.8048,0.7972,0.7669,0.7466,0.7892,0.615,0.5035,0.648,0.751,0.6483,0.1918,0.475,0.7503,0.7918,0.8002,0.7992,0.7989,0.7861,0.7611,0.7435,0.7393,0.7387,0.7339,0.7214,0.7139,0.7139,0.7119,0.7115,0.7139,0.7119,0.7119,0.7139,0.6997,0.6939,0.6956,0.6807,0.6817,0.1363,0.1813,0.2357,0.2241,0.2478,0.2744,0.0,0.0,0.0,0.0,0.0,0.0,0.0,0.0,0.0,0.0,0.0,0.0,0.0,0.0,0.0,0.0,0.0,0.0,0.0,0.0,0.0,0.0,0.0,0.8554,0.8554,0.853,0.8516,0.8516,0.8496,0.8435,0.834,0.8459,0.8506,0.8482,0.8482,0.8496,0.8516,0.8492,0.8509,0.855,0.0,0.8516,0.8516,0.8516,0.8503,0.8482,0.8482,0.8496,0.8503,0.8381,0.8428,0.857,0.8699,0.8662,0.8574,0.8703,0.8747,0.872,0.8591,0.8625,0.8686,0.8581,0.8533,0.8482,0.834,0.8286,0.8238,0.7999,0.7969,0.7972,0.7985,0.6245,0.5334,0.7601,0.7708,0.607,0.1918,0.4956,0.7717,0.6894,0.5548,0.5436,0.7688,0.7992,0.7985,0.7975,0.7955,0.7821,0.7628,0.7577,0.7455,0.719,0.7153,0.7139,0.7139,0.7024,0.7017,0.7139,0.7021,0.7021,0.7139,0.6997,0.699,0.7105,0.6959,0.697,0.1726,0.2285,0.3001,0.3337,0.3364,0.3255,0.0,0.0,0.0,0.0,0.0,0.0,0.0,0.0,0.0,0.0,0.0,0.0,0.0,0.0,0.0,0.0,0.0,0.0,0.0,0.0,0.0,0.0,0.0,0.0,0.8482,0.8411,0.8367,0.8367,0.8286,0.8211,0.8147,0.8211,0.8241,0.8241,0.8241,0.8289,0.8367,0.8279,0.833,0.8479,0.0,0.8367,0.8367,0.8367,0.8316,0.8241,0.8241,0.8296,0.837,0.8381,0.8425,0.8492,0.8564,0.854,0.8492,0.8564,0.8587,0.8574,0.8503,0.8482,0.8469,0.8397,0.8377,0.8364,0.8296,0.8228,0.8157,0.7995,0.6853,0.6245,0.7695,0.708,0.5655,0.4039,0.5974,0.7202,0.4752,0.5148,0.6361,0.7798,0.6968,0.6653,0.7885,0.6756,0.5839,0.5834,0.7134,0.7987,0.7834,0.7478,0.7222,0.7149,0.7139,0.7139,0.7139,0.7078,0.7075,0.7139,0.7078,0.7075,0.7139,0.7075,0.7078,0.7139,0.7075,0.7078,0.2128,0.268,0.3446,0.4094,0.0,0.4047,0.4257,0.0,0.0,0.0,0.0,0.0,0.0,0.0,0.0,0.0,0.0,0.0,0.0,0.0,0.0,0.0,0.0,0.0,0.0,0.0,0.0,0.0,0.0,0.0,0.8377,0.8275,0.8218,0.8218,0.8102,0.8038,0.8038,0.8038,0.8038,0.8038,0.8038,0.8102,0.8211,0.8092,0.8163,0.8374,0.8262,0.8218,0.8218,0.8218,0.8147,0.8038,0.8038,0.8113,0.8228,0.834,0.8377,0.8384,0.8421,0.8411,0.8384,0.8421,0.8431,0.8428,0.8394,0.834,0.8173,0.7514,0.7722,0.8041,0.7406,0.7131,0.7269,0.7892,0.6458,0.5138,0.5969,0.7098,0.679,0.2625,0.4647,0.7293,0.7912,0.6255,0.5634,0.7682,0.7989,0.7989,0.7999,0.6253,0.4425,0.3213,0.5501,0.7047,0.7073,0.6557,0.6391,0.6517,0.6877,0.7058,0.7139,0.7139,0.7139,0.7139,0.7139,0.7139,0.7139,0.7139,0.7139,0.7139,0.7139,0.7139,0.2476,0.3003,0.3652,0.4026,0.0,0.0,0.666,0.0,0.0,0.0,0.0,0.0,0.0,0.0,0.0,0.0,0.0,0.0,0.0,0.0,0.0,0.0,0.0,0.0,0.0,0.0,0.0,0.0,0.0,0.0,0.8072,0.8062,0.8055,0.8055,0.8045,0.8038,0.8038,0.8038,0.8038,0.8038,0.8038,0.8045,0.8055,0.8045,0.8052,0.8072,0.8062,0.8055,0.8055,0.8055,0.8052,0.8038,0.8038,0.8045,0.8058,0.8069,0.8072,0.8092,0.8238,0.8191,0.8096,0.8238,0.8286,0.8262,0.814,0.8191,0.7738,0.5056,0.6065,0.7412,0.4937,0.4321,0.4929,0.74,0.7818,0.638,0.1615,0.4448,0.7922,0.751,0.5751,0.5029,0.7578,0.7879,0.7772,0.7989,0.7982,0.7985,0.8019,0.7818,0.5761,0.0804,0.2711,0.4256,0.4288,0.4003,0.4191,0.4912,0.6263,0.7074,0.7143,0.7139,0.7139,0.7139,0.7139,0.7139,0.7139,0.7139,0.7139,0.7139,0.7139,0.7139,0.2739,0.3504,0.4427,0.5108,0.0,0.0,0.0,0.0,0.0,0.0,0.0,0.0,0.0,0.0,0.0,0.0,0.0,0.0,0.0,0.0,0.0,0.0,0.0,0.0,0.0,0.0,0.0,0.0,0.0,0.0,0.8038,0.8038,0.8038,0.8038,0.8038,0.8038,0.8038,0.8038,0.8038,0.8038,0.8038,0.8038,0.8038,0.8038,0.8038,0.8038,0.8038,0.8038,0.8038,0.8038,0.8038,0.8038,0.8038,0.8038,0.8038,0.8038,0.8038,0.8048,0.8106,0.8089,0.8048,0.8106,0.8136,0.8136,0.7989,0.8026,0.7867,0.6788,0.7202,0.773,0.6779,0.4033,0.1813,0.2826,0.5567,0.6486,0.1111,0.2923,0.6055,0.7711,0.7181,0.6859,0.7785,0.7985,0.7985,0.7992,0.7999,0.8009,0.8022,0.5056,0.222,0.0202,0.0888,0.154,0.1498,0.4131,0.5245,0.4107,0.5994,0.7074,0.7143,0.7139,0.7139,0.7139,0.7139,0.7139,0.7139,0.7139,0.7139,0.7139,0.7139,0.7139,0.307,0.3918,0.4933,0.0,0.0,0.0,0.0,0.0,0.0,0.0,0.0,0.0,0.0,0.0,0.0,0.0,0.0,0.0,0.0,0.0,0.0,0.0,0.0,0.0,0.0,0.0,0.0,0.0,0.0,0.0,0.0,0.8038,0.8038,0.8038,0.8038,0.8038,0.8038,0.7991,0.7967,0.7967,0.7923,0.795,0.8038,0.8038,0.8038,0.8038,0.8038,0.8038,0.8038,0.8038,0.8038,0.8038,0.8038,0.8038,0.8038,0.8038,0.8038,0.8038,0.8038,0.8038,0.8041,0.8048,0.7962,0.7975,0.7985,0.8006,0.8026,0.8032,0.6805,0.5886,0.7513,0.4041,0.0404,0.212,0.4041,0.4956,0.2929,0.2618,0.3822,0.7299,0.8006,0.7682,0.6859,0.6756,0.7065,0.7895,0.8016,0.7406,0.5667,0.2221,-0.0,-0.0,0.1374,0.2196,0.2246,0.4616,0.5753,0.4876,0.6332,0.7125,0.7143,0.7139,0.7139,0.7139,0.7139,0.7139,0.7139,0.7139,0.7139,0.7139,0.7139,0.7316,0.3537,0.4266,0.0,0.0,0.0,0.0,0.0,0.0,0.0,0.0,0.0,0.0,0.0,0.0,0.0,0.0,0.0,0.0,0.0,0.0,0.0,0.0,0.0,0.0,0.0,0.0,0.0,0.0,0.0,0.0,0.0,0.8035,0.8035,0.8035,0.8035,0.8035,0.8035,0.7885,0.7811,0.7807,0.7668,0.7753,0.8038,0.8035,0.8038,0.8038,0.8038,0.8035,0.8038,0.8035,0.8035,0.8035,0.8035,0.8035,0.8035,0.8035,0.8035,0.8035,0.8035,0.8038,0.8041,0.7965,0.7972,0.7979,0.8012,0.8022,0.8029,0.7948,0.4152,0.1313,0.6586,0.4043,0.1414,0.6687,0.394,0.1515,0.679,0.3729,0.161,0.6891,0.8006,0.7166,0.452,0.4016,0.483,0.7507,0.7922,0.5974,0.0707,-0.0,-0.0,0.0101,0.4276,0.7055,0.7111,0.5242,0.4993,0.723,0.7407,0.7329,0.7149,0.7139,0.7139,0.7139,0.7139,0.7139,0.7139,0.7139,0.7139,0.7139,0.7143,0.7757,0.429,0.5381,0.0,0.0,0.0,0.0,0.0,0.0,0.0,0.0,0.0,0.0,0.0,0.0,0.0,0.0,0.0,0.0,0.0,0.0,0.0,0.0,0.0,0.0,0.0,0.0,0.0,0.0,0.0,0.0,0.0,0.7729,0.7729,0.7729,0.7729,0.7729,0.7729,0.7685,0.8033,0.8867,0.8816,0.8441,0.7879,0.884,0.8811,0.8031,0.8893,0.8743,0.7872,0.777,0.7729,0.774,0.7838,0.7818,0.7743,0.7841,0.7818,0.7743,0.7845,0.7879,0.7896,0.8014,0.6736,0.5327,0.5939,0.6977,0.761,0.5754,0.4026,0.3623,0.7095,0.6793,0.5054,0.292,0.4036,0.5056,0.2827,0.2618,0.2712,0.2415,0.5452,0.7704,0.6983,0.3731,0.1411,0.2221,0.2424,0.1817,0.0202,-0.0,0.1307,0.467,0.6257,0.7238,0.7472,0.6783,0.6737,0.7553,0.7546,0.7468,0.7309,0.72,0.7139,0.7139,0.7139,0.7139,0.7139,0.7139,0.7139,0.7143,0.7251,0.8016,0.4785,0.0,0.0,0.0,0.0,0.0,0.0,0.0,0.0,0.0,0.0,0.0,0.0,0.0,0.0,0.0,0.0,0.0,0.0,0.0,0.0,0.0,0.0,0.0,0.0,0.0,0.0,0.0,0.0,0.0,0.0,0.76,0.76,0.76,0.76,0.7785,0.8243,0.8177,0.8782,0.9871,0.9714,0.9423,0.9031,0.9382,0.9196,0.8527,0.8806,0.8482,0.7723,0.7634,0.76,0.7607,0.7692,0.7675,0.7611,0.7695,0.7675,0.7611,0.7699,0.7726,0.7743,0.7841,0.6819,0.5468,0.4967,0.6318,0.7698,0.6044,0.5634,0.5944,0.7594,0.8019,0.6684,0.1308,0.2519,0.4549,0.3433,0.2822,0.1911,0.0302,0.2622,0.4853,0.4853,0.2121,-0.0,-0.0,-0.0,-0.0,-0.0,0.1817,0.4227,0.7195,0.7353,0.7449,0.763,0.7628,0.758,0.7611,0.7604,0.7533,0.738,0.7282,0.7204,0.7143,0.7139,0.7139,0.7139,0.7139,0.7173,0.7234,0.7329,0.8394,0.0,0.0,0.0,0.0,0.0,0.0,0.0,0.0,0.0,0.0,0.0,0.0,0.0,0.0,0.0,0.0,0.0,0.0,0.0,0.0,0.0,0.0,0.0,0.0,0.0,0.0,0.0,0.0,0.0,0.0,0.7516,0.7519,0.7522,0.7539,0.7629,0.818,0.9087,0.919,0.9718,1.0676,1.0444,1.0549,1.0957,1.0017,0.9578,0.9414,0.8131,0.757,0.7556,0.7556,0.7556,0.756,0.7573,0.757,0.756,0.7573,0.757,0.756,0.7573,0.758,0.7584,0.7705,0.7808,0.7527,0.5072,0.6033,0.7945,0.7949,0.7949,0.7949,0.7952,0.7979,0.677,0.1908,0.0403,0.1313,0.6178,0.3435,-0.0,-0.0,-0.0,-0.0,-0.0,-0.0,-0.0,-0.0,0.0404,0.0707,0.0707,0.475,0.7708,0.7999,0.7845,0.7744,0.7741,0.7724,0.7756,0.7628,0.7617,0.7546,0.738,0.7356,0.7285,0.7143,0.7139,0.7139,0.7139,0.7153,0.7234,0.737,0.74,0.875,0.0,0.0,0.0,0.0,0.0,0.0,0.0,0.0,0.0,0.0,0.0,0.0,0.0,0.0,0.0,0.0,0.0,0.0,0.0,0.0,0.0,0.0,0.0,0.0,0.0,0.0,0.0,0.0,0.0,0.0,0.6895,0.6895,0.6949,0.7071,0.7929,0.8103,0.7414,0.9086,0.9996,1.0073,1.0882,1.1711,1.2675,1.1946,1.1284,1.0566,0.8413,0.735,0.7238,0.7238,0.7238,0.7251,0.7373,0.7346,0.7255,0.7377,0.7343,0.7258,0.7377,0.7421,0.7441,0.7563,0.7537,0.7472,0.6979,0.7197,0.7521,0.7614,0.7712,0.7822,0.7941,0.8046,0.775,0.6555,0.31,0.0303,0.1515,0.0808,-0.0,-0.0,-0.0,-0.0,-0.0,-0.0,-0.0,-0.0,0.3536,0.6279,0.6279,0.5448,0.5606,0.7517,0.7771,0.7738,0.7818,0.7814,0.7797,0.7767,0.7767,0.7648,0.7383,0.7255,0.7173,0.7139,0.7139,0.7139,0.7139,0.7261,0.7339,0.7377,0.7607,0.8509,0.0,0.0,0.0,0.0,0.0,0.0,0.0,0.0,0.0,0.0,0.0,0.0,0.0,0.0,0.0,0.0,0.0,0.0,0.0,0.0,0.0,0.0,0.0,0.0,0.0,0.0,0.0,0.0,0.0,0.7435,0.7435,0.7435,0.7639,0.8225,0.8888,0.9133,0.9137,0.9708,1.0305,1.0756,1.0647,1.0909,1.149,1.1291,1.0348,0.8931,0.765,0.7004,0.6929,0.6929,0.6973,0.7048,0.7129,0.7153,0.7143,0.7156,0.7109,0.7041,0.7048,0.7099,0.7173,0.7251,0.7285,0.7403,0.7492,0.755,0.752,0.7611,0.7621,0.7736,0.7956,0.7983,0.74,0.4824,0.1994,0.0707,0.3232,0.2828,0.1919,0.1913,0.2924,0.3432,0.2115,0.1913,0.1913,0.1913,0.4332,0.6567,0.7802,0.6762,0.6418,0.7661,0.7845,0.7805,0.7818,0.7811,0.775,0.7607,0.76,0.7499,0.7272,0.7183,0.7139,0.7139,0.7139,0.7139,0.7139,0.7295,0.737,0.7377,0.7604,0.8317,0.0,0.0,0.0,0.0,0.0,0.0,0.0,0.0,0.0,0.0,0.0,0.0,0.0,0.0,0.0,0.0,0.0,0.0,0.0,0.0,0.0,0.0,0.0,0.0,0.0,0.0,0.0,0.0,0.0,0.7156,0.7829,0.7934,0.8328,0.9114,0.9436,0.9917,1.0636,1.0108,1.0274,1.1044,1.0053,0.9569,0.934,0.9508,0.8585,0.6943,0.6781,0.6702,0.6702,0.6702,0.6773,0.6892,0.6892,0.6959,0.7051,0.6932,0.6892,0.6871,0.6746,0.6787,0.6892,0.6892,0.7061,0.7361,0.7385,0.7492,0.7512,0.7153,0.7272,0.7584,0.7795,0.7914,0.6643,0.1268,-0.0,0.1402,0.6684,0.6067,0.4533,0.4628,0.6467,0.729,0.5029,0.4722,0.4722,0.4722,0.4722,0.5532,0.7679,0.7975,0.7969,0.7969,0.7952,0.7987,0.7862,0.7828,0.7695,0.7428,0.7387,0.7302,0.7146,0.7139,0.7139,0.7139,0.7139,0.7139,0.7139,0.7295,0.737,0.7373,0.7529,0.8135,0.0,0.0,0.0,0.0,0.0,0.0,0.0,0.0,0.0,0.0,0.0,0.0,0.0,0.0,0.0,0.0,0.0,0.0,0.0,0.0,0.0,0.0,0.0,0.0,0.0,0.0,0.0,0.0,0.7475,0.7155,0.662,0.7029,0.7076,0.6772,0.8467,0.8621,0.7013,0.8793,0.9262,0.8313,0.9052,0.8885,0.8047,0.8073,0.8102,0.8156,0.7105,0.6702,0.6702,0.6702,0.6712,0.6729,0.6729,0.6742,0.6756,0.6736,0.6729,0.6729,0.6709,0.6722,0.6833,0.6833,0.6961,0.7123,0.717,0.7142,0.6734,0.4752,0.561,0.7192,0.7198,0.7601,0.6608,0.124,-0.0,0.1358,0.6152,0.6924,0.6869,0.7378,0.7798,0.7892,0.7575,0.7475,0.7475,0.7475,0.7466,0.7563,0.7975,0.7955,0.8045,0.8045,0.8041,0.8031,0.8011,0.7885,0.7743,0.758,0.7444,0.7302,0.7146,0.7139,0.7139,0.7139,0.7139,0.7139,0.7139,0.7295,0.737,0.7373,0.7529,0.7619,0.0,0.0,0.0,0.0,0.0,0.0,0.0,0.0,0.0,0.0,0.0,0.0,0.0,0.0,0.0,0.0,0.0,0.0,0.0,0.0,0.0,0.0,0.0,0.0,0.0,0.0,0.0,0.0,0.7601,0.7603,0.7842,0.7436,0.7364,0.7673,0.8554,0.8685,0.7847,0.8303,0.7925,0.6802,0.725,0.7198,0.6663,0.6663,0.6791,0.7013,0.6556,0.6325,0.6325,0.6325,0.643,0.6675,0.6675,0.6651,0.6719,0.6716,0.6685,0.6675,0.6505,0.6532,0.6355,0.5102,0.4899,0.5136,0.5104,0.604,0.6914,0.5813,0.436,0.3145,0.3145,0.3285,0.2879,0.0561,0.208,0.4512,0.6669,0.714,0.7227,0.7743,0.7851,0.7861,0.7949,0.7962,0.7962,0.7962,0.7959,0.7955,0.7955,0.8045,0.8038,0.8038,0.8038,0.8004,0.7919,0.7848,0.775,0.7607,0.7536,0.7431,0.7275,0.7272,0.7227,0.7143,0.7139,0.7139,0.7139,0.7295,0.7326,0.7248,0.821,0.8244,0.0,0.0,0.0,0.0,0.0,0.0,0.0,0.0,0.0,0.0,0.0,0.0,0.0,0.0,0.0,0.0,0.0,0.0,0.0,0.0,0.0,0.0,0.0,0.0,0.0,0.0,0.0,0.7254,0.7098,0.7377,0.822,0.7548,0.7438,0.7976,0.8185,0.8263,0.8217,0.7475,0.6699,0.5973,0.5973,0.5911,0.58,0.58,0.5844,0.5925,0.5962,0.5979,0.5979,0.6027,0.6263,0.6482,0.5946,0.5779,0.5782,0.5764,0.5808,0.5793,0.5529,0.5808,0.6061,0.4428,0.3334,0.2723,0.2655,0.388,0.5331,0.5305,0.2718,-0.0,-0.0,0.0902,0.1826,0.1833,0.456,0.7098,0.7123,0.7155,0.7289,0.7521,0.7644,0.7794,0.7909,0.7957,0.798,0.798,0.798,0.7994,0.8035,0.8007,0.7994,0.8035,0.8038,0.7977,0.7824,0.7777,0.7695,0.755,0.7506,0.7523,0.7768,0.7761,0.7878,0.8013,0.7661,0.7401,0.7139,0.7255,0.7255,0.7146,0.8762,0.893,0.0,0.0,0.0,0.0,0.0,0.0,0.0,0.0,0.0,0.0,0.0,0.0,0.0,0.0,0.0,0.0,0.0,0.0,0.0,0.0,0.0,0.0,0.0,0.0,0.0,0.0,0.0,0.5895,0.5761,0.5811,0.5946,0.6479,0.6439,0.58,0.6547,0.6619,0.5818,0.5887,0.5885,0.5813,0.5813,0.581,0.58,0.58,0.5739,0.571,0.5919,0.5978,0.5992,0.624,0.6324,0.6118,0.4042,0.3288,0.3292,0.3288,0.3287,0.3287,0.3283,0.4636,0.626,0.6179,0.3469,0.0158,0.0162,0.0245,0.033,0.0344,0.0172,-0.0,-0.0,0.3324,0.6728,0.6754,0.6879,0.7098,0.7112,0.724,0.7383,0.7424,0.7512,0.7614,0.7621,0.7733,0.7824,0.7824,0.7824,0.7875,0.8021,0.7913,0.7879,0.8024,0.8038,0.7977,0.7824,0.7689,0.7546,0.7394,0.7244,0.7598,0.8819,0.8819,0.9331,1.0438,0.9318,0.8281,0.7139,0.7149,0.7146,0.7143,0.8641,0.9264,0.0,0.0,0.0,0.0,0.0,0.0,0.0,0.0,0.0,0.0,0.0,0.0,0.0,0.0,0.0,0.0,0.0,0.0,0.0,0.0,0.0,0.0,0.0,0.0,0.0,0.0,0.6551,0.6773,0.6527,0.6463,0.6523,0.5872,0.5456,0.5291,0.5549,0.5719,0.5669,0.5735,0.5834,0.5832,0.5751,0.57,0.5542,0.5542,0.5515,0.5545,0.5603,0.4969,0.3897,0.3939,0.4933,0.6252,0.5448,0.3482,0.1096,0.1096,0.1096,0.1096,0.1096,0.1647,0.2278,0.2278,0.1256,-0.0,-0.0,-0.0,-0.0,-0.0,0.1929,0.4063,0.4,0.5532,0.7107,0.6954,0.7031,0.7088,0.7024,0.7118,0.7228,0.7363,0.7414,0.7485,0.7584,0.7641,0.7675,0.7675,0.7675,0.7695,0.775,0.7709,0.7733,0.7879,0.7892,0.7872,0.7818,0.7767,0.7675,0.7529,0.7465,0.7573,0.7919,0.8617,0.9181,0.9497,0.9836,0.9405,0.8277,0.7492,0.7139,0.7143,0.9335,0.9961,0.0,0.0,0.0,0.0,0.0,0.0,0.0,0.0,0.0,0.0,0.0,0.0,0.0,0.0,0.0,0.0,0.0,0.0,0.0,0.0,0.0,0.0,0.0,0.0,0.0,0.0,0.6327,0.6491,0.6359,0.0,0.6229,0.5399,0.5034,0.5199,0.5185,0.5312,0.5595,0.5026,0.5032,0.5681,0.4978,0.4631,0.4514,0.4514,0.4847,0.539,0.5384,0.4733,0.3522,0.2297,0.2719,0.4154,0.4187,0.2506,-0.0,-0.0,-0.0,-0.0,-0.0,-0.0,-0.0,-0.0,-0.0,-0.0,-0.0,-0.0,0.0322,0.1705,0.4104,0.6144,0.541,0.6105,0.6987,0.6793,0.6897,0.6974,0.6953,0.7041,0.717,0.7275,0.7292,0.7326,0.7428,0.7489,0.7522,0.7522,0.7522,0.7543,0.7594,0.7553,0.7597,0.779,0.777,0.774,0.774,0.7692,0.76,0.7455,0.7444,0.7583,0.7926,0.8625,0.9186,0.9497,1.0178,1.0269,0.9492,0.8707,0.8269,0.836,1.0647,1.1542,0.0,0.0,0.0,0.0,0.0,0.0,0.0,0.0,0.0,0.0,0.0,0.0,0.0,0.0,0.0,0.0,0.0,0.0,0.0,0.0,0.0,0.0,0.0,0.0,0.0,0.4826,0.4914,0.4918,0.4914,0.4911,0.4911,0.4985,0.5125,0.5326,0.5342,0.5357,0.5424,0.3633,0.3565,0.5226,0.3599,0.2721,0.2644,0.2646,0.3645,0.5428,0.5392,0.5343,0.494,0.1455,-0.0,-0.0,-0.0,-0.0,-0.0,-0.0,-0.0,-0.0,-0.0,-0.0,-0.0,-0.0,-0.0,-0.0,-0.0,-0.0,0.0868,0.5109,0.6281,0.5795,0.3706,0.5022,0.6798,0.6639,0.6739,0.6919,0.6915,0.7031,0.7136,0.7139,0.7139,0.7139,0.7139,0.7265,0.7363,0.7363,0.7363,0.7417,0.7567,0.7455,0.7475,0.7767,0.7675,0.7594,0.7594,0.7458,0.7305,0.7149,0.7139,0.7665,0.8803,0.889,0.941,1.0524,1.0611,1.0611,1.0611,1.0611,1.0611,1.0621,1.2416,1.3994,0.7419,0.0,0.0,0.0,0.0,0.0,0.0,0.0,0.0,0.0,0.0,0.0,0.0,0.0,0.0,0.0,0.0,0.0,0.0,0.0,0.0,0.0,0.0,0.0,0.0,0.4728,0.4799,0.0,0.4826,0.4828,0.4828,0.3687,0.3032,0.3095,0.3313,0.4063,0.541,0.3594,0.2306,0.1499,0.3654,0.3305,0.074,0.0757,0.246,0.5373,0.5417,0.3898,0.1439,0.0404,-0.0,-0.0,-0.0,-0.0,-0.0,-0.0,-0.0,-0.0,-0.0,-0.0,-0.0,-0.0,-0.0,-0.0,-0.0,-0.0,0.0865,0.5097,0.6287,0.6195,0.5737,0.6112,0.6542,0.6542,0.6658,0.6732,0.6624,0.6803,0.7017,0.7122,0.7139,0.7139,0.7139,0.7177,0.7204,0.7204,0.7204,0.7221,0.7261,0.7231,0.7278,0.7472,0.7458,0.7434,0.7434,0.7397,0.7305,0.7149,0.7139,0.7228,0.7577,0.8452,0.9065,0.9405,1.0956,1.1809,1.1809,1.1037,1.0611,1.0616,1.2229,1.3801,0.0,0.0,0.0,0.0,0.0,0.0,0.7866,0.7841,0.7844,0.0,0.0,0.0,0.0,0.0,0.0,0.0,0.0,0.0,0.0,0.0,0.0,0.0,0.0,0.0,0.4592,0.4602,0.464,0.4735,0.4725,0.468,0.4687,0.3694,0.2592,0.1323,0.1484,0.2055,0.3155,0.2118,0.1057,-0.0,0.2134,0.2053,-0.0,-0.0,0.1148,0.3164,0.3144,0.1962,-0.0,-0.0,-0.0,-0.0,-0.0,-0.0,-0.0,-0.0,-0.0,-0.0,-0.0,-0.0,-0.0,-0.0,-0.0,-0.0,-0.0,-0.0,0.0534,0.3013,0.4924,0.6322,0.6476,0.6524,0.6458,0.6396,0.6498,0.658,0.6491,0.6661,0.6875,0.7024,0.7099,0.7139,0.7139,0.7139,0.7139,0.7139,0.7139,0.7139,0.7139,0.7139,0.72,0.7356,0.7312,0.7299,0.7366,0.7312,0.7413,0.7845,0.7404,0.7316,0.7841,0.8017,0.8193,0.8193,1.0438,1.2072,1.3027,1.2339,1.2141,1.2244,1.3209,1.4238,0.0,0.0,0.0,0.0,0.0,0.0,0.7634,0.7833,0.8019,0.7929,0.0,0.0,0.0,0.0,0.0,0.0,0.0,0.0,0.0,0.0,0.0,0.0,0.0,0.0,0.448,0.4366,0.4258,0.4268,0.4383,0.4333,0.3999,0.3999,0.2751,0.0112,-0.0,-0.0,-0.0,-0.0,-0.0,-0.0,-0.0,-0.0,-0.0,-0.0,-0.0,-0.0,-0.0,-0.0,-0.0,-0.0,-0.0,-0.0,-0.0,-0.0,-0.0,-0.0,-0.0,-0.0,-0.0,-0.0,-0.0,-0.0,-0.0,-0.0,-0.0,-0.0,-0.0,-0.0,0.284,0.6038,0.6274,0.6363,0.6417,0.6291,0.6359,0.6451,0.6451,0.6569,0.6715,0.6851,0.7021,0.7139,0.7139,0.7139,0.7139,0.7139,0.7139,0.7139,0.7139,0.7139,0.7193,0.7329,0.7221,0.7193,0.7333,0.7221,0.7577,0.8803,0.7929,0.7841,0.9065,0.7925,0.7316,0.7316,0.9483,1.1649,1.3906,1.3997,1.4235,1.4529,1.479,1.493,0.0,0.0,0.0,0.0,0.0,0.0,0.7736,0.7359,0.7151,0.0,0.0,0.0,0.0,0.0,0.0,0.0,0.0,0.0,0.0,0.0,0.0,0.0,0.0,0.0,0.449,0.3355,0.2623,0.2625,0.3819,0.3429,0.1009,0.0897,0.0617,-0.0,-0.0,-0.0,-0.0,-0.0,-0.0,-0.0,-0.0,-0.0,-0.0,-0.0,-0.0,-0.0,-0.0,-0.0,-0.0,-0.0,-0.0,-0.0,-0.0,-0.0,-0.0,-0.0,-0.0,-0.0,-0.0,-0.0,-0.0,-0.0,-0.0,-0.0,-0.0,-0.0,-0.0,-0.0,0.1763,0.4142,0.5879,0.6291,0.6295,0.6268,0.6281,0.6302,0.6302,0.6417,0.6525,0.6556,0.6875,0.7139,0.7139,0.7139,0.7139,0.7139,0.7139,0.7139,0.7139,0.7139,0.7153,0.7183,0.7156,0.7153,0.7183,0.7156,0.7577,0.8803,0.8715,0.9056,1.0178,0.9148,0.854,0.854,0.9923,1.13,1.2674,1.3646,1.4235,1.4522,1.4583,1.4736,0.0,0.0,0.0,0.778,0.0,0.0,0.0,0.7263,0.7031,0.7248,0.0,0.0,0.0,0.0,0.0,0.0,0.0,0.0,0.0,0.0,0.0,0.0,0.0,0.0,0.4445,0.3819,0.2742,0.1229,0.1793,0.1569,0.0056,-0.0,-0.0,-0.0,-0.0,-0.0,-0.0,-0.0,-0.0,-0.0,-0.0,-0.0,-0.0,-0.0,-0.0,-0.0,-0.0,-0.0,-0.0,-0.0,-0.0,-0.0,-0.0,-0.0,-0.0,-0.0,-0.0,-0.0,-0.0,-0.0,-0.0,-0.0,-0.0,-0.0,-0.0,-0.0,-0.0,-0.0,0.0754,0.231,0.5473,0.6278,0.6268,0.6264,0.6338,0.6338,0.6338,0.643,0.6563,0.6485,0.6776,0.7034,0.7034,0.7034,0.7034,0.7034,0.697,0.6919,0.6919,0.6987,0.7034,0.7034,0.7099,0.7139,0.7139,0.7139,0.7837,0.9666,0.9235,0.9662,1.1381,0.9836,0.889,0.889,0.9492,1.0611,1.2328,1.2942,1.354,1.4309,1.4449,1.4522,0.0,0.0,0.0,0.0,0.0,0.7504,0.0,0.0,0.0,0.0,0.0,0.0,0.0,0.0,0.0,0.0,0.0,0.0,0.0,0.0,0.0,0.0,0.0,0.2647,0.3546,0.3658,0.2639,0.0168,-0.0,-0.0,-0.0,-0.0,-0.0,-0.0,-0.0,-0.0,-0.0,-0.0,-0.0,-0.0,-0.0,-0.0,-0.0,-0.0,-0.0,-0.0,-0.0,-0.0,-0.0,-0.0,-0.0,-0.0,-0.0,-0.0,-0.0,-0.0,-0.0,-0.0,-0.0,-0.0,-0.0,-0.0,-0.0,-0.0,-0.0,-0.0,-0.0,-0.0,0.0221,0.128,0.4799,0.5925,0.6237,0.6254,0.6338,0.6338,0.6338,0.6447,0.658,0.6458,0.6654,0.6851,0.6878,0.6885,0.6885,0.6885,0.678,0.6702,0.6702,0.6834,0.6929,0.6929,0.7054,0.7139,0.7139,0.7139,0.8097,1.0438,0.9749,1.0183,1.2242,1.0091,0.8803,0.854,0.8803,0.9836,1.1638,1.1901,1.2595,1.3737,1.4236,1.4223,0.0,0.0,0.0,0.0,0.7447,0.0,0.0,0.0,0.6942,0.6618,0.0,0.0,0.0,0.0,0.0,0.0,0.0,0.0,0.0,0.0,0.0,0.2975,0.2703,0.202,0.0618,0.0505,0.0392,-0.0,-0.0,-0.0,-0.0,-0.0,-0.0,-0.0,-0.0,-0.0,-0.0,-0.0,-0.0,-0.0,-0.0,-0.0,-0.0,-0.0,-0.0,-0.0,-0.0,-0.0,-0.0,-0.0,-0.0,-0.0,-0.0,-0.0,-0.0,-0.0,-0.0,-0.0,-0.0,-0.0,-0.0,-0.0,-0.0,-0.0,-0.0,-0.0,-0.0,-0.0,0.1147,0.2567,0.3313,0.4771,0.6091,0.623,0.6338,0.6338,0.6338,0.6288,0.6305,0.6288,0.6413,0.6566,0.6702,0.6725,0.6725,0.6725,0.6712,0.6702,0.6702,0.6834,0.6929,0.6929,0.7054,0.7139,0.7139,0.7139,0.8097,1.0438,1.0438,1.0956,1.2242,1.0091,0.8364,0.7316,0.8364,0.9065,0.9323,1.0265,1.1381,1.2504,1.3587,1.3587,0.0,0.0,0.0,0.0,0.0,0.0,0.6911,0.0,0.6557,0.0,0.0,0.0,0.0,0.0,0.0,0.0,0.4089,0.0,0.0,0.0,0.0,0.0,0.0,0.0,0.0163,0.0169,0.0344,0.0505,0.0171,-0.0,-0.0,-0.0,-0.0,-0.0,-0.0,-0.0,-0.0,-0.0,-0.0,-0.0,-0.0,-0.0,-0.0,-0.0,-0.0,-0.0,-0.0,-0.0,-0.0,-0.0,-0.0,-0.0,-0.0,-0.0,-0.0,-0.0,-0.0,-0.0,-0.0,-0.0,-0.0,-0.0,-0.0,-0.0,-0.0,-0.0,0.0413,0.2516,0.3679,0.4303,0.4556,0.5303,0.6054,0.6112,0.6196,0.6338,0.6338,0.6325,0.6359,0.6278,0.6376,0.6468,0.6447,0.6515,0.6569,0.6569,0.6498,0.6444,0.6444,0.6651,0.6797,0.6797,0.7606,0.7841,0.7139,0.7753,0.8536,0.9579,1.0269,1.0524,1.0351,0.9405,0.8364,0.7139,0.7577,0.8193,0.889,0.941,0.9836,1.0351,1.1563,1.1821,0.508,0.0,0.0,0.0,0.0,0.0,0.0,0.0,0.0,0.0,0.0,0.0,0.0,0.0,0.0,0.0,0.0,0.3409,0.0,0.0,0.0,0.0,0.0,0.0,0.0,0.0553,0.0672,0.0928,0.0502,0.0169,-0.0,-0.0,-0.0,-0.0,-0.0,-0.0,-0.0,-0.0,-0.0,-0.0,-0.0,-0.0,-0.0,-0.0,-0.0,-0.0,-0.0,-0.0,-0.0,-0.0,-0.0,-0.0,-0.0,-0.0,-0.0,-0.0,-0.0,-0.0,-0.0,-0.0,-0.0,-0.0,-0.0,0.0194,0.1192,0.1473,0.1893,0.4074,0.5005,0.5458,0.5664,0.5775,0.5939,0.6013,0.6115,0.621,0.6251,0.6342,0.6383,0.6281,0.6342,0.6383,0.6278,0.6346,0.6413,0.6413,0.6325,0.6338,0.6338,0.6481,0.6637,0.6637,0.7669,0.8039,0.7082,0.7865,0.8471,0.8814,0.9584,0.9693,0.8973,0.854,0.8017,0.7139,0.7139,0.7489,0.8364,0.8364,0.8364,0.8452,0.9923,1.0438,0.0,0.0,0.0,0.2991,0.0,0.0,0.0,0.0,0.6325,0.0,0.0,0.0,0.0,0.0,0.0,0.0,0.0,0.0,0.0,0.0,0.0,0.0,0.0,0.0,0.0,0.1138,0.081,0.1064,0.0912,0.0566,0.0053,-0.0,-0.0,-0.0,-0.0,-0.0,-0.0,-0.0,-0.0,-0.0,-0.0,-0.0,-0.0,-0.0,-0.0,-0.0,-0.0,-0.0,-0.0,-0.0,-0.0,-0.0,-0.0,-0.0,-0.0,-0.0,-0.0,-0.0,-0.0,-0.0,-0.0,-0.0,-0.0,0.0645,0.4153,0.5239,0.4864,0.3224,0.4028,0.5423,0.5648,0.5679,0.5677,0.5962,0.6034,0.6078,0.623,0.6264,0.6345,0.6264,0.6264,0.6345,0.6338,0.6342,0.6268,0.6268,0.6264,0.6338,0.6338,0.639,0.6478,0.6478,0.6753,0.6936,0.6936,0.6936,0.7443,0.8615,0.87,0.8785,0.8882,0.7753,0.7139,0.7139,0.7139,0.7139,0.7139,0.7139,0.7139,0.7228,0.9483,1.0009,0.0,0.0,0.4383,0.4268,0.0,0.0,0.0,0.0,0.0,0.0,0.0,0.0,0.0,0.0,0.0,0.0,0.0,0.0,0.0,0.0,0.0,0.0,0.0,0.0,0.0,0.0,0.0,0.0808,0.0722,0.0631,0.0585,0.0213,-0.0,-0.0,-0.0,-0.0,-0.0,-0.0,-0.0,-0.0,-0.0,-0.0,-0.0,-0.0,-0.0,-0.0,-0.0,-0.0,-0.0,-0.0,-0.0,-0.0,-0.0,-0.0,-0.0,-0.0,-0.0,-0.0,-0.0,-0.0,0.0414,0.2781,0.3573,0.3572,0.3629,0.4478,0.5262,0.4634,0.4903,0.5389,0.55,0.5518,0.5613,0.5715,0.5888,0.6044,0.6098,0.6186,0.6338,0.6338,0.6338,0.6338,0.6338,0.6338,0.6338,0.6338,0.6338,0.6338,0.6338,0.6383,0.6512,0.6614,0.7368,0.7644,0.6919,0.6834,0.6986,0.751,0.7517,0.7587,0.7746,0.7316,0.7139,0.7139,0.7139,0.7139,0.7139,0.7139,0.7139,0.7139,0.7921,0.8097,0.3088,0.3343,0.0,0.3245,0.2186,0.0,0.3498,0.0,0.4974,0.0,0.0,0.0,0.0,0.0,0.0,0.0,0.0,0.0,0.0,0.0038,0.0,0.0,0.0,0.0,0.0,0.0,0.0096,0.0678,0.049,0.0501,0.0,0.047,0.016,-0.0,-0.0,-0.0,-0.0,-0.0,-0.0,-0.0,-0.0,-0.0,-0.0,-0.0,-0.0,-0.0,-0.0,-0.0,-0.0,-0.0,-0.0,-0.0,-0.0,-0.0,-0.0,-0.0,-0.0,0.0168,0.1478,0.1911,0.2192,0.392,0.4876,0.5203,0.4012,0.4463,0.541,0.5501,0.5454,0.5396,0.5494,0.5511,0.5521,0.5579,0.5772,0.5962,0.6017,0.6149,0.6338,0.6338,0.6338,0.6338,0.6338,0.6338,0.6338,0.6338,0.6338,0.6338,0.6338,0.6339,0.6434,0.6532,0.7282,0.7556,0.6922,0.6756,0.6742,0.6841,0.6898,0.6993,0.7136,0.7139,0.7166,0.7221,0.717,0.7166,0.7221,0.7166,0.7139,0.7139,0.7139,0.7139]},{"header":{"parameterUnit":"m.s-1","parameterCategory":1,"la1":30.6,"la2":29.2853,"lo1":-89.7004,"lo2":-87.6739,"dy":0.0162,"dx":0.0183,"nx":112,"ny":82,"refTime":"2023-08-17T06:00:00:Z","depth":0,"parameterNumber":3,"parameterNumberName":"V-component_of_WINDS"},"data":[0.0,0.0,0.0,0.0,0.0,0.0,0.0,0.0,0.0,0.0,0.0,0.0,0.0,0.0,0.0,0.0,0.0,0.0,0.0,0.0,0.0,0.0,0.0,0.0,0.0,0.0,0.0,0.0,0.0,0.0,0.0,0.0,0.0,0.0,0.0,0.0,0.0,0.0,0.0,0.0,0.0,0.0,0.0,0.0,0.0,0.0,0.0,0.0,0.0,0.0,0.0,0.0,0.0,0.0,0.0,0.0,0.0,0.0,0.0,0.0,0.0,0.0,0.0,0.0,0.0,0.0,0.0,0.0,0.0,0.0,0.0,0.0,0.0,0.0,0.0,0.0,0.0,0.0,0.0,0.0,0.0,0.0,0.0,0.0,0.0,0.0,0.0,0.0,0.0,0.0,-2.2144,-2.3345,-2.7808,-3.0624,-3.0494,-3.0987,-2.9689,-2.5936,0.0,0.0,0.0,0.0,0.0,0.0,0.0,0.0,0.0,0.0,0.0,0.0,0.0,0.0,0.0,0.0,0.0,0.0,0.0,0.0,0.0,0.0,0.0,0.0,0.0,0.0,0.0,0.0,0.0,0.0,0.0,0.0,0.0,0.0,0.0,0.0,0.0,0.0,0.0,0.0,0.0,0.0,0.0,0.0,0.0,0.0,0.0,0.0,0.0,0.0,0.0,0.0,0.0,0.0,0.0,0.0,0.0,0.0,0.0,0.0,0.0,0.0,0.0,0.0,0.0,0.0,0.0,0.0,0.0,0.0,0.0,0.0,0.0,0.0,0.0,0.0,0.0,0.0,0.0,0.0,0.0,0.0,0.0,0.0,0.0,0.0,0.0,0.0,0.0,0.0,0.0,0.0,0.0,0.0,0.0,0.0,0.0,0.0,0.0,0.0,0.0,0.0,0.0,0.0,-2.2815,-2.5726,-2.9325,-3.1225,-3.0475,-2.9852,-2.8666,-2.6735,0.0,0.0,0.0,0.0,0.0,0.0,0.0,0.0,0.0,0.0,0.0,0.0,0.0,0.0,0.0,0.0,0.0,0.0,0.0,0.0,0.0,0.0,0.0,0.0,0.0,0.0,0.0,0.0,0.0,0.0,0.0,0.0,0.0,0.0,0.0,0.0,0.0,0.0,0.0,0.0,0.0,0.0,0.0,0.0,0.0,0.0,0.0,0.0,0.0,0.0,0.0,0.0,0.0,0.0,0.0,0.0,0.0,0.0,0.0,0.0,0.0,0.0,0.0,0.0,0.0,0.0,0.0,0.0,0.0,0.0,0.0,0.0,0.0,0.0,0.0,0.0,0.0,0.0,0.0,0.0,0.0,0.0,0.0,0.0,0.0,0.0,0.0,0.0,0.0,0.0,0.0,0.0,0.0,0.0,0.0,0.0,0.0,0.0,0.0,0.0,0.0,0.0,0.0,-2.2921,-2.4629,-2.7054,-2.9525,-3.0833,-3.0417,-2.9198,-2.7981,-2.6864,-2.554,0.0,0.0,0.0,0.0,0.0,0.0,0.0,0.0,0.0,0.0,0.0,0.0,0.0,0.0,0.0,0.0,0.0,0.0,0.0,0.0,0.0,0.0,0.0,0.0,0.0,0.0,0.0,0.0,0.0,0.0,0.0,0.0,0.0,0.0,0.0,0.0,0.0,0.0,0.0,0.0,0.0,0.0,0.0,0.0,0.0,0.0,0.0,0.0,0.0,0.0,0.0,0.0,0.0,0.0,0.0,0.0,0.0,0.0,0.0,0.0,0.0,0.0,0.0,0.0,0.0,0.0,0.0,0.0,0.0,0.0,0.0,0.0,0.0,0.0,0.0,0.0,0.0,0.0,0.0,0.0,0.0,0.0,0.0,0.0,0.0,0.0,0.0,0.0,0.0,0.0,0.0,0.0,0.0,0.0,0.0,0.0,0.0,0.0,0.0,0.0,0.0,0.0,-2.4172,-2.5743,-2.742,-2.9083,-3.0102,-3.0102,-2.8758,-2.7604,-2.6844,-2.5185,0.0,0.0,0.0,0.0,0.0,0.0,0.0,0.0,0.0,0.0,0.0,0.0,0.0,0.0,0.0,0.0,0.0,0.0,0.0,0.0,0.0,0.0,0.0,0.0,0.0,0.0,0.0,0.0,0.0,0.0,0.0,0.0,0.0,0.0,0.0,0.0,0.0,0.0,0.0,0.0,0.0,0.0,0.0,0.0,0.0,0.0,0.0,0.0,0.0,0.0,0.0,0.0,0.0,0.0,0.0,0.0,0.0,0.0,0.0,0.0,0.0,0.0,0.0,0.0,0.0,0.0,0.0,0.0,0.0,0.0,0.0,0.0,0.0,0.0,0.0,0.0,0.0,0.0,0.0,0.0,0.0,0.0,0.0,0.0,0.0,0.0,0.0,0.0,0.0,0.0,0.0,0.0,0.0,0.0,0.0,0.0,0.0,0.0,0.0,0.0,0.0,0.0,-2.3663,-2.4822,-2.6505,-2.8179,-2.9179,-2.9179,-2.8464,-2.7658,-2.6858,-2.5211,0.0,0.0,0.0,0.0,0.0,0.0,0.0,0.0,0.0,0.0,0.0,0.0,0.0,0.0,0.0,0.0,0.0,0.0,0.0,0.0,0.0,0.0,0.0,0.0,0.0,0.0,0.0,0.0,0.0,0.0,0.0,0.0,0.0,0.0,0.0,0.0,0.0,0.0,0.0,0.0,0.0,0.0,0.0,0.0,0.0,0.0,0.0,0.0,0.0,0.0,0.0,0.0,0.0,0.0,0.0,0.0,0.0,0.0,0.0,0.0,0.0,0.0,0.0,0.0,0.0,0.0,0.0,0.0,0.0,0.0,0.0,0.0,0.0,0.0,0.0,0.0,0.0,0.0,0.0,0.0,0.0,0.0,0.0,0.0,0.0,0.0,0.0,0.0,0.0,0.0,0.0,0.0,0.0,0.0,0.0,0.0,0.0,0.0,0.0,0.0,0.0,0.0,-2.49,-2.5937,0.0,-2.764,-2.8352,-2.8352,-2.7604,-2.7034,-2.6817,0.0,0.0,0.0,0.0,0.0,0.0,0.0,0.0,0.0,0.0,0.0,0.0,0.0,0.0,0.0,0.0,0.0,0.0,0.0,0.0,0.0,0.0,0.0,0.0,0.0,0.0,0.0,0.0,0.0,0.0,0.0,0.0,0.0,0.0,0.0,0.0,0.0,0.0,0.0,0.0,0.0,0.0,0.0,0.0,0.0,0.0,0.0,0.0,0.0,0.0,0.0,0.0,0.0,0.0,0.0,0.0,0.0,0.0,0.0,0.0,0.0,0.0,0.0,0.0,0.0,0.0,0.0,0.0,0.0,0.0,0.0,0.0,0.0,0.0,0.0,0.0,0.0,0.0,0.0,0.0,0.0,0.0,0.0,0.0,0.0,0.0,0.0,0.0,0.0,0.0,0.0,0.0,0.0,0.0,0.0,0.0,0.0,0.0,0.0,0.0,0.0,0.0,-2.4083,-2.512,-2.588,0.0,-2.6967,-2.7486,-2.7486,-2.6959,-2.6668,-2.6766,0.0,0.0,0.0,0.0,0.0,0.0,0.0,0.0,0.0,0.0,0.0,0.0,0.0,0.0,0.0,0.0,0.0,0.0,0.0,0.0,0.0,0.0,0.0,0.0,0.0,0.0,0.0,0.0,0.0,0.0,0.0,0.0,0.0,0.0,0.0,0.0,0.0,0.0,0.0,0.0,0.0,0.0,0.0,0.0,0.0,0.0,0.0,0.0,0.0,0.0,0.0,0.0,0.0,0.0,0.0,0.0,0.0,0.0,0.0,0.0,0.0,0.0,0.0,0.0,0.0,0.0,0.0,0.0,0.0,0.0,0.0,0.0,0.0,0.0,0.0,0.0,0.0,0.0,0.0,0.0,0.0,0.0,0.0,0.0,0.0,0.0,0.0,0.0,0.0,0.0,0.0,0.0,0.0,0.0,0.0,0.0,0.0,0.0,0.0,0.0,0.0,0.0,-2.4083,-2.3986,-2.4197,-2.5197,-2.6072,-2.6582,-2.6582,-2.665,-2.6691,0.0,0.0,0.0,0.0,0.0,0.0,0.0,0.0,0.0,0.0,0.0,0.0,0.0,0.0,0.0,0.0,0.0,0.0,0.0,0.0,0.0,0.0,0.0,0.0,0.0,0.0,0.0,0.0,0.0,0.0,0.0,0.0,0.0,0.0,0.0,0.0,0.0,0.0,0.0,0.0,0.0,0.0,0.0,0.0,0.0,0.0,0.0,0.0,0.0,0.0,0.0,0.0,0.0,0.0,0.0,0.0,0.0,0.0,0.0,0.0,0.0,0.0,0.0,0.0,0.0,0.0,0.0,0.0,0.0,0.0,0.0,0.0,0.0,0.0,0.0,0.0,0.0,0.0,0.0,0.0,0.0,0.0,0.0,0.0,0.0,0.0,0.0,0.0,0.0,0.0,0.0,0.0,0.0,0.0,0.0,0.0,0.0,0.0,0.0,0.0,0.0,0.0,0.0,-2.4632,-2.4632,-2.4638,-2.5057,-2.5317,-2.5482,-2.5482,-2.5485,-2.5781,-2.6448,0.0,0.0,0.0,0.0,0.0,0.0,0.0,0.0,0.0,0.0,0.0,0.0,0.0,0.0,0.0,0.0,0.0,0.0,0.0,0.0,0.0,0.0,0.0,0.0,0.0,0.0,0.0,0.0,0.0,0.0,0.0,0.0,0.0,0.0,0.0,0.0,0.0,0.0,0.0,0.0,0.0,0.0,0.0,0.0,0.0,0.0,0.0,0.0,0.0,0.0,0.0,0.0,0.0,0.0,0.0,0.0,0.0,0.0,0.0,0.0,0.0,0.0,0.0,0.0,0.0,0.0,0.0,0.0,0.0,0.0,0.0,0.0,0.0,0.0,0.0,0.0,0.0,0.0,0.0,0.0,0.0,0.0,0.0,0.0,0.0,0.0,0.0,0.0,0.0,0.0,0.0,0.0,0.0,0.0,0.0,0.0,0.0,0.0,0.0,0.0,0.0,0.0,-2.4915,-2.4847,-2.4771,-2.4986,-2.501,-2.501,-2.501,-2.501,-2.5232,-2.5722,0.0,0.0,0.0,0.0,0.0,0.0,0.0,0.0,0.0,0.0,0.0,0.0,0.0,0.0,0.0,0.0,0.0,0.0,0.0,0.0,0.0,0.0,0.0,0.0,0.0,0.0,0.0,0.0,0.0,0.0,0.0,0.0,0.0,0.0,0.0,0.0,0.0,0.0,0.0,0.0,0.0,0.0,0.0,0.0,0.0,0.0,0.0,0.0,0.0,0.0,0.0,0.0,0.0,0.0,0.0,0.0,0.0,0.0,0.0,0.0,0.0,0.0,0.0,0.0,0.0,0.0,0.0,0.0,0.0,0.0,0.0,0.0,0.0,0.0,0.0,0.0,0.0,0.0,0.0,0.0,0.0,0.0,0.0,0.0,0.0,0.0,0.0,0.0,0.0,0.0,0.0,0.0,0.0,0.0,0.0,0.0,0.0,0.0,0.0,0.0,0.0,0.0,-2.4946,-2.4718,-2.4604,-2.4949,-2.4986,-2.4986,-2.4986,-2.4986,-2.4943,-2.4889,0.0,0.0,0.0,0.0,0.0,0.0,0.0,0.0,0.0,0.0,0.0,0.0,0.0,0.0,0.0,0.0,0.0,0.0,0.0,0.0,0.0,0.0,0.0,0.0,0.0,0.0,0.0,0.0,0.0,0.0,0.0,0.0,0.0,0.0,0.0,0.0,0.0,0.0,0.0,0.0,0.0,0.0,0.0,0.0,0.0,0.0,0.0,0.0,0.0,0.0,0.0,0.0,0.0,0.0,0.0,0.0,0.0,0.0,0.0,0.0,-2.0568,0.0,0.0,0.0,0.0,0.0,0.0,0.0,0.0,0.0,0.0,0.0,0.0,0.0,0.0,0.0,0.0,0.0,0.0,0.0,0.0,0.0,0.0,0.0,0.0,0.0,0.0,0.0,0.0,0.0,0.0,0.0,0.0,0.0,0.0,0.0,0.0,0.0,0.0,0.0,0.0,0.0,-2.4755,-2.451,-2.4409,-2.4799,-2.4842,-2.4842,-2.4842,-2.4842,-2.5035,-2.5469,-2.511,0.0,0.0,0.0,0.0,0.0,0.0,0.0,0.0,0.0,0.0,0.0,0.0,0.0,0.0,0.0,0.0,0.0,0.0,0.0,0.0,0.0,0.0,0.0,0.0,0.0,0.0,0.0,0.0,0.0,0.0,0.0,0.0,0.0,0.0,0.0,0.0,0.0,0.0,0.0,0.0,0.0,0.0,0.0,0.0,0.0,0.0,0.0,0.0,0.0,0.0,0.0,0.0,0.0,0.0,0.0,0.0,0.0,0.0,0.0,0.0,-2.1821,0.0,0.0,0.0,0.0,0.0,0.0,0.0,0.0,0.0,0.0,0.0,0.0,0.0,0.0,0.0,0.0,0.0,0.0,0.0,0.0,0.0,0.0,0.0,0.0,0.0,0.0,0.0,0.0,0.0,0.0,0.0,0.0,0.0,0.0,0.0,0.0,0.0,0.0,0.0,0.0,-2.5126,-2.4634,-2.4357,-2.476,-2.4804,-2.4804,-2.4804,-2.4804,-2.4854,-2.4985,-2.5038,0.0,0.0,0.0,0.0,0.0,0.0,0.0,0.0,0.0,0.0,0.0,0.0,0.0,0.0,0.0,0.0,0.0,0.0,0.0,0.0,0.0,0.0,0.0,0.0,0.0,0.0,0.0,0.0,0.0,0.0,0.0,0.0,0.0,0.0,0.0,0.0,0.0,0.0,0.0,0.0,0.0,0.0,0.0,0.0,0.0,0.0,0.0,0.0,0.0,0.0,0.0,0.0,0.0,-2.783,-2.8536,-2.9206,-2.9953,-3.0742,-3.1321,-2.78,-2.6371,-2.6309,-2.4206,0.0,0.0,0.0,0.0,0.0,0.0,0.0,0.0,0.0,0.0,0.0,0.0,0.0,0.0,0.0,0.0,0.0,0.0,0.0,0.0,0.0,0.0,0.0,0.0,-2.5967,-2.557,-2.3473,0.0,0.0,0.0,0.0,0.0,0.0,0.0,0.0,0.0,0.0,0.0,-2.5631,-2.482,-2.4339,-2.4716,-2.4775,-2.4804,-2.4804,-2.4804,-2.4639,-2.4284,-2.5004,-2.5186,0.0,0.0,0.0,0.0,0.0,0.0,0.0,0.0,0.0,0.0,0.0,0.0,0.0,0.0,0.0,0.0,0.0,0.0,0.0,0.0,0.0,0.0,0.0,0.0,0.0,0.0,0.0,0.0,0.0,0.0,0.0,0.0,-1.6287,-1.7345,0.0,0.0,0.0,0.0,0.0,0.0,0.0,0.0,0.0,0.0,0.0,0.0,0.0,-2.6908,-2.8517,-2.9909,-3.0987,-3.174,-3.2525,-3.2967,-3.3096,-3.387,-3.4715,-3.5478,-3.4289,0.0,-3.0651,-2.896,0.0,0.0,0.0,0.0,0.0,0.0,0.0,0.0,0.0,0.0,0.0,0.0,0.0,0.0,0.0,0.0,0.0,0.0,0.0,0.0,0.0,0.0,-2.6357,-2.7459,-2.8233,-2.8614,0.0,-2.6598,-2.4941,-2.4228,-2.4173,0.0,0.0,0.0,0.0,0.0,0.0,0.0,-2.567,-2.482,-2.4284,-2.4512,-2.47,-2.4804,-2.4804,-2.4804,-2.47,-2.4478,-2.4432,-2.4652,-2.524,-2.5578,0.0,0.0,0.0,0.0,0.0,0.0,0.0,0.0,0.0,0.0,0.0,0.0,0.0,0.0,0.0,0.0,0.0,0.0,0.0,0.0,0.0,0.0,0.0,0.0,0.0,0.0,0.0,0.0,0.0,-1.6639,-1.8429,-1.9817,-2.0016,-1.9904,0.0,0.0,0.0,0.0,0.0,0.0,0.0,0.0,0.0,-2.8015,-2.9114,-3.0593,-3.249,-3.3209,-3.4171,-3.5349,-3.6174,-3.6798,-3.7257,-3.8065,-3.8891,-3.9643,-3.9338,-3.8309,-3.6683,-3.3301,-3.1684,-3.1149,0.0,0.0,0.0,0.0,-2.5939,-2.6059,-2.6721,-2.7911,0.0,-2.8985,0.0,0.0,0.0,0.0,0.0,0.0,0.0,0.0,0.0,0.0,-2.9293,-3.0736,-3.1636,-3.2115,-3.1836,-3.1261,-3.0112,0.0,-2.7251,-2.7176,-2.7228,0.0,0.0,0.0,0.0,-2.6451,-2.6834,-2.6086,-2.5629,-2.5837,-2.5925,-2.5993,-2.5993,-2.5581,-2.5235,-2.5023,-2.4505,-2.4557,-2.5384,-2.5884,-2.6903,0.0,0.0,0.0,0.0,0.0,0.0,0.0,0.0,0.0,0.0,0.0,0.0,0.0,0.0,0.0,0.0,0.0,0.0,0.0,0.0,0.0,0.0,0.0,0.0,0.0,0.0,0.0,0.0,-1.8859,-2.0785,-2.1885,-2.2378,-2.2412,0.0,0.0,0.0,0.0,0.0,0.0,-2.6469,-2.8494,-3.0624,-3.2822,-3.3284,-3.4363,-3.6248,-3.6439,-3.7294,-3.8726,-3.9331,-4.0047,-4.0836,-4.1442,-4.2047,-4.2598,-4.2598,-4.2316,-4.1512,-3.7245,-3.5257,-3.4723,-3.3077,-3.2115,-3.156,-3.0997,-3.1187,-3.1797,-3.2622,-3.329,-3.384,-3.3979,-3.2827,-3.102,-2.9199,0.0,0.0,0.0,0.0,-2.9609,-3.1064,-3.1853,-3.2638,-3.4027,-3.4733,-3.4968,-3.4631,-3.4945,-3.4303,0.0,-3.0184,-2.9913,-2.9208,0.0,0.0,0.0,0.0,-2.7539,-2.7754,-2.7108,-2.6657,-2.6801,-2.686,-2.6898,-2.6898,-2.6208,-2.5782,-2.5778,-2.4837,-2.4707,-2.5678,-2.6282,-2.7046,-2.8005,0.0,0.0,0.0,0.0,0.0,0.0,0.0,0.0,0.0,0.0,0.0,0.0,0.0,0.0,0.0,0.0,0.0,0.0,0.0,0.0,0.0,0.0,0.0,0.0,0.0,0.0,0.0,0.0,0.0,-2.207,-2.5225,0.0,0.0,0.0,0.0,-2.7547,-2.8538,-3.0023,-3.2176,-3.3247,-3.4497,-3.6019,-3.7533,-3.8762,-3.9643,-4.0414,-4.1222,-4.2066,-4.2103,-4.2543,-4.3314,-4.3351,-4.3387,-4.3424,-4.3424,-4.3586,-4.3639,-4.0787,-3.8719,-3.7177,-3.5607,-3.4998,-3.4995,-3.5259,-3.5398,-3.5593,-3.6642,-3.7028,-3.731,-3.8836,-3.8738,-3.7351,-3.3874,-3.2931,0.0,0.0,-3.3513,-3.4697,-3.6316,-3.681,-3.6887,-3.6998,-3.6785,-3.6577,-3.6565,-3.637,-3.5257,0.0,-3.1916,-3.2231,-3.1621,0.0,-3.1009,-3.0454,-2.9544,-2.8631,-2.7879,-2.7108,-2.6594,-2.6615,-2.6782,-2.6898,-2.6898,-2.6328,-2.623,-2.6786,-2.5353,-2.5097,-2.6484,-2.6594,-2.6979,-2.7809,-2.9045,0.0,0.0,0.0,0.0,0.0,0.0,0.0,0.0,0.0,0.0,0.0,0.0,0.0,0.0,0.0,0.0,0.0,0.0,0.0,0.0,0.0,0.0,0.0,0.0,0.0,0.0,0.0,0.0,-2.5709,-2.8461,0.0,-2.9832,-3.0313,-3.0775,-3.1094,-3.2822,-3.4426,-3.5717,-3.7088,-3.8559,-4.0102,-4.0726,-4.1405,-4.2194,-4.2488,-4.2782,-4.3057,-4.3301,-4.354,-4.3836,-4.4095,-4.4213,-4.4213,-4.4213,-4.428,-4.4317,-4.3343,-4.2136,-4.0818,-3.9967,-3.953,-3.9361,-3.9714,-4.0155,-4.0645,-4.1024,-4.1161,-4.0991,-4.0012,-3.9164,-3.8161,-3.6338,-3.6228,-3.6818,-3.7219,-3.7602,-3.8294,-3.9891,-3.9951,-3.9577,-3.9569,-3.9477,-3.9124,-3.8028,-3.8139,-3.7766,-3.5567,-3.4185,-3.3136,-3.2403,-3.1783,-3.1317,-3.112,-3.0754,-3.043,-3.0136,-3.0032,-2.9752,-2.923,-2.9381,-2.9307,-2.8744,-2.8022,-2.7697,-2.7915,-2.6916,-2.6752,-2.7791,-2.781,-2.8203,-2.9008,-2.9964,-3.0129,0.0,0.0,0.0,0.0,0.0,0.0,0.0,0.0,0.0,0.0,0.0,0.0,0.0,0.0,0.0,0.0,0.0,0.0,0.0,0.0,0.0,0.0,0.0,0.0,0.0,0.0,-2.7414,-2.9021,-3.18,-3.3559,-3.3559,-3.4057,-3.461,-3.5164,-3.698,-3.8619,-3.9845,-4.0917,-4.2026,-4.3236,-4.3415,-4.3738,-4.4257,-4.4276,-4.4276,-4.4276,-4.4237,-4.4204,-4.4204,-4.4474,-4.458,-4.458,-4.458,-4.4657,-4.4776,-4.4776,-4.4291,-4.3525,-4.3127,-4.2817,-4.2658,-4.2994,-4.3455,-4.391,-4.4045,-4.4091,-4.3767,-4.1869,-4.088,-4.029,-3.9372,-3.9546,-4.0214,-4.0908,-4.1178,-4.1508,-4.2569,-4.2457,-4.1982,-4.1713,-4.1323,-4.0726,-3.9627,-3.9501,-3.9207,-3.7851,-3.6162,-3.4767,-3.4282,-3.3487,-3.2974,-3.3022,-3.3026,-3.2916,-3.2639,-3.2478,-3.2201,-3.1694,-3.1506,-3.107,-3.0204,-3.0003,-2.9631,-2.8955,-2.8512,-2.8465,-2.8898,-2.9219,-2.9798,-3.0606,-3.1455,-3.1575,-3.0905,0.0,0.0,0.0,0.0,0.0,0.0,0.0,0.0,0.0,0.0,0.0,0.0,0.0,0.0,0.0,0.0,0.0,0.0,0.0,0.0,0.0,0.0,0.0,-2.4666,-2.8748,-3.1779,-3.1811,-3.5275,-3.703,-3.5412,-3.6762,-3.8389,-3.995,-4.1123,-4.2637,-4.4687,-4.4718,-4.4852,-4.5258,-4.566,-4.5833,-4.5814,-4.5814,-4.5814,-4.5795,-4.5002,-4.4624,-4.4643,-4.465,-4.4631,-4.4631,-4.4631,-4.4825,-4.5137,-4.5137,-4.5137,-4.5074,-4.4776,-4.4606,-4.4676,-4.4988,-4.5137,-4.5161,-4.5495,-4.5586,-4.5451,-4.4624,-4.4335,-4.4128,-4.3024,-4.2928,-4.3302,-4.3808,-4.4135,-4.4335,-4.4335,-4.4335,-4.4143,-4.3335,-4.2257,-4.1379,-4.136,-4.0469,-3.9456,-3.8663,-3.7775,-3.7213,-3.7279,-3.6597,-3.6081,-3.6203,-3.6211,0.0,-3.5129,-3.4228,-3.3675,-3.3777,-3.2873,-3.1956,-3.12,-3.2109,-3.1864,-2.9878,-3.0059,-3.0086,-2.9729,-3.0663,-3.1525,-3.231,-3.3269,-3.3278,-3.2259,0.0,0.0,0.0,0.0,0.0,0.0,0.0,0.0,0.0,0.0,0.0,0.0,0.0,0.0,0.0,0.0,0.0,0.0,0.0,0.0,0.0,0.0,-2.8598,-2.7985,-3.2303,-3.5802,-3.6638,-3.9478,-4.1304,-4.1162,-4.2103,-4.3041,-4.3751,-4.4656,-4.5536,-4.639,-4.643,-4.6466,-4.6563,-4.6693,-4.6437,-4.5814,-4.5814,-4.5814,-4.5795,-4.5228,-4.527,-4.5826,-4.547,-4.5322,-4.5322,-4.5322,-4.5362,-4.5457,-4.5457,-4.5457,-4.5438,-4.5362,-4.518,-4.4988,-4.5342,-4.5457,-4.5476,-4.5568,-4.5586,-4.5547,-4.5316,-4.524,-4.5182,-4.4861,-4.4839,-4.4951,-4.5091,-4.5185,-4.524,-4.524,-4.524,-4.5028,-4.4162,-4.3707,-4.3326,-4.2731,-4.1872,-4.1129,-4.0899,-3.9691,-3.8379,-3.739,-3.7028,-3.6878,-3.6918,-3.6387,0.0,-3.5685,-3.5092,-3.4955,-3.5669,-3.4485,-3.3846,-3.4292,-3.3434,-3.2352,-3.1224,-3.1244,-3.0948,-3.0234,-3.0465,-3.0631,-3.0662,-3.2193,-3.2455,0.0,0.0,0.0,0.0,0.0,0.0,0.0,0.0,0.0,0.0,0.0,0.0,0.0,0.0,0.0,0.0,0.0,0.0,0.0,0.0,0.0,0.0,-3.0142,-3.308,-3.3607,-3.6311,-3.8702,-4.0042,-4.2026,-4.3534,-4.4184,-4.4668,-4.5222,-4.5985,-4.6454,-4.6985,-4.7569,-4.7555,-4.761,-4.7827,-4.7971,-4.7815,-4.7319,-4.7319,-4.7129,-4.6744,-4.6483,-4.6433,-4.6548,-4.6627,-4.6644,-4.6624,-4.6297,-4.6144,-4.6124,-4.574,-4.5586,0.0,0.0,0.0,0.0,0.0,-4.5586,-4.5586,-4.5586,-4.5586,-4.5586,-4.5586,-4.5586,-4.5586,-4.5586,-4.5586,-4.5586,-4.5586,-4.5586,-4.5586,-4.5586,-4.5586,-4.547,-4.497,-4.4566,-4.4162,-4.3701,-4.2951,-4.2335,-4.2335,-4.1566,0.0,-3.9337,-3.8574,-3.8265,-3.8644,-3.7972,-3.7395,-3.7408,-3.65,-3.6065,-3.6621,-3.5521,-3.4815,-3.4991,-3.4747,0.0,0.0,0.0,-3.257,-3.2046,-3.2025,0.0,0.0,0.0,-3.3932,-3.2768,-3.2689,0.0,0.0,-2.992,-2.9252,0.0,0.0,0.0,0.0,0.0,0.0,0.0,0.0,0.0,0.0,0.0,0.0,0.0,0.0,0.0,0.0,-3.4061,-3.7735,-4.005,-4.0483,-4.1038,-4.2286,-4.3558,-4.4543,-4.509,-4.5401,-4.5993,-4.7076,-4.7284,-4.77,-4.8537,0.0,0.0,0.0,0.0,-4.949,-4.9394,-4.9394,-4.9009,-4.8259,-4.8144,-4.7778,-4.7201,-4.7817,-4.8105,-4.8067,-4.7355,-4.699,-4.6836,-4.6067,-4.5682,-4.5586,-4.5586,-4.5586,-4.5586,-4.5586,-4.5586,-4.5586,-4.5586,0.0,0.0,-4.5586,-4.5586,-4.5586,-4.5586,-4.5586,-4.5586,-4.5586,-4.5586,-4.5586,-4.5586,-4.5586,-4.5586,-4.5586,-4.5009,-4.4451,-4.4451,-4.3816,-4.3239,-4.3239,-4.3162,-4.2816,-4.195,-4.0636,-3.9928,-4.0667,-4.0026,-3.9478,-3.949,-3.8048,-3.7054,-3.7168,0.0,0.0,-3.4693,-3.5929,-3.5688,-3.3192,-3.3742,-3.4135,-3.4147,-3.4236,-3.4981,-3.6476,-3.6578,-3.6091,-3.4993,-3.4759,-3.4507,-3.4144,-3.16,-3.0979,0.0,0.0,0.0,0.0,0.0,0.0,0.0,0.0,0.0,0.0,0.0,0.0,0.0,0.0,0.0,-3.509,-3.8155,-4.0922,-4.2934,-4.4103,-4.436,-4.3387,-4.514,-4.5848,-4.4382,-4.6344,-4.7662,-4.7524,-4.8743,-4.9716,-5.0193,-5.0221,-5.024,-5.0315,-5.0413,-5.0106,-4.9413,-4.9394,-4.9317,-4.9144,0.0,0.0,-4.8894,-4.8355,-4.8105,-4.8086,-4.7952,-4.7509,-4.6894,-4.6721,-4.622,-4.5586,-4.5586,-4.5586,-4.5586,-4.5586,-4.5586,-4.5586,-4.5586,-4.5586,-4.5586,-4.5586,-4.5586,-4.5586,-4.5586,-4.5586,0.0,-4.5586,-4.5586,-4.5586,-4.5586,-4.5586,-4.5586,-4.5586,-4.547,-4.5336,-4.5336,-4.4662,-4.4066,-4.4066,-4.3547,-4.2816,-4.195,-4.1543,-4.1155,-4.0646,-3.987,-3.9331,-3.9345,-3.843,-3.8087,-3.885,-3.7455,-3.6698,-3.7298,-3.6377,-3.5252,-3.4039,-3.346,-3.3157,-3.3176,-3.3858,-3.3981,-3.3454,-3.4084,-3.4194,-3.375,-3.3696,-3.3859,-3.4181,-3.3419,-3.3179,0.0,0.0,0.0,0.0,0.0,0.0,0.0,0.0,0.0,0.0,0.0,-3.0708,0.0,0.0,-3.7143,-3.891,-4.1268,-4.3382,-4.4761,-4.6015,-4.6329,-4.5142,-4.6162,-4.6844,-4.6474,-4.7731,-4.8718,-4.9116,-4.9729,-5.0272,-5.0683,-5.0702,-5.0702,-5.0702,-5.0702,-5.0491,-5.0048,-5.0048,-4.9817,-4.9394,-4.9394,-4.9394,-4.9394,-4.9394,-4.9394,-4.9375,-4.8933,-4.8529,-4.8086,-4.7259,-4.6644,-4.6201,-4.5759,-4.5586,-4.5586,-4.5586,-4.5586,-4.5586,-4.5586,-4.5586,-4.5586,-4.5586,-4.5586,-4.5586,-4.5586,-4.5586,-4.5586,-4.5586,-4.5586,-4.5586,-4.5586,-4.5586,-4.5586,-4.5586,-4.5586,-4.5586,-4.5586,-4.5259,-4.4951,-4.4951,-4.4624,-4.4066,-4.3201,-4.3047,-4.247,-4.0758,-3.9815,-3.9296,-3.9296,-3.8546,-3.8007,-3.8052,-3.7237,-3.6735,-3.6845,-3.6048,-3.5166,-3.432,-3.3814,-3.3545,-3.3545,-3.3968,-3.4139,-3.4055,-3.4457,-3.4584,-3.4454,-3.4315,-3.4396,-3.4636,-3.4375,-3.4087,0.0,0.0,0.0,0.0,0.0,0.0,0.0,0.0,-3.0527,-3.1523,-3.4046,-3.6082,-3.616,-3.9119,-4.1818,-4.2706,-4.4341,-4.5803,-4.6585,-4.7419,-4.7732,-4.7278,-4.7448,-4.7896,-4.8567,-4.8961,-4.9513,-5.0375,-5.0303,-5.0358,-5.0683,-5.0702,-5.076,-5.0933,-5.0779,-5.0856,-5.1183,-5.101,-5.0587,-4.9894,-5.0606,-5.0471,-4.9683,-5.0375,-5.0702,-5.0644,-4.9779,-4.9394,-4.9279,-4.7759,-4.7144,-4.7067,-4.6355,-4.599,-4.5817,-4.5663,-4.5586,-4.5586,-4.5586,-4.5605,-4.568,-4.5834,-4.5796,-4.5699,-4.5834,-4.5776,-4.5624,-4.5605,-4.5605,-4.5624,-4.5605,-4.5605,-4.5624,-4.5605,-4.5586,-4.5586,-4.5586,-4.5586,-4.5586,-4.5586,-4.5586,-4.5316,-4.447,-4.4335,-4.3566,-4.1335,-4.0296,-3.9796,-3.9796,-3.9027,-3.8104,-3.7084,-3.6969,-3.6612,-3.5695,-3.563,-3.5323,-3.4595,-3.4493,-3.4468,-3.4449,-3.4449,-3.4776,-3.5488,-3.5493,-3.5493,-3.5493,-3.5289,-3.5138,-3.5088,-3.4889,-3.4486,-2.6947,-2.6051,-2.5997,-2.7303,-2.8637,-3.0772,0.0,0.0,-3.7659,-3.9375,-4.0923,-4.2079,-4.2416,-4.4594,-4.6705,-4.7876,-4.8332,-4.8784,-4.9516,-4.9119,-4.9002,-4.9613,-4.9733,-4.9229,-4.7884,-4.9407,-5.024,-4.9586,-5.0221,-5.0663,-5.0702,-5.0702,-5.1029,-5.1741,-5.1068,-5.1414,-5.2914,-5.2164,-5.1722,-5.1625,-5.1722,-5.1337,-5.0548,-5.0644,-5.0702,-5.0644,-4.9779,-4.9394,-4.9336,-4.8355,-4.7971,-4.7971,-4.7855,-4.7375,-4.6663,-4.5893,-4.5586,-4.5586,-4.5586,-4.568,-4.5911,-4.6679,-4.6448,-4.6007,-4.6718,-4.639,-4.5757,-4.5624,-4.5699,-4.5757,-4.5624,-4.5699,-4.5757,-4.5624,-4.5586,-4.5586,-4.5586,-4.5586,-4.5586,-4.5586,-4.5586,-4.5372,-4.4603,-4.4468,-4.4102,-4.297,-4.2066,-4.1527,-4.1527,-4.0758,-3.9642,-3.8108,-3.7935,-3.734,-3.5807,-3.5694,-3.5621,-3.5463,-3.5449,-3.543,-3.5372,-3.5353,-3.5411,-3.5493,-3.5493,-3.5493,-3.5493,-3.5479,-3.532,-3.5105,-3.507,-3.4889,-2.9687,-2.8809,0.0,0.0,-3.2866,-3.5445,-3.8233,-4.052,-4.238,-4.3596,-4.5787,-4.7551,-4.7737,-4.8947,-5.0109,0.0,-5.0315,-5.0169,-5.0458,-4.9532,-4.8981,-4.93,-4.9086,-4.9062,-4.937,-4.972,-4.999,-5.0144,-5.0491,-5.0894,-5.1375,-5.1395,-5.1548,-5.1895,-5.2068,-5.226,-5.2452,-5.2587,-5.2414,-5.1914,-5.1914,-5.1491,-5.0721,-5.1183,-5.1683,-5.2106,-5.1241,-5.0587,-5.0087,-4.9221,-4.8856,-4.8817,-4.8393,-4.8316,-4.8374,-4.7489,-4.6546,-4.5796,-4.6352,-4.6238,-4.5907,-4.6286,-4.6177,-4.5963,-4.6293,-4.6143,-4.5853,-4.5796,-4.5815,-4.5847,-4.5796,-4.5819,-4.5834,-4.5796,-4.5776,-4.5776,-4.5776,-4.5776,-4.5776,-4.5776,-4.5776,-4.568,-4.5372,-4.5307,-4.5188,-4.48,-4.3603,-4.2563,-4.204,-4.1655,-4.0612,-3.8457,-3.7366,-3.6543,-3.5878,-3.5732,-3.5687,-3.567,-3.5572,-3.5545,-3.5493,-3.5493,-3.5493,-3.5493,-3.5493,-3.5493,-3.5493,-3.5493,-3.5446,-3.532,-3.532,-3.5273,-3.1459,0.0,0.0,-3.4603,-3.7393,-4.0036,-4.2007,-4.4562,-4.6719,-4.74,-4.9352,-5.0911,-5.0783,-5.141,-5.2037,-5.2284,-5.1556,-5.1073,-5.1402,-4.9936,-4.8838,-4.8968,-4.8259,-4.8355,-4.9837,-4.9625,-4.9663,-5.0279,-5.0548,-5.1048,-5.1875,-5.1914,-5.2125,-5.2606,-5.301,-5.3126,-5.2953,-5.3356,-5.3241,-5.2626,-5.2626,-5.2183,-5.1414,-5.1991,-5.2606,-5.3145,-5.2279,-5.1587,-5.101,-5.0164,-4.9837,-4.9817,-4.9278,-4.9311,-4.9608,-4.9237,-4.7865,-4.6244,-4.6684,-4.6606,-4.6345,-4.6584,-4.6697,-4.6768,-4.6963,-4.6698,-4.6313,-4.6274,-4.6108,-4.5954,-4.591,-4.5928,-4.5945,-4.5911,-4.5896,-4.5896,-4.5896,-4.5896,-4.5896,-4.5896,-4.5896,-4.5908,-4.5948,-4.5969,-4.5977,-4.6007,-4.4975,-4.3772,-4.2607,-4.1866,-4.0723,-3.8868,-3.724,-3.6299,-3.6299,-3.5969,-3.5735,-3.5696,-3.5577,-3.5526,-3.5493,-3.5493,-3.5493,-3.5493,-3.5493,-3.5493,-3.5493,-3.5493,-3.5493,-3.5493,-3.5493,-3.5526,0.0,0.0,-3.5259,-3.9345,-4.2264,-4.4989,-4.8337,-5.0128,-5.1219,-5.1621,-5.1488,-5.1162,-5.0777,-5.1355,-5.2162,-5.3028,-5.2097,-5.1716,-5.2948,-5.0642,-4.8926,-4.9336,-4.7932,-4.7259,0.0,-4.8913,-4.9413,-4.9433,-5.0221,-5.1048,-5.1875,-5.1914,-5.2683,-5.4376,-5.3626,-5.3972,-5.5568,-5.4838,-5.4453,-5.4414,-5.4414,-5.3972,-5.3126,-5.3145,-5.3164,-5.3145,-5.2279,-5.1972,-5.1991,-5.1183,-5.0933,-5.1049,-5.1029,-5.0519,-4.9904,-5.0789,-4.9432,-4.7047,-4.6221,-4.6552,-4.7503,-4.8347,-4.8691,-4.8945,-4.9668,-4.8691,-4.7336,-4.7202,-4.6642,-4.605,-4.5929,-4.6006,-4.6065,-4.592,-4.5909,-4.5909,-4.5909,-4.5909,-4.5909,-4.5909,-4.5909,-4.5947,-4.6073,-4.6102,-4.6132,-4.628,-4.6249,-4.552,-4.3616,-4.1261,-3.9742,-3.9662,-3.8228,-3.7265,-3.7265,-3.6412,-3.5828,-3.5713,-3.5641,-3.5584,-3.5493,-3.5493,-3.5493,-3.5493,-3.5493,-3.5493,-3.5493,-3.5493,-3.5493,-3.5493,-3.5493,-3.5545,0.0,0.0,-4.0072,-4.294,-4.6108,-4.899,-5.0683,-5.2295,-5.3308,-5.2855,-5.1809,-5.0749,-5.0045,-4.9305,-4.9208,-5.0524,-5.0393,-5.0625,-5.2125,-5.0526,-4.9027,-4.8587,-4.7567,0.0,0.0,0.0,0.0,-4.9317,-4.9663,-5.0433,-5.1837,-5.1914,-5.2433,-5.3606,-5.3914,-5.4337,-5.4895,-5.5164,-5.503,-5.4491,-5.3914,-5.3799,-5.4068,-5.4166,-5.4493,-5.4914,-5.3605,-5.3047,-5.2993,-5.159,-5.1063,-5.1095,-5.1159,-5.0988,-5.0706,-5.0567,-4.9982,-4.9149,-4.8859,-4.8595,-4.8443,-4.8736,-4.8864,-4.8945,-4.9199,-4.8457,-4.7519,-4.7486,-4.6869,-4.622,-4.6183,-4.6205,-4.621,-4.6178,-4.6173,-4.6173,-4.6173,-4.6173,-4.6173,-4.6173,-4.6173,-4.6183,-4.622,-4.6228,-4.6245,-4.6284,-4.5802,-4.4998,-4.3769,-4.1909,-4.0476,-3.9892,-3.8836,-3.8164,-3.8164,-3.7214,-3.6598,-3.6568,-3.5911,-3.5526,-3.5493,-3.5493,-3.5493,-3.5493,-3.6026,-3.6045,-3.5493,-3.6045,-3.6045,-3.5584,-3.5584,-3.5603,-3.7813,-4.1001,-4.3891,-4.6513,-4.9393,-5.1818,-5.2645,-5.3703,-5.401,-5.2239,-5.0832,-4.9452,-4.8017,-4.6681,-4.641,-4.8299,-4.8095,-4.8491,-5.0702,-4.9567,-4.8529,-4.8567,-4.7836,-4.7105,0.0,0.0,0.0,-4.8452,-4.9356,-5.0452,-5.1837,-5.2202,-5.2914,-5.4068,-5.4645,-5.4934,-5.4934,-5.5434,-5.5434,-5.4914,-5.4068,-5.4126,-5.4991,-5.4801,-5.5171,-5.5919,-5.4317,-5.3629,-5.355,-5.1846,-5.1161,-5.1213,-5.1247,-5.1285,-5.1222,-5.0801,-5.0627,-5.051,-4.9595,-4.9316,-4.9316,-4.9004,-4.9316,-4.9785,-4.9785,-4.8984,-4.8066,-4.8066,-4.7207,-4.6308,-4.6308,-4.6308,-4.6308,-4.6308,-4.6308,-4.6308,-4.6308,-4.6308,-4.6308,-4.6308,-4.6308,-4.6308,-4.6308,-4.6308,-4.6308,-4.6308,-4.5773,-4.4987,-4.3847,-4.2246,-4.0996,-4.043,-3.954,-3.8998,-3.8998,-3.7755,-3.6955,-3.6958,-3.6045,-3.5493,-3.5493,-3.5493,-3.5493,-3.5493,-3.6007,-3.6026,-3.5545,-3.6065,-3.6084,-3.5641,-3.5635,-3.5681,-4.2148,-4.471,-4.6801,-5.0086,-5.2087,-5.3472,-5.426,-5.4376,-5.3374,-5.0043,-4.8603,-4.7195,0.0,0.0,-4.386,-4.6351,-4.5524,-4.5677,-4.8932,-4.8105,-4.774,0.0,0.0,0.0,0.0,0.0,0.0,-4.7163,0.0,-5.1048,-5.1875,-5.2741,-5.3953,-5.5588,-5.5645,-5.5665,-5.5703,-5.5703,-5.5703,-5.5684,-5.4934,-5.503,-5.5857,-5.5128,-5.5279,-5.6053,-5.4363,-5.3654,-5.3609,-5.1915,-5.1295,-5.1406,-5.1406,-5.1406,-5.1385,-5.1401,-5.1406,-5.1055,-4.8594,-4.8848,-5.0137,-4.9297,-5.0098,-5.1406,-5.1406,-5.0254,-4.8965,-4.8965,-4.7734,-4.6426,-4.6387,-4.6367,-4.6367,-4.6308,-4.6308,-4.6308,-4.6308,-4.6308,-4.6308,-4.6308,-4.6308,-4.6308,-4.6287,-4.6287,-4.6287,-4.6289,-4.6144,-4.5486,-4.3952,-4.2323,-4.1308,-4.125,-4.0344,-3.9758,-3.9762,-3.8031,-3.6974,-3.6974,-3.6031,-3.5493,-3.5493,-3.5493,-3.5493,-3.5526,-3.5551,-3.5603,-3.568,-3.5713,-3.5751,-3.579,-3.5785,-3.5824,-4.6005,-4.8548,-5.0836,-5.2991,-5.3857,-5.4068,-5.3626,-5.2602,-5.0966,-4.8201,-4.5051,-4.2393,0.0,0.0,0.0,-4.2955,-4.4497,0.0,-4.9009,-5.0106,0.0,-5.0394,0.0,-5.0702,-5.0106,-5.0587,0.0,0.0,-5.0317,-5.1048,-5.1875,-5.2741,-5.3683,-5.4761,-5.4799,-5.5088,-5.5684,-5.5703,-5.5703,-5.5703,-5.5588,-5.5665,-5.5895,-5.5955,-5.5748,-5.5323,-5.4332,-5.3545,-5.2888,-5.1801,-5.1369,-5.1406,-5.1406,-5.1398,-5.1401,-5.1403,-5.1406,-5.1211,-4.9961,-5.0215,-5.1055,-5.082,-5.1055,-5.1406,-5.1406,-5.0683,-4.9863,-4.9863,-4.9082,-4.8086,-4.7441,-4.7266,-4.7109,-4.6445,-4.6308,-4.6308,-4.6308,-4.6308,-4.6308,-4.6308,-4.6308,-4.627,-4.6166,-4.6158,-4.6127,-4.6013,-4.5453,-4.4932,-4.4576,-4.3547,-4.259,-4.1947,-4.1057,-4.0521,-4.0519,-3.8888,-3.7868,-3.7868,-3.6372,-3.5493,-3.5493,-3.5493,-3.5526,-3.5584,-3.6205,-3.6584,-3.6631,-3.7295,-3.7343,-3.6804,-3.6819,-3.6511,-4.9007,-5.1375,-5.328,-5.426,-5.4491,-5.4107,-5.2506,-5.0889,-4.8683,-4.5067,-4.2218,0.0,0.0,0.0,0.0,0.0,0.0,0.0,-4.7854,-4.9433,-5.0491,0.0,-5.1625,0.0,-5.1798,-5.2222,-5.2279,0.0,-5.1798,-5.1991,-5.2452,-5.3299,-5.4164,-5.4991,-5.503,-5.5241,-5.5703,-5.5703,-5.5722,-5.578,-5.5513,-5.5647,-5.6109,-5.5514,-5.5223,-5.5116,0.0,-5.3144,-5.2637,-5.1758,-5.1406,-5.1406,-5.1406,-5.1406,-5.1406,-5.1406,-5.1406,-5.1348,-5.0879,-5.1016,-5.1348,-5.0996,-5.1113,-5.1406,-5.1406,-5.084,-5.0195,-5.0195,-4.957,-4.8789,-4.8301,-4.8164,-4.7949,-4.707,-4.6875,-4.6777,-4.6387,-4.6308,-4.6308,-4.6308,-4.6249,-4.6192,-4.6111,-4.6046,-4.5995,-4.5906,-4.5493,-4.5214,-4.5235,-4.4158,-4.3083,-4.2183,-4.1648,-4.1158,-4.0789,-3.9484,-3.8522,-3.8137,-3.6796,-3.5892,-3.5565,-3.5911,-3.5982,-3.5661,-3.6509,-3.6798,-3.6516,-3.7386,-3.7424,-3.6686,-3.7075,-3.6806,-5.1434,-5.3433,-5.4664,-5.4664,-5.4491,-5.3663,-5.106,-4.8912,-4.6121,-4.1374,0.0,-3.8194,-3.5963,0.0,-3.6666,-3.9013,0.0,-4.2416,-4.6354,-4.7798,-4.926,-5.1491,-5.1952,-5.2414,-5.3299,-5.3376,-5.3414,-5.353,-5.353,-5.3491,-5.3376,-5.4184,-5.4972,-5.5684,-5.5703,-5.5703,-5.5722,-5.5722,-5.5799,-5.5936,-5.5243,-5.5436,-5.634,-5.4861,-5.4527,-5.5039,-5.3535,-5.2734,-5.2461,-5.1719,-5.1406,-5.1406,-5.1406,-5.1406,-5.1406,-5.1406,-5.1406,-5.1426,-5.1523,-5.1504,-5.1289,-5.0586,-5.082,-5.1406,-5.1406,-5.0918,-5.0351,-5.0351,-4.9805,-4.9219,-4.9101,-4.8984,-4.8672,-4.7812,-4.7519,-4.7226,-4.6456,-4.6295,-4.628,-4.6246,-4.6153,-4.6075,-4.6063,-4.5969,-4.5873,-4.5853,-4.5815,-4.5776,-4.5776,-4.4453,-4.3186,-4.2325,-4.2082,-4.1623,-4.0754,-3.9831,-3.8931,-3.8065,-3.7199,-3.6392,-3.5641,-3.6344,-3.6479,-3.5911,-3.6639,-3.6832,-3.6431,-3.7061,-3.7094,-3.6523,-3.7162,-3.7038,-5.3683,-5.4761,-5.5491,-5.5491,-5.4453,-5.2605,-4.945,-4.5857,0.0,0.0,0.0,-3.4345,-3.3828,-3.4936,0.0,-3.9031,0.0,0.0,0.0,0.0,-5.0414,0.0,0.0,0.0,0.0,0.0,0.0,0.0,0.0,-5.4972,-5.4318,-5.5049,-5.5549,-5.5703,-5.5703,-5.5742,-5.5857,-5.5857,-5.5974,-5.6148,-5.6128,-5.6205,-5.6402,-5.6202,-5.5421,-5.4219,-5.3906,0.0,-5.1601,-5.1465,-5.1406,-5.1406,-5.1406,-5.1406,-5.1406,-5.1406,-5.1406,-5.1504,-5.2226,-5.1992,-5.1387,-5.123,-5.1289,-5.1406,-5.1406,-5.1308,-5.1191,-5.1191,-5.1074,-5.0801,-5.0156,-4.9433,-4.8672,-4.7812,-4.7051,-4.6488,-4.6332,-4.6211,-4.61,-4.5982,-4.5957,-4.591,-4.5863,-4.5834,-4.5776,-4.568,-4.5624,-4.5624,-4.5624,-4.4759,-4.3835,-4.3008,-4.2277,-4.1489,-4.0604,-3.9777,-3.8931,-3.8065,-3.7281,-3.6474,-3.5641,-3.5795,-3.6222,-3.6934,-3.7083,-3.7831,-3.9203,-3.8637,-3.8666,-3.9219,-3.8538,-3.8125,-5.3127,-5.4458,-5.5703,-5.5703,-5.378,-5.1048,-4.7779,0.0,0.0,0.0,0.0,-3.3788,-3.2805,0.0,0.0,0.0,0.0,0.0,0.0,0.0,0.0,0.0,0.0,0.0,0.0,0.0,0.0,0.0,0.0,-5.553,-5.5145,-5.5491,-5.5703,-5.5703,-5.5703,-5.5568,-5.528,-5.528,-5.5162,-5.4951,-5.5009,-5.5088,-5.5142,-5.5215,-5.4531,-5.332,-5.332,-5.2598,-5.1406,-5.1406,-5.1406,-5.1406,-5.1406,-5.1406,-5.1406,-5.1406,-5.1406,-5.1465,-5.1875,-5.1758,-5.1406,-5.1406,-5.1406,-5.1406,-5.1406,-5.1406,-5.1406,-5.1406,-5.1357,-5.122,-5.0821,-5.0385,-4.9825,-4.8947,-4.7723,-4.6774,-4.6768,-4.6364,-4.5979,-4.591,-4.5874,-4.5838,-4.5811,-4.5738,-4.568,-4.5605,-4.5586,-4.5586,-4.5586,-4.524,-4.4643,-4.3816,-4.2989,-4.2124,-4.1258,-4.0412,-3.958,-3.8792,-3.7969,-3.7199,-3.6463,-3.6861,-3.7142,-3.7261,-3.8144,-3.8814,-3.9219,-3.9258,-3.9258,-3.9219,-3.911,-3.8827,-5.2172,-5.386,-5.5434,-5.5434,-5.2914,-4.9529,-4.611,-4.2411,0.0,0.0,-3.3738,-3.3176,-3.1732,0.0,0.0,0.0,0.0,0.0,0.0,0.0,0.0,0.0,0.0,0.0,0.0,0.0,0.0,0.0,0.0,0.0,-5.5703,-5.5703,-5.5703,-5.5703,-5.5703,-5.5376,-5.4701,-5.4707,-5.44,-5.381,-5.381,-5.3874,-5.4004,-5.4004,-5.3516,-5.2695,-5.2695,-5.2207,-5.1406,-5.1406,-5.1406,-5.1406,-5.1406,-5.1406,-5.1406,-5.1406,-5.1406,-5.1426,-5.1601,-5.1562,-5.1426,-5.1621,-5.1543,-5.1406,-5.1406,-5.1379,-5.1351,-5.1351,-5.1277,-5.1178,-5.1183,-5.1003,-5.0608,-4.9722,-4.8491,-4.7473,-4.7434,-4.6748,-4.6142,-4.6123,-4.593,-4.5757,-4.5757,-4.568,-4.5586,-4.5586,-4.5586,-4.5586,-4.5586,-4.5586,-4.5336,-4.4643,-4.3682,-4.2758,-4.1873,-4.1027,-4.0215,-3.9461,-3.8623,-3.795,-3.7473,-3.7916,-3.807,-3.7851,-3.9199,-3.9648,-3.916,-3.9668,-3.9625,-3.9126,-3.9518,-3.9419,-5.2473,-5.3839,-5.4607,-5.4607,-5.2029,-4.8471,-4.446,0.0,0.0,-3.1933,-3.0628,-2.9996,-2.978,-3.109,0.0,0.0,0.0,0.0,0.0,0.0,0.0,0.0,0.0,0.0,0.0,0.0,0.0,0.0,0.0,0.0,-5.5703,-5.5703,-5.5703,-5.5703,-5.5703,-5.5376,-5.4705,-5.4713,-5.4412,-5.38,-5.38,-5.3864,-5.4004,-5.4004,-5.3516,-5.2695,-5.2695,-5.2207,0.0,-5.1406,-5.1406,-5.1406,-5.1406,-5.1406,-5.1406,-5.1406,-5.1406,-5.1504,-5.2305,-5.2051,-5.1523,-5.2324,-5.2051,-5.1406,-5.1406,-5.1304,-5.1217,-5.1217,-5.117,-5.1113,-5.1103,-5.0529,-4.9701,-4.8836,-4.8509,-4.8355,-4.8237,-4.7508,-4.6874,-4.6817,-4.6163,-4.5605,-4.5605,-4.5605,-4.5586,-4.5586,-4.5586,-4.5586,-4.5586,-4.5586,-4.5566,-4.549,-4.4047,-4.2758,-4.1873,-4.1104,-4.0312,-3.9461,-3.8747,-3.8358,-3.829,-3.772,-3.8103,-3.9629,-3.9824,-4.0254,-4.0957,-4.0254,-4.0194,-4.0761,-4.0038,-4.0027,-4.8367,-5.1208,-5.3587,-5.3068,-4.9606,-4.5666,-4.3139,0.0,0.0,-3.1366,-3.0208,-2.9425,-2.8886,-2.9764,-3.1246,0.0,0.0,0.0,0.0,0.0,0.0,0.0,0.0,0.0,0.0,0.0,0.0,0.0,0.0,0.0,-5.5703,-5.5703,-5.5703,-5.5703,-5.5703,-5.5376,-5.4722,-5.4188,-5.3565,-5.2896,-5.2419,-5.2194,-5.2272,-5.276,-5.2525,-5.1765,-5.2252,-5.1979,0.0,-5.1219,-5.1242,-5.1289,-5.1289,-5.1328,-5.1406,-5.1406,-5.1406,-5.1445,-5.1797,-5.1645,-5.1338,-5.168,-5.1531,-5.1239,-5.1277,-5.1561,-5.1857,-5.1857,-5.1778,-5.1689,-5.1703,-5.1029,-5.026,-4.9913,-4.9413,-4.9029,-4.8971,-4.7913,-4.6932,-4.6913,-4.6201,-4.5586,-4.5586,-4.5586,-4.5586,-4.5586,-4.5586,-4.5586,-4.5586,-4.568,-4.5719,-4.5719,-4.466,-4.3585,-4.2703,-4.1966,-4.1212,-4.0423,-3.9608,-3.9219,-3.9304,-3.9014,-3.9199,-3.9883,-4.043,-4.0567,-4.0291,-3.996,-3.9663,-3.9446,-3.958,-3.9807,-4.455,-4.8145,-5.1337,-5.1203,-4.7335,-4.3137,0.0,0.0,0.0,-3.0073,-2.9253,-2.8639,-2.8036,-2.8838,-3.0068,0.0,0.0,-3.284,0.0,0.0,0.0,0.0,0.0,0.0,0.0,0.0,0.0,0.0,0.0,0.0,-5.5703,-5.5703,-5.5588,-5.5338,-5.5568,-5.5241,-5.4259,-5.3916,-5.3358,-5.2627,-5.1799,-5.1418,-5.1476,-5.1806,-5.1651,-5.1134,-5.1709,-5.1632,0.0,-5.1095,-5.1123,-5.1166,-5.1164,-5.1232,-5.131,-5.131,-5.131,-5.131,-5.131,-5.1248,-5.1172,-5.1183,-5.1109,-5.1056,-5.1085,-5.165,-5.2235,-5.2242,-5.2124,-5.1991,-5.1741,-5.1202,-5.0702,-5.0702,-5.0221,-4.9702,-4.9452,-4.8279,-4.7182,-4.6951,-4.6201,-4.5586,-4.5586,-4.5586,-4.5586,-4.5586,-4.5586,-4.5605,-4.5643,-4.5738,-4.5808,-4.5823,-4.5073,-4.4232,-4.3337,-4.2352,-4.154,-4.1024,-4.0217,-3.9926,-4.0273,-4.0039,-3.9994,-4.0218,-4.0823,-4.0772,-4.001,-3.9818,-3.9485,-3.9119,-3.923,-3.9445,-4.2031,-4.5059,-4.7448,-4.9026,-4.5635,-4.1285,0.0,0.0,0.0,-2.7379,-2.7027,-2.7017,-2.7017,-2.8422,-2.9884,-3.0762,-3.2301,0.0,0.0,0.0,0.0,0.0,0.0,0.0,0.0,0.0,0.0,0.0,0.0,0.0,-5.5703,-5.5703,-5.5338,-5.453,-5.528,-5.4895,-5.3241,-5.4068,-5.4127,-5.3378,-5.2492,-5.2165,-5.2262,-5.1472,-5.1106,-5.1087,-5.1106,-5.1106,0.0,-5.1087,-5.1106,-5.1086,-5.1101,-5.1094,-5.1094,-5.1094,-5.1094,-5.1094,-5.1094,-5.1094,-5.11,-5.1099,-5.101,-5.0895,-5.0914,-5.1452,-5.2087,-5.2106,-5.201,-5.1722,-5.0914,-5.0702,-5.0702,-5.0702,-5.0683,-5.0452,-4.9586,-4.8702,-4.7855,-4.7048,-4.6201,-4.5586,-4.5586,-4.5586,-4.5586,-4.5586,-4.5586,-4.5643,-4.5776,-4.5796,-4.5843,-4.5891,-4.5225,-4.4423,-4.3481,-4.1932,-4.1004,-4.0985,-4.0304,-4.0293,-4.1152,-4.0351,-4.0233,-4.0958,-4.1001,-4.092,-4.0793,-4.006,-4.0063,-4.0735,-3.9292,-3.898,-3.6226,-3.8624,-4.0227,-4.0728,-3.835,-3.5563,-3.4262,0.0,0.0,-2.7109,-2.6522,-2.611,-2.6101,-2.7054,-2.8309,-2.9764,-3.0957,0.0,0.0,0.0,0.0,0.0,0.0,0.0,0.0,0.0,0.0,0.0,0.0,0.0,-5.5645,-5.4607,-5.4395,-5.528,-5.5568,-5.5184,-5.4107,-5.378,-5.3203,-5.2356,-5.1549,-5.1164,-5.1203,-5.0952,-5.0837,0.0,-5.0837,-5.0837,-5.0837,-5.0837,-5.0895,-5.0972,-5.0962,-5.1013,-5.109,-5.109,-5.109,-5.109,-5.109,-5.1032,-5.0957,-5.0952,-5.0875,-5.076,-5.076,-5.1741,-5.2856,-5.2856,-5.2395,-5.1722,-5.0914,-5.0702,-5.0548,-4.9952,-4.9798,-4.9567,-4.8702,-4.7855,-4.7201,-4.6951,-4.6201,-4.5586,-4.5586,-4.5586,-4.5624,-4.5719,-4.5738,-4.5776,-4.5853,-4.595,-4.6001,-4.6027,-4.5382,-4.4773,-4.438,-4.2886,-4.1949,-4.1949,-4.1222,-4.0873,-4.1062,-4.0809,-4.0712,-4.0858,-4.0866,-4.0256,-3.9025,-3.9339,-3.9328,-3.9019,-3.8633,-3.8819,0.0,-3.3298,-3.4717,-3.5306,-3.3568,0.0,0.0,0.0,0.0,0.0,-2.5097,-2.4824,-2.5153,-2.5912,-2.6968,-2.8398,-2.9882,0.0,0.0,0.0,0.0,0.0,0.0,0.0,0.0,0.0,0.0,0.0,0.0,0.0,-5.4703,-5.378,-5.3683,-5.4722,-5.4761,-5.4357,-5.353,-5.3318,-5.2933,-5.2395,-5.1548,-5.1144,-5.1144,-5.0837,-5.0702,-5.0702,-5.0702,-5.0702,0.0,-5.0702,-5.0741,-5.0837,-5.0837,-5.0895,-5.0952,-5.0952,-5.0952,-5.0952,-5.0952,-5.0895,-5.0837,-5.0837,-5.076,-5.076,-5.1048,-5.1875,-5.2722,-5.2722,-5.2318,-5.1645,-5.0491,-5.0202,-4.999,-4.9125,-4.8913,-4.8682,-4.7836,-4.7259,-4.6797,-4.6471,-4.597,-4.5605,-4.568,-4.568,-4.5719,-4.5815,-4.5831,-4.5877,-4.5948,-4.6046,-4.6123,-4.6161,-4.5432,-4.4893,-4.4831,-4.3316,-4.2339,-4.2282,-4.1501,-4.1006,-4.0938,-4.0906,-4.0872,-4.0759,-4.0756,-4.0196,-3.9061,-3.9292,-3.8827,-3.7758,-3.7808,-3.8224,0.0,0.0,0.0,0.0,0.0,0.0,0.0,0.0,0.0,0.0,0.0,0.0,0.0,-2.5058,-2.5918,-2.6855,0.0,0.0,0.0,0.0,0.0,0.0,0.0,0.0,0.0,0.0,0.0,0.0,0.0,0.0,-5.3203,-5.3087,-5.3049,-5.3106,-5.3049,-5.2664,-5.1914,-5.2702,-5.3087,-5.301,-5.2202,-5.1818,-5.1798,-5.1029,-5.0702,0.0,-5.0702,-5.0702,-5.0702,-5.0702,-5.0702,-5.0702,-5.0702,-5.0702,-5.0683,-5.0625,-5.0644,-5.0683,-5.0625,-5.0644,-5.0702,-5.0702,-5.0702,-5.0837,-5.1587,-5.1818,-5.1837,-5.1895,-5.1875,-5.1452,-4.9817,-4.9394,-4.9163,-4.824,-4.8009,-4.7798,-4.699,-4.6817,-4.6567,-4.5759,-4.5605,-4.5643,-4.5776,-4.5813,-4.583,-4.5892,-4.5919,-4.5964,-4.6078,-4.6103,-4.614,-4.6251,-4.5445,-4.4884,-4.4874,-4.3281,-4.2221,-4.2119,-4.1282,-4.0796,-4.0796,-4.0784,-4.0735,-4.06,-4.0543,-4.0523,-4.0489,-3.9696,-3.8581,-3.7168,-3.7054,-3.7425,-2.023,0.0,-2.4212,-2.5204,-2.5005,0.0,0.0,0.0,0.0,0.0,0.0,0.0,0.0,0.0,0.0,0.0,0.0,0.0,0.0,0.0,0.0,0.0,0.0,0.0,0.0,0.0,0.0,0.0,0.0,-5.1856,-5.3126,-5.1972,-5.1568,-5.2202,-5.1606,-5.1471,-5.1914,-5.2106,-5.1895,-5.1279,-5.1068,-5.0971,-5.0971,-5.0779,-5.0702,-5.0702,-5.0702,-5.0702,-5.0702,-5.0702,-5.0702,-5.0702,-5.0702,-5.0702,-5.0606,-4.9952,-5.0125,-5.0587,-4.9933,-5.0144,-5.0702,-5.0702,-5.0702,-5.0741,-5.0914,-5.0971,-5.1106,-5.1741,-5.1471,-5.0741,-4.9683,-4.9394,-4.9029,-4.7548,-4.7182,-4.6951,-4.6086,-4.5913,-4.5874,-4.5776,-4.5757,-4.5776,-4.5853,-4.5872,-4.5925,-4.6039,-4.6053,-4.6066,-4.6102,-4.6103,-4.6082,-4.6003,-4.5792,-4.535,-4.4649,-4.3082,-4.2133,-4.211,-4.1285,-4.0789,-4.0731,-4.0723,-4.0389,-3.9642,-3.8969,-3.9238,-4.0489,-3.9138,-3.8584,-3.8749,-3.8161,-3.8291,-1.812,-1.9316,-2.08,-2.121,-2.1906,-2.2393,0.0,0.0,0.0,0.0,0.0,0.0,0.0,0.0,0.0,0.0,0.0,0.0,0.0,0.0,0.0,0.0,0.0,0.0,0.0,0.0,0.0,0.0,0.0,-5.1087,-5.1991,-5.0798,-5.0298,-5.0741,-4.9933,-4.9913,-5.0741,-5.076,-5.0337,-4.951,-4.951,-4.9721,-5.0087,-4.9683,-4.9933,-5.0664,-5.0279,-5.0087,-5.0087,-5.0087,-4.9875,-4.951,-4.951,-4.974,-5.0048,-4.9567,-4.9952,-5.0625,-5.0164,-5.0298,-5.0702,-5.0702,-5.0702,-5.0702,-5.0702,-5.0414,-5.0279,-5.1106,-5.0741,-4.9894,-4.9029,-4.8529,-4.7913,-4.6605,-4.6297,-4.6182,-4.5778,-4.5699,-4.5719,-4.5834,-4.5847,-4.5882,-4.5965,-4.5989,-4.6046,-4.6173,-4.6143,-4.6103,-4.6103,-4.6046,-4.5976,-4.5925,-4.5512,-4.4885,-4.3981,-4.2701,-4.197,-4.1963,-4.1139,-4.0658,-4.062,-4.062,-4.0369,-3.9854,-3.9392,-3.9585,-4.0489,-3.9292,-3.8907,-3.9277,-3.8484,-3.8541,-1.7613,-1.8328,-1.9082,-1.9163,-2.0379,-2.1379,0.0,0.0,0.0,0.0,0.0,0.0,0.0,0.0,0.0,0.0,0.0,0.0,0.0,0.0,0.0,0.0,0.0,0.0,0.0,0.0,0.0,0.0,0.0,-5.0298,-5.0298,-4.9606,-4.9202,-4.9202,-4.849,-4.8394,-4.9009,-4.9144,-4.8836,-4.8105,-4.8105,-4.849,-4.9183,-4.8432,-4.8913,-5.026,0.0,0.0,-4.9202,-4.9202,-4.8779,-4.8105,-4.8105,-4.8548,-4.9183,-4.9067,-4.9548,-5.0317,-5.0452,-5.0414,-5.0317,-5.0452,-5.0491,-5.0471,-5.0337,-4.9875,-4.9529,-5.0125,-4.976,-4.899,-4.8144,-4.7413,-4.6701,-4.5817,-4.5624,-4.5643,-4.5796,-4.5828,-4.5841,-4.5928,-4.5938,-4.5975,-4.6109,-4.6111,-4.6129,-4.6249,-4.6162,-4.6073,-4.6082,-4.5969,-4.5911,-4.5892,-4.5161,-4.4292,-4.3272,-4.2467,-4.1893,-4.1623,-4.0912,-4.0489,-4.0489,-4.0373,-4.0354,-4.0489,-4.0373,-4.0373,-4.0489,-3.9681,-3.9354,-3.945,-3.8604,-3.8661,-1.5977,-1.6895,-1.8207,-1.893,-1.9826,-2.0501,0.0,0.0,0.0,0.0,0.0,0.0,0.0,0.0,0.0,0.0,0.0,0.0,0.0,0.0,0.0,0.0,0.0,0.0,0.0,0.0,0.0,0.0,0.0,-4.8509,-4.8509,-4.8375,-4.8298,-4.8298,-4.8182,-4.7836,-4.7298,-4.7971,-4.824,-4.8105,-4.8105,-4.8182,-4.8298,-4.8163,-4.8259,-4.849,0.0,-4.8298,-4.8298,-4.8298,-4.8221,-4.8105,-4.8105,-4.8182,-4.8221,-4.7528,-4.7798,-4.8606,-4.9336,-4.9125,-4.8625,-4.9356,-4.9606,-4.9452,-4.8721,-4.8913,-4.926,-4.8663,-4.8394,-4.8105,-4.7298,-4.699,-4.6721,-4.595,-4.5776,-4.5796,-4.5873,-4.5886,-4.5922,-4.6037,-4.6059,-4.6106,-4.6249,-4.618,-4.6116,-4.6128,-4.6014,-4.5929,-4.5943,-4.5911,-4.5873,-4.5815,-4.5699,-4.493,-4.3258,-4.297,-4.2277,-4.0777,-4.0566,-4.0489,-4.0489,-3.9835,-3.9796,-4.0489,-3.9815,-3.9815,-4.0489,-3.9681,-3.9642,-4.0296,-3.9469,-3.9527,-1.5451,-1.6522,-1.7934,-1.8689,-1.9576,-2.0268,0.0,0.0,0.0,0.0,0.0,0.0,0.0,0.0,0.0,0.0,0.0,0.0,0.0,0.0,0.0,0.0,0.0,0.0,0.0,0.0,0.0,0.0,0.0,0.0,-4.8105,-4.7702,-4.7451,-4.7451,-4.699,-4.6567,-4.6201,-4.6567,-4.674,-4.674,-4.674,-4.7009,-4.7451,-4.6951,-4.724,-4.8086,0.0,-4.7451,-4.7451,-4.7451,-4.7163,-4.674,-4.674,-4.7048,-4.7471,-4.7528,-4.7778,-4.8163,-4.8567,-4.8432,-4.8163,-4.8567,-4.8702,-4.8625,-4.8221,-4.8105,-4.8029,-4.7625,-4.7509,-4.7432,-4.7048,-4.6663,-4.6259,-4.593,-4.5858,-4.5886,-4.5982,-4.6001,-4.606,-4.6171,-4.6158,-4.6121,-4.6182,-4.608,-4.5988,-4.5984,-4.5939,-4.5887,-4.589,-4.5892,-4.5899,-4.5861,-4.5044,-4.4166,-4.3321,-4.2412,-4.1485,-4.0546,-4.0489,-4.0489,-4.0489,-4.0142,-4.0123,-4.0489,-4.0142,-4.0123,-4.0489,-4.0123,-4.0142,-4.0489,-4.0123,-4.0142,-1.5893,-1.6918,-1.8152,-1.8857,0.0,-2.0582,-2.1158,0.0,0.0,0.0,0.0,0.0,0.0,0.0,0.0,0.0,0.0,0.0,0.0,0.0,0.0,0.0,0.0,0.0,0.0,0.0,0.0,0.0,0.0,0.0,-4.7509,-4.6932,-4.6605,-4.6605,-4.5951,-4.5586,-4.5586,-4.5586,-4.5586,-4.5586,-4.5586,-4.5951,-4.6567,-4.5893,-4.6297,-4.749,-4.6855,-4.6605,-4.6605,-4.6605,-4.6201,-4.5586,-4.5586,-4.6009,-4.6663,-4.7298,-4.7509,-4.7548,-4.7759,-4.7702,-4.7548,-4.7759,-4.7817,-4.7798,-4.7605,-4.7298,-4.695,-4.6783,-4.6769,-4.6795,-4.6761,-4.6329,-4.5893,-4.5928,-4.5955,-4.5983,-4.6119,-4.6117,-4.6124,-4.6234,-4.6153,-4.6047,-4.6044,-4.5963,-4.5886,-4.5905,-4.5892,-4.5892,-4.595,-4.5944,-4.5959,-4.5942,-4.48,-4.3871,-4.3432,-4.1991,-4.093,-4.0574,-4.0554,-4.0543,-4.0489,-4.0489,-4.0489,-4.0489,-4.0489,-4.0489,-4.0489,-4.0489,-4.0489,-4.0489,-4.0489,-4.0489,-1.762,-1.8191,-1.9008,-1.979,0.0,0.0,-2.3813,0.0,0.0,0.0,0.0,0.0,0.0,0.0,0.0,0.0,0.0,0.0,0.0,0.0,0.0,0.0,0.0,0.0,0.0,0.0,0.0,0.0,0.0,0.0,-4.5778,-4.572,-4.5682,-4.5682,-4.5624,-4.5586,-4.5586,-4.5586,-4.5586,-4.5586,-4.5586,-4.5624,-4.5682,-4.5624,-4.5663,-4.5778,-4.572,-4.5682,-4.5682,-4.5682,-4.5663,-4.5586,-4.5586,-4.5624,-4.5701,-4.5759,-4.5778,-4.5893,-4.6721,-4.6451,-4.5913,-4.6721,-4.699,-4.6855,-4.6163,-4.6451,-4.6865,-4.6169,-4.6067,-4.6147,-4.6005,-4.593,-4.5928,-4.607,-4.61,-4.6123,-4.6261,-4.6192,-4.6102,-4.6111,-4.6009,-4.5917,-4.5902,-4.5851,-4.583,-4.5892,-4.5853,-4.5873,-4.6065,-4.61,-4.6087,-4.6087,-4.5975,-4.523,-4.3539,-4.2546,-4.1625,-4.074,-4.0693,-4.0639,-4.0508,-4.0489,-4.0489,-4.0489,-4.0489,-4.0489,-4.0489,-4.0489,-4.0489,-4.0489,-4.0489,-4.0489,-1.7798,-1.8678,-1.9764,-2.0486,0.0,0.0,0.0,0.0,0.0,0.0,0.0,0.0,0.0,0.0,0.0,0.0,0.0,0.0,0.0,0.0,0.0,0.0,0.0,0.0,0.0,0.0,0.0,0.0,0.0,0.0,-4.5586,-4.5586,-4.5586,-4.5586,-4.5586,-4.5586,-4.5586,-4.5586,-4.5586,-4.5586,-4.5586,-4.5586,-4.5586,-4.5586,-4.5586,-4.5586,-4.5586,-4.5586,-4.5586,-4.5586,-4.5586,-4.5586,-4.5586,-4.5586,-4.5586,-4.5586,-4.5586,-4.5643,-4.597,-4.5874,-4.5643,-4.597,-4.6144,-4.6144,-4.5892,-4.6103,-4.6388,-4.6104,-4.6121,-4.6194,-4.6047,-4.6093,-4.6156,-4.6203,-4.6169,-4.6148,-4.6276,-4.6138,-4.599,-4.6078,-4.5986,-4.5896,-4.5907,-4.5873,-4.5873,-4.5911,-4.595,-4.6007,-4.6084,-4.6169,-4.6216,-4.621,-4.5245,-4.4114,-4.2884,-4.1945,-4.123,-4.079,-4.0713,-4.0639,-4.0508,-4.0489,-4.0489,-4.0489,-4.0489,-4.0489,-4.0489,-4.0489,-4.0489,-4.0489,-4.0489,-4.0489,-1.8596,-1.9473,-2.0549,0.0,0.0,0.0,0.0,0.0,0.0,0.0,0.0,0.0,0.0,0.0,0.0,0.0,0.0,0.0,0.0,0.0,0.0,0.0,0.0,0.0,0.0,0.0,0.0,0.0,0.0,0.0,0.0,-4.5586,-4.5586,-4.5586,-4.5586,-4.5586,-4.5586,-4.5316,-4.5182,-4.5182,-4.4932,-4.5086,-4.5586,-4.5586,-4.5586,-4.5586,-4.5586,-4.5586,-4.5586,-4.5586,-4.5586,-4.5586,-4.5586,-4.5586,-4.5586,-4.5586,-4.5586,-4.5586,-4.5586,-4.5586,-4.5605,-4.5643,-4.5738,-4.5815,-4.5873,-4.5988,-4.6103,-4.6142,-4.622,-4.6268,-4.613,-4.6191,-4.6287,-4.624,-4.6191,-4.618,-4.6235,-4.6098,-4.5994,-4.6086,-4.5988,-4.5905,-4.5896,-4.5892,-4.5905,-4.5948,-4.6046,-4.6108,-4.6157,-4.6236,-4.6308,-4.6308,-4.4959,-4.3734,-4.2851,-4.215,-4.1596,-4.1197,-4.1137,-4.0927,-4.0508,-4.0489,-4.0489,-4.0489,-4.0489,-4.0489,-4.0489,-4.0489,-4.0489,-4.0489,-4.0489,-4.0457,-2.0319,-2.0738,0.0,0.0,0.0,0.0,0.0,0.0,0.0,0.0,0.0,0.0,0.0,0.0,0.0,0.0,0.0,0.0,0.0,0.0,0.0,0.0,0.0,0.0,0.0,0.0,0.0,0.0,0.0,0.0,0.0,-4.5566,-4.5566,-4.5566,-4.5566,-4.5566,-4.5566,-4.472,-4.4297,-4.4278,-4.3489,-4.397,-4.5586,-4.5566,-4.5586,-4.5586,-4.5586,-4.5566,-4.5586,-4.5566,-4.5566,-4.5566,-4.5566,-4.5566,-4.5566,-4.5566,-4.5566,-4.5566,-4.5566,-4.5586,-4.5605,-4.5757,-4.5796,-4.5834,-4.6026,-4.6084,-4.6123,-4.6256,-4.6298,-4.627,-4.6134,-4.621,-4.6267,-4.6119,-4.6199,-4.6264,-4.6124,-4.6099,-4.6105,-4.6109,-4.5988,-4.5889,-4.5891,-4.5899,-4.5958,-4.6092,-4.6102,-4.6158,-4.6284,-4.6308,-4.6308,-4.6289,-4.5444,-4.4542,-4.3663,-4.3474,-4.2992,-4.2079,-4.2008,-4.1566,-4.0546,-4.0489,-4.0489,-4.0489,-4.0489,-4.0489,-4.0489,-4.0489,-4.0489,-4.0489,-4.0508,-4.0375,-2.0852,-2.1384,0.0,0.0,0.0,0.0,0.0,0.0,0.0,0.0,0.0,0.0,0.0,0.0,0.0,0.0,0.0,0.0,0.0,0.0,0.0,0.0,0.0,0.0,0.0,0.0,0.0,0.0,0.0,0.0,0.0,-4.3835,-4.3835,-4.3835,-4.3835,-4.3835,-4.3835,-4.3585,-4.3344,-4.3101,-4.2852,-4.3425,-4.4682,-4.4442,-4.4806,-4.5547,-4.471,-4.4461,-4.4643,-4.4066,-4.3835,-4.3893,-4.4451,-4.4335,-4.3912,-4.447,-4.4335,-4.3912,-4.4489,-4.4682,-4.4778,-4.5451,-4.5757,-4.5863,-4.5887,-4.5997,-4.6095,-4.6028,-4.6016,-4.6029,-4.6098,-4.6143,-4.615,-4.6099,-4.6132,-4.6169,-4.6222,-4.6098,-4.5994,-4.6089,-4.6065,-4.6039,-4.6036,-4.6119,-4.6189,-4.6236,-4.6245,-4.6253,-4.6289,-4.6308,-4.6056,-4.5385,-4.4523,-4.384,-4.3484,-4.2825,-4.2536,-4.2835,-4.2797,-4.2354,-4.145,-4.0835,-4.0489,-4.0489,-4.0489,-4.0489,-4.0489,-4.0489,-4.0489,-4.0508,-4.1123,-4.124,-2.1145,0.0,0.0,0.0,0.0,0.0,0.0,0.0,0.0,0.0,0.0,0.0,0.0,0.0,0.0,0.0,0.0,0.0,0.0,0.0,0.0,0.0,0.0,0.0,0.0,0.0,0.0,0.0,0.0,0.0,0.0,-4.3104,-4.3104,-4.3104,-4.3104,-4.3052,-4.2907,-4.2561,-4.2221,-4.192,-4.1254,-4.1642,-4.2947,-4.3212,-4.3731,-4.4384,-4.3771,-4.3636,-4.3797,-4.3297,-4.3104,-4.3143,-4.3624,-4.3528,-4.3162,-4.3643,-4.3528,-4.3162,-4.3662,-4.3816,-4.3912,-4.447,-4.4954,-4.5355,-4.5354,-4.5678,-4.6001,-4.5912,-4.5886,-4.5925,-4.5998,-4.6065,-4.61,-4.6095,-4.6142,-4.6183,-4.6201,-4.6144,-4.6074,-4.6151,-4.6176,-4.6171,-4.6171,-4.626,-4.6308,-4.6308,-4.6308,-4.6308,-4.6308,-4.6253,-4.5998,-4.543,-4.4534,-4.3924,-4.3833,-4.3258,-4.2989,-4.3162,-4.3124,-4.272,-4.1854,-4.1296,-4.0854,-4.0508,-4.0489,-4.0489,-4.0489,-4.0489,-4.0681,-4.1027,-4.1566,-4.1723,0.0,0.0,0.0,0.0,0.0,0.0,0.0,0.0,0.0,0.0,0.0,0.0,0.0,0.0,0.0,0.0,0.0,0.0,0.0,0.0,0.0,0.0,0.0,0.0,0.0,0.0,0.0,0.0,0.0,0.0,-4.2624,-4.2643,-4.2662,-4.2758,-4.2722,-4.2581,-4.2297,-4.1454,-4.0872,-4.0552,-3.8977,-3.9029,-4.0537,-4.1724,-4.2328,-4.2465,-4.2829,-4.2931,-4.2854,-4.2854,-4.2854,-4.2874,-4.2951,-4.2931,-4.2874,-4.2951,-4.2931,-4.2874,-4.2951,-4.2989,-4.3008,-4.3145,-4.3722,-4.4386,-4.4517,-4.5067,-4.5642,-4.5661,-4.5661,-4.5661,-4.568,-4.5834,-4.5989,-4.5996,-4.615,-4.627,-4.6151,-4.622,-4.6308,-4.6308,-4.6308,-4.6308,-4.6308,-4.6308,-4.6308,-4.6308,-4.6287,-4.6284,-4.6284,-4.6162,-4.6059,-4.595,-4.5064,-4.4487,-4.4468,-4.4372,-4.3989,-4.3258,-4.3201,-4.2797,-4.1854,-4.172,-4.1316,-4.0508,-4.0489,-4.0489,-4.0489,-4.0566,-4.1027,-4.1797,-4.197,-4.2068,0.0,0.0,0.0,0.0,0.0,0.0,0.0,0.0,0.0,0.0,0.0,0.0,0.0,0.0,0.0,0.0,0.0,0.0,0.0,0.0,0.0,0.0,0.0,0.0,0.0,0.0,0.0,0.0,0.0,0.0,-3.9104,-3.9104,-3.9411,-4.0104,-3.9863,-3.9828,-4.0002,-3.9355,-3.865,-3.7923,-3.7333,-3.7143,-3.7341,-3.9074,-4.0346,-4.1226,-4.1818,-4.1681,-4.1046,-4.1046,-4.1046,-4.1123,-4.1816,-4.1662,-4.1143,-4.1835,-4.1643,-4.1162,-4.1835,-4.2085,-4.22,-4.2893,-4.3294,-4.3484,-4.3447,-4.3589,-4.3772,-4.3737,-4.3739,-4.3799,-4.3917,-4.4493,-4.5101,-4.5211,-4.5774,-4.6288,-4.6264,-4.6282,-4.6308,-4.6308,-4.6308,-4.6308,-4.6308,-4.6308,-4.6308,-4.6308,-4.6212,-4.6137,-4.6137,-4.6026,-4.5653,-4.4922,-4.4641,-4.4449,-4.4335,-4.4316,-4.422,-4.4047,-4.4047,-4.3374,-4.1873,-4.1143,-4.0681,-4.0489,-4.0489,-4.0489,-4.0489,-4.1181,-4.1623,-4.1835,-4.3143,-4.3273,0.0,0.0,0.0,0.0,0.0,0.0,0.0,0.0,0.0,0.0,0.0,0.0,0.0,0.0,0.0,0.0,0.0,0.0,0.0,0.0,0.0,0.0,0.0,0.0,0.0,0.0,0.0,0.0,0.0,-3.7811,-3.7811,-3.7811,-3.797,-3.8286,-3.8118,-3.804,-3.8059,-3.7877,-3.7476,-3.6902,-3.6527,-3.6245,-3.6168,-3.7517,-3.8618,-3.9471,-3.9819,-3.9719,-3.9296,-3.9296,-3.9546,-3.9969,-4.0431,-4.0566,-4.0508,-4.0585,-4.0315,-3.9931,-3.9969,-4.0258,-4.0681,-4.1123,-4.1851,-4.2524,-4.2489,-4.2816,-4.3198,-4.3162,-4.322,-4.3319,-4.3457,-4.4147,-4.4823,-4.4957,-4.5679,-4.6284,-4.6215,-4.6242,-4.6269,-4.6132,-4.6157,-4.6181,-4.6123,-4.6113,-4.6113,-4.6113,-4.6047,-4.5998,-4.6003,-4.5931,-4.5664,-4.5175,-4.5064,-4.4833,-4.4335,-4.4297,-4.3951,-4.3143,-4.3104,-4.2527,-4.1239,-4.0739,-4.0489,-4.0489,-4.0489,-4.0489,-4.0489,-4.1373,-4.1797,-4.1835,-4.3124,-4.329,0.0,0.0,0.0,0.0,0.0,0.0,0.0,0.0,0.0,0.0,0.0,0.0,0.0,0.0,0.0,0.0,0.0,0.0,0.0,0.0,0.0,0.0,0.0,0.0,0.0,0.0,0.0,0.0,0.0,-3.7248,-3.7233,-3.6931,-3.6804,-3.6899,-3.6818,-3.6691,-3.6489,-3.676,-3.6735,-3.6409,-3.5945,-3.5713,-3.5794,-3.6436,-3.7186,-3.7924,-3.7973,-3.8007,-3.8007,-3.8007,-3.8411,-3.9084,-3.9084,-3.9469,-3.9988,-3.9315,-3.9084,-3.8969,-3.8257,-3.8488,-3.9084,-3.9084,-4.0046,-4.1223,-4.1357,-4.1953,-4.2604,-4.2745,-4.2884,-4.3008,-4.3109,-4.3763,-4.4448,-4.4708,-4.5332,-4.5896,-4.61,-4.6087,-4.6027,-4.5959,-4.6013,-4.6028,-4.5917,-4.589,-4.589,-4.589,-4.589,-4.5879,-4.5885,-4.5815,-4.5776,-4.5776,-4.568,-4.5297,-4.4586,-4.4393,-4.3643,-4.2124,-4.1893,-4.1412,-4.0527,-4.0489,-4.0489,-4.0489,-4.0489,-4.0489,-4.0489,-4.1373,-4.1797,-4.1816,-4.2701,-4.2848,0.0,0.0,0.0,0.0,0.0,0.0,0.0,0.0,0.0,0.0,0.0,0.0,0.0,0.0,0.0,0.0,0.0,0.0,0.0,0.0,0.0,0.0,0.0,0.0,0.0,0.0,0.0,0.0,-3.4792,-3.4779,-3.572,-3.4167,-3.4018,-3.5671,-3.5267,-3.523,-3.5665,-3.5932,-3.5814,-3.5304,-3.5001,-3.4983,-3.5205,-3.5319,-3.6174,-3.7562,-3.7874,-3.8007,-3.8007,-3.8007,-3.8065,-3.8161,-3.8161,-3.8238,-3.8315,-3.82,-3.8161,-3.8161,-3.8046,-3.8123,-3.8262,-3.8262,-3.8497,-3.8904,-3.965,-3.9992,-4.0241,-4.0916,-4.1221,-4.1312,-4.1351,-4.2033,-4.2932,-4.3693,-4.3965,-4.4452,-4.5957,-4.565,-4.5283,-4.5935,-4.5984,-4.5928,-4.5883,-4.5899,-4.5899,-4.5899,-4.5841,-4.5806,-4.5815,-4.5699,-4.5624,-4.5624,-4.5605,-4.5547,-4.5432,-4.472,-4.3912,-4.2989,-4.222,-4.1412,-4.0527,-4.0489,-4.0489,-4.0489,-4.0489,-4.0489,-4.0489,-4.1373,-4.1797,-4.1816,-4.2701,-4.2665,0.0,0.0,0.0,0.0,0.0,0.0,0.0,0.0,0.0,0.0,0.0,0.0,0.0,0.0,0.0,0.0,0.0,0.0,0.0,0.0,0.0,0.0,0.0,0.0,0.0,0.0,0.0,0.0,-3.4285,-3.3944,-3.431,-3.3201,-3.2877,-3.3568,-3.3374,-3.3583,-3.4329,-3.4584,-3.4672,-3.4591,-3.448,-3.4232,-3.3882,-3.3882,-3.4534,-3.5665,-3.5811,-3.5872,-3.5872,-3.5872,-3.6469,-3.7377,-3.7377,-3.7719,-3.8104,-3.7608,-3.7435,-3.7377,-3.6892,-3.7046,-3.7473,-3.7486,-3.7848,-3.8369,-3.8767,-3.9245,-3.9715,-4.0089,-4.0626,-4.111,-4.111,-4.1746,-4.25,-4.2887,-4.3309,-4.385,-4.4622,-4.445,-4.4376,-4.5062,-4.5103,-4.5161,-4.5661,-4.5738,-4.5738,-4.5738,-4.5719,-4.5699,-4.5699,-4.5624,-4.5586,-4.5586,-4.5586,-4.5393,-4.4913,-4.4509,-4.3951,-4.3143,-4.2739,-4.2143,-4.1258,-4.1239,-4.0989,-4.0508,-4.0489,-4.0489,-4.0489,-4.1373,-4.1546,-4.1104,-4.2237,-4.2409,0.0,0.0,0.0,0.0,0.0,0.0,0.0,0.0,0.0,0.0,0.0,0.0,0.0,0.0,0.0,0.0,0.0,0.0,0.0,0.0,0.0,0.0,0.0,0.0,0.0,0.0,0.0,-3.4499,-3.3754,-3.3274,-3.3277,-3.2374,-3.1898,-3.1989,-3.1936,-3.2239,-3.2956,-3.3372,-3.3676,-3.3872,-3.3872,-3.3526,-3.2891,-3.2891,-3.3141,-3.3603,-3.3814,-3.391,-3.391,-3.418,-3.507,-3.6301,-3.6511,-3.7012,-3.7565,-3.6916,-3.6672,-3.6575,-3.5925,-3.6158,-3.671,-3.6726,-3.7175,-3.7753,-3.7974,-3.8536,-3.917,-3.9627,-4.0123,-4.0586,-4.0801,-4.1318,-4.1816,-4.1991,-4.249,-4.2992,-4.3146,-4.3339,-4.3554,-4.3772,-4.391,-4.4201,-4.4855,-4.5124,-4.5259,-4.5259,-4.5259,-4.5336,-4.5566,-4.5413,-4.5336,-4.5566,-4.5586,-4.524,-4.4374,-4.4105,-4.3643,-4.2816,-4.2566,-4.2126,-4.1407,-4.1368,-4.1008,-4.0285,-4.0353,-4.0422,-4.0489,-4.1143,-4.1143,-4.0527,-4.1667,-4.2011,0.0,0.0,0.0,0.0,0.0,0.0,0.0,0.0,0.0,0.0,0.0,0.0,0.0,0.0,0.0,0.0,0.0,0.0,0.0,0.0,0.0,0.0,0.0,0.0,0.0,0.0,0.0,-3.3013,-3.2263,-3.2135,-3.2885,-3.115,-3.0619,-3.168,-3.1475,-3.1479,-3.1776,-3.2558,-3.2955,-3.2968,-3.2968,-3.2949,-3.2891,-3.2891,-3.2545,-3.1975,-3.2731,-3.3058,-3.3134,-3.4082,-3.4543,-3.4699,-3.5474,-3.5787,-3.5826,-3.5787,-3.5767,-3.5767,-3.5728,-3.5814,-3.5963,-3.5957,-3.6025,-3.6269,-3.7109,-3.7382,-3.7772,-3.9412,-3.9335,-3.8926,-3.9746,-3.9999,-4.0203,-4.0911,-4.1108,-4.1309,-4.194,-4.2691,-4.2964,-4.2104,-4.2604,-4.3181,-4.322,-4.3855,-4.4374,-4.4374,-4.4374,-4.4662,-4.549,-4.4874,-4.4682,-4.5509,-4.5586,-4.524,-4.4374,-4.3605,-4.2797,-4.1931,-4.1085,-4.0504,-4.0196,-4.0196,-4.002,-3.9645,-3.9963,-4.0251,-4.0489,-4.0546,-4.0527,-4.0508,-4.1093,-4.1358,0.0,0.0,0.0,0.0,0.0,0.0,0.0,0.0,0.0,0.0,0.0,0.0,0.0,0.0,0.0,0.0,0.0,0.0,0.0,0.0,0.0,0.0,0.0,0.0,0.0,0.0,-3.1494,-3.2565,-3.1379,-3.0734,-3.1021,-2.9519,-2.9082,-3.0006,-2.9939,-3.0484,-3.1744,-3.2526,-3.2667,-3.225,-3.2205,-3.1917,-3.1429,-3.1429,-3.1275,-3.1052,-3.1379,-3.1821,-3.2324,-3.2673,-3.3506,-3.4576,-3.489,-3.5356,-3.5882,-3.5882,-3.5882,-3.5882,-3.5882,-3.5919,-3.5963,-3.5963,-3.5974,-3.6055,-3.6367,-3.6855,-3.7422,-3.8066,-3.8409,-3.8654,-3.8877,-3.9359,-3.98,-3.9946,-4.0389,-4.0716,-4.035,-4.0889,-4.1524,-4.1758,-4.2047,-4.245,-4.3008,-4.3335,-4.3528,-4.3528,-4.3528,-4.3643,-4.3951,-4.372,-4.3855,-4.4682,-4.4759,-4.4643,-4.4335,-4.4047,-4.3528,-4.2701,-4.2335,-4.1879,-4.1219,-4.0979,-4.0576,-3.9941,-3.9819,-3.9943,-4.0232,-4.0425,-4.0489,-4.0508,-4.0841,-4.1095,0.0,0.0,0.0,0.0,0.0,0.0,0.0,0.0,0.0,0.0,0.0,0.0,0.0,0.0,0.0,0.0,0.0,0.0,0.0,0.0,0.0,0.0,0.0,0.0,0.0,0.0,-2.9765,-3.0868,-2.9917,0.0,-2.9306,-2.8437,-2.8187,-2.8752,-2.9033,-2.9744,-3.0943,-3.1733,-3.1772,-3.1027,-3.0989,-3.053,-2.9757,-2.9757,-2.9764,-2.9809,-3.0148,-3.0751,-3.1523,-3.1851,-3.2719,-3.3828,-3.4099,-3.4753,-3.5566,-3.5566,-3.5742,-3.5996,-3.5996,-3.5996,-3.5996,-3.5996,-3.5996,-3.5996,-3.5996,-3.6406,-3.6913,-3.7187,-3.7471,-3.7726,-3.7897,-3.8543,-3.9127,-3.9022,-3.9619,-4.0062,-3.9431,-3.9931,-4.0662,-4.1258,-4.1354,-4.1546,-4.2124,-4.247,-4.2662,-4.2662,-4.2662,-4.2777,-4.3066,-4.2835,-4.3085,-4.4182,-4.4066,-4.3893,-4.3893,-4.3624,-4.3104,-4.2277,-4.222,-4.1937,-4.1257,-4.1017,-4.0595,-3.9941,-3.9712,-3.9709,-3.9922,-4.0101,-4.0193,-4.0194,-4.0802,-4.1268,0.0,0.0,0.0,0.0,0.0,0.0,0.0,0.0,0.0,0.0,0.0,0.0,0.0,0.0,0.0,0.0,0.0,0.0,0.0,0.0,0.0,0.0,0.0,0.0,0.0,-2.7371,-2.7871,-2.789,-2.7871,-2.7852,-2.7852,-2.7918,-2.7992,-2.8053,-2.8825,-2.926,-2.9267,-3.0133,-3.0122,-2.9264,-2.9311,-2.8915,-2.8098,-2.8118,-2.8163,-2.8253,-2.9094,-2.9917,-3.0758,-3.1744,-3.2187,-3.2285,-3.3066,-3.3906,-3.4668,-3.4687,-3.5234,-3.5976,-3.5996,-3.5996,-3.5996,-3.5996,-3.5996,-3.5996,-3.5996,-3.5996,-3.6161,-3.6933,-3.6554,-3.608,-3.6806,-3.7517,-3.807,-3.8137,-3.8715,-3.9238,-3.9219,-3.9873,-4.0469,-4.0489,-4.0489,-4.0489,-4.0489,-4.12,-4.1758,-4.1758,-4.1758,-4.2066,-4.2912,-4.2277,-4.2393,-4.4047,-4.3528,-4.3066,-4.3066,-4.2297,-4.1431,-4.0546,-4.0489,-4.0372,-4.012,-4.0101,-3.9962,-3.9622,-3.9599,-3.9599,-3.9599,-3.9599,-3.9599,-3.9637,-4.0932,-4.1822,-1.9077,0.0,0.0,0.0,0.0,0.0,0.0,0.0,0.0,0.0,0.0,0.0,0.0,0.0,0.0,0.0,0.0,0.0,0.0,0.0,0.0,0.0,0.0,0.0,0.0,-2.6813,-2.7217,0.0,-2.7371,-2.7033,-2.7033,-2.7094,-2.7136,-2.7168,-2.7988,-2.8461,-2.8495,-2.9272,-2.9304,-2.8594,-2.9757,-2.9581,-2.8271,-2.8896,-2.8841,-2.8303,-2.8533,-2.9115,-2.9965,-3.0876,-3.1621,-3.2226,-3.2441,-3.3027,-3.3848,-3.4473,-3.4844,-3.5156,-3.5781,-3.5996,-3.5996,-3.5996,-3.5996,-3.5996,-3.5996,-3.5996,-3.6044,-3.6265,-3.6117,-3.6054,-3.6742,-3.7018,-3.7103,-3.7103,-3.7757,-3.818,-3.7565,-3.8584,-3.9796,-4.0392,-4.0489,-4.0489,-4.0489,-4.07,-4.0854,-4.0854,-4.0854,-4.095,-4.1181,-4.1008,-4.1277,-4.2374,-4.2297,-4.2162,-4.2162,-4.195,-4.1431,-4.0546,-4.0489,-4.0473,-4.0389,-4.0195,-4.0061,-3.9943,-3.9505,-3.9238,-3.9238,-3.9462,-3.9599,-3.9618,-4.0315,-4.1248,0.0,0.0,0.0,0.0,0.0,0.0,-2.3339,-2.378,-2.3964,0.0,0.0,0.0,0.0,0.0,0.0,0.0,0.0,0.0,0.0,0.0,0.0,0.0,0.0,0.0,-2.6043,-2.6101,-2.6313,-2.6851,-2.6456,-2.6206,-2.6245,-2.6285,-2.6318,-2.6334,-2.7186,-2.7658,-2.7692,-2.8496,-2.8496,-2.7773,-2.871,-2.8461,-2.7226,-2.7734,-2.7691,-2.7239,-2.7595,-2.8056,-2.8613,-2.9844,-3.0879,-3.166,-3.166,-3.2168,-3.2969,-3.3476,-3.3867,-3.4238,-3.4746,-3.4922,-3.498,-3.5332,-3.5215,-3.498,-3.5351,-3.5195,-3.4996,-3.5321,-3.5599,-3.5853,-3.6262,-3.6531,-3.6622,-3.6276,-3.6853,-3.7315,-3.6815,-3.7777,-3.8988,-3.9835,-4.0258,-4.0489,-4.0489,-4.0489,-4.0489,-4.0489,-4.0489,-4.0489,-4.0489,-4.0489,-4.0835,-4.172,-4.147,-4.1393,-4.1777,-4.147,-4.0995,-4.0358,-4.0441,-4.0457,-4.0339,-4.0304,-4.0269,-4.0269,-3.9645,-3.9178,-3.8933,-3.9136,-3.9402,-3.9738,-4.0354,-4.1058,0.0,0.0,0.0,0.0,0.0,0.0,-2.249,-2.3412,-2.3967,-2.4223,0.0,0.0,0.0,0.0,0.0,0.0,0.0,0.0,0.0,0.0,0.0,0.0,0.0,0.0,-2.5409,-2.5409,-2.5447,-2.5505,-2.5505,-2.5553,-2.5608,-2.5608,-2.5634,-2.5703,-2.6445,-2.6855,-2.6855,-2.7715,-2.7715,-2.6855,-2.7051,-2.6641,-2.5703,-2.5801,-2.5781,-2.5742,-2.6523,-2.6914,-2.7129,-2.8672,-2.9883,-3.0762,-3.0859,-3.1367,-3.207,-3.2168,-3.2656,-3.3281,-3.3379,-3.3398,-3.3535,-3.4297,-3.4023,-3.3535,-3.4316,-3.4004,-3.3574,-3.4375,-3.51,-3.5605,-3.5584,-3.6084,-3.6392,-3.568,-3.6065,-3.6584,-3.6584,-3.7257,-3.8084,-3.8854,-3.9815,-4.0489,-4.0489,-4.0489,-4.0489,-4.0489,-4.0489,-4.0489,-4.0489,-4.0489,-4.0796,-4.1566,-4.095,-4.0796,-4.1585,-4.095,-4.0389,-4.012,-4.0321,-4.0339,-4.0061,-4.0302,-4.0457,-4.0457,-3.9884,-3.9327,-3.8732,-3.8719,-3.9111,-3.9918,-4.0634,-4.102,0.0,0.0,0.0,0.0,0.0,0.0,-2.0691,-2.1221,-2.1848,0.0,0.0,0.0,0.0,0.0,0.0,0.0,0.0,0.0,0.0,0.0,0.0,0.0,0.0,0.0,-2.5466,-2.5483,-2.549,-2.551,-2.5556,-2.5611,-2.5683,-2.5687,-2.5696,-2.5703,-2.5859,-2.5957,-2.5957,-2.6816,-2.6816,-2.5977,-2.7383,-2.7226,-2.5723,-2.6426,-2.6367,-2.5703,-2.5879,-2.6348,-2.7031,-2.7363,-2.8437,-2.9922,-3.0625,-3.0996,-3.123,-3.1934,-3.2305,-3.2539,-3.3184,-3.3398,-3.3437,-3.3594,-3.3535,-3.3437,-3.3594,-3.3535,-3.3574,-3.4375,-3.5112,-3.5659,-3.5612,-3.568,-3.5699,-3.5545,-3.5622,-3.5738,-3.5738,-3.6392,-3.7007,-3.718,-3.8988,-4.0489,-4.0489,-4.0489,-4.0489,-4.0489,-4.0489,-4.0489,-4.0489,-4.0489,-4.0566,-4.0739,-4.0585,-4.0566,-4.0739,-4.0585,-4.0389,-4.012,-4.0139,-4.0023,-3.9712,-4.0022,-4.0177,-4.0177,-3.9797,-3.9408,-3.9008,-3.8803,-3.9111,-3.99,-4.0065,-4.0487,0.0,0.0,0.0,-1.9017,0.0,0.0,0.0,-2.0944,-2.164,-2.2473,0.0,0.0,0.0,0.0,0.0,0.0,0.0,0.0,0.0,0.0,0.0,0.0,0.0,0.0,-2.5534,-2.5556,-2.5556,-2.5595,-2.564,-2.5655,-2.5703,-2.5703,-2.5703,-2.5703,-2.5703,-2.5703,-2.5703,-2.6133,-2.6133,-2.5703,-2.6582,-2.6543,-2.5703,-2.6152,-2.6113,-2.5703,-2.5703,-2.5957,-2.6387,-2.6816,-2.7519,-2.8398,-2.9258,-2.9609,-2.9707,-3.0586,-3.0625,-3.0449,-3.1719,-3.1875,-3.1641,-3.2519,-3.2519,-3.2226,-3.2676,-3.2793,-3.2969,-3.3789,-3.4562,-3.5237,-3.5558,-3.5603,-3.5545,-3.5526,-3.5493,-3.5493,-3.5493,-3.6469,-3.7219,-3.6776,-3.843,-3.9892,-3.9892,-3.9892,-3.9892,-3.9892,-3.9527,-3.9238,-3.9238,-3.9623,-3.9892,-3.9892,-4.0258,-4.0489,-4.0489,-4.0489,-4.0319,-3.988,-4.0002,-3.9861,-3.9364,-3.9819,-4.0101,-4.0101,-3.9922,-3.9599,-3.9099,-3.8961,-3.9047,-3.9313,-3.9698,-3.99,0.0,0.0,0.0,0.0,0.0,-1.9295,0.0,0.0,0.0,0.0,0.0,0.0,0.0,0.0,0.0,0.0,0.0,0.0,0.0,0.0,0.0,0.0,0.0,-2.5723,-2.5635,-2.5619,-2.5646,-2.5703,-2.5703,-2.5703,-2.5703,-2.5703,-2.5703,-2.5703,-2.5703,-2.5703,-2.5703,-2.5703,-2.5703,-2.5703,-2.5703,-2.5703,-2.5703,-2.5703,-2.5703,-2.5703,-2.5703,-2.5703,-2.5742,-2.6465,-2.6758,-2.6855,-2.7891,-2.8301,-2.8398,-2.9082,-2.9004,-2.873,-2.9961,-3.0059,-2.9824,-3.123,-3.1348,-3.1035,-3.1738,-3.207,-3.2344,-3.2988,-3.373,-3.4507,-3.5261,-3.5406,-3.5372,-3.5468,-3.5493,-3.5493,-3.5493,-3.6565,-3.7315,-3.6622,-3.7738,-3.8854,-3.9008,-3.9046,-3.9046,-3.9046,-3.845,-3.8007,-3.8007,-3.8757,-3.9296,-3.9296,-4.0008,-4.0489,-4.0489,-4.0489,-4.0248,-3.9645,-3.984,-3.9731,-3.9125,-3.9735,-4.012,-4.0177,-4.012,-3.9819,-3.9289,-3.9231,-3.9054,-3.8792,-3.9381,-3.9344,0.0,0.0,0.0,0.0,-1.915,0.0,0.0,0.0,-1.9877,-2.0829,0.0,0.0,0.0,0.0,0.0,0.0,0.0,0.0,0.0,0.0,0.0,-2.4232,-2.5718,-2.6407,-2.5754,-2.5698,-2.5681,-2.5703,-2.5703,-2.5703,-2.5703,-2.5703,-2.5703,-2.5703,-2.5703,-2.5703,-2.5703,-2.5703,-2.5703,-2.5703,-2.5703,-2.5703,-2.5703,-2.5703,-2.5703,-2.5703,-2.5703,-2.5703,-2.5703,-2.5801,-2.5859,-2.6016,-2.7656,-2.8301,-2.8301,-2.8418,-2.8867,-2.9375,-2.8789,-2.9043,-2.9629,-2.9824,-3.0351,-3.0918,-3.1016,-3.1582,-3.2226,-3.2305,-3.2831,-3.3554,-3.4411,-3.4496,-3.4545,-3.5334,-3.5493,-3.5493,-3.5493,-3.5661,-3.5757,-3.5661,-3.6372,-3.7238,-3.8007,-3.8142,-3.8142,-3.8142,-3.8065,-3.8007,-3.8007,-3.8757,-3.9296,-3.9296,-4.0008,-4.0489,-4.0489,-4.0489,-4.0248,-3.9645,-3.9645,-3.9505,-3.9125,-3.9735,-4.0213,-4.0457,-4.0213,-4.0061,-3.9982,-3.969,-3.9364,-3.9063,-3.8907,-3.8907,0.0,0.0,0.0,0.0,0.0,0.0,-1.9516,0.0,-1.9596,0.0,0.0,0.0,0.0,0.0,0.0,0.0,-2.0554,0.0,0.0,0.0,0.0,0.0,0.0,0.0,-2.4921,-2.5859,-2.6248,-2.5737,-2.6171,-2.623,-2.5723,-2.5703,-2.5703,-2.5703,-2.5703,-2.5703,-2.5703,-2.5703,-2.5703,-2.5703,-2.5703,-2.5703,-2.5703,-2.5703,-2.5703,-2.5703,-2.5703,-2.5703,-2.5703,-2.5703,-2.5703,-2.5762,-2.6504,-2.6797,-2.6855,-2.7363,-2.7461,-2.7422,-2.8086,-2.8203,-2.8262,-2.9277,-2.9844,-3.0234,-3.0742,-3.1152,-3.1521,-3.1971,-3.2291,-3.2687,-3.348,-3.3963,-3.4334,-3.4661,-3.5141,-3.5493,-3.5493,-3.5872,-3.6065,-3.5603,-3.6161,-3.668,-3.6565,-3.6949,-3.7257,-3.7257,-3.6853,-3.6546,-3.6546,-3.7719,-3.8546,-3.8546,-3.9588,-4.0339,-4.0489,-4.0356,-4.0157,-3.9901,-3.9709,-3.9622,-3.9668,-3.9943,-4.0213,-4.0489,-4.0389,-4.0269,-4.0101,-3.9962,-3.9819,-3.9668,-3.9352,-3.9275,-2.39,0.0,0.0,0.0,0.0,0.0,0.0,0.0,0.0,0.0,0.0,0.0,0.0,0.0,0.0,0.0,0.0,-1.9331,0.0,0.0,0.0,0.0,0.0,0.0,0.0,-2.5326,-2.5675,-2.5022,-2.5561,-2.5761,-2.5352,-2.5332,-2.5449,-2.5684,-2.5703,-2.5703,-2.5703,-2.5703,-2.5703,-2.5703,-2.5703,-2.5703,-2.5703,-2.5703,-2.5703,-2.5703,-2.5703,-2.5703,-2.5703,-2.5703,-2.5703,-2.5703,-2.5703,-2.5703,-2.5781,-2.6406,-2.6387,-2.6191,-2.7226,-2.7324,-2.7207,-2.8476,-2.9219,-2.9706,-3.0328,-3.0668,-3.0958,-3.1476,-3.1598,-3.1761,-3.2538,-3.3173,-3.368,-3.4103,-3.468,-3.5218,-3.5449,-3.5968,-3.6199,-3.5622,-3.5968,-3.6199,-3.5603,-3.5988,-3.6372,-3.6372,-3.5872,-3.5493,-3.5493,-3.6757,-3.7642,-3.7642,-3.8999,-3.9961,-4.0162,-3.9996,-3.9852,-3.9757,-3.9539,-3.9612,-4.0062,-4.0177,-4.0304,-4.0489,-4.0489,-4.0406,-4.0213,-4.0213,-4.0213,-4.0195,-3.9797,-3.9645,0.0,0.0,0.0,-2.234,0.0,0.0,0.0,0.0,-1.9611,0.0,0.0,0.0,0.0,0.0,0.0,0.0,0.0,0.0,0.0,0.0,0.0,0.0,0.0,0.0,0.0,-2.3684,-2.3208,-2.3198,-2.3205,-2.3587,-2.4394,-2.4434,-2.4824,-2.5664,-2.5703,-2.5703,-2.5703,-2.5703,-2.5703,-2.5703,-2.5703,-2.5703,-2.5703,-2.5703,-2.5703,-2.5703,-2.5703,-2.5703,-2.5703,-2.5703,-2.5703,-2.5703,-2.5703,-2.5703,-2.5703,-2.5723,-2.6269,-2.6855,-2.6055,-2.6328,-2.7012,-2.707,-2.8223,-2.9583,-2.9553,-3.0094,-3.0711,-3.0671,-3.0595,-3.0756,-3.1628,-3.1802,-3.2199,-3.3814,-3.4218,-3.4468,-3.5334,-3.5526,-3.5532,-3.5526,-3.5526,-3.5532,-3.5493,-3.5512,-3.5545,-3.5545,-3.5526,-3.5493,-3.5493,-3.6238,-3.6738,-3.6738,-3.8296,-3.9335,-3.9335,-3.9335,-3.9202,-3.8861,-3.8842,-3.9223,-4.0062,-4.0356,-4.0489,-4.0489,-4.0489,-4.0489,-4.0489,-4.0489,-4.0489,-4.0473,-3.9884,-3.9775,0.0,0.0,-2.3362,-2.3602,0.0,0.0,0.0,0.0,0.0,0.0,0.0,0.0,0.0,0.0,0.0,0.0,0.0,0.0,0.0,0.0,0.0,0.0,0.0,0.0,0.0,0.0,0.0,-2.315,-2.3622,-2.4093,-2.4387,-2.4394,-2.4805,-2.5664,-2.5703,-2.5703,-2.5703,-2.5703,-2.5703,-2.5703,-2.5703,-2.5703,-2.5703,-2.5703,-2.5703,-2.5703,-2.5703,-2.5703,-2.5703,-2.5703,-2.5703,-2.5703,-2.5703,-2.5703,-2.5703,-2.5703,-2.5898,-2.6094,-2.5801,-2.6269,-2.7087,-2.7614,-2.8586,-2.9629,-3.0094,-3.0414,-3.0625,-3.0549,-3.0527,-3.0564,-3.0802,-3.1295,-3.1833,-3.241,-3.3391,-3.4276,-3.4584,-3.5084,-3.5493,-3.5493,-3.5493,-3.5493,-3.5493,-3.5493,-3.5493,-3.5493,-3.5493,-3.5493,-3.5493,-3.6199,-3.693,-3.7507,-3.7904,-3.8427,-3.9238,-3.8757,-3.8631,-3.909,-3.9128,-3.9493,-4.0317,-4.0457,-4.0489,-4.0489,-4.0489,-4.0489,-4.0489,-4.0489,-4.0489,-4.0489,-4.0283,-4.0248,-2.5615,-2.4972,0.0,-2.4651,-2.3786,0.0,-2.2404,0.0,-2.0921,0.0,0.0,0.0,0.0,0.0,0.0,0.0,0.0,0.0,0.0,-1.7519,0.0,0.0,0.0,0.0,0.0,0.0,-2.2109,-2.2177,-2.2436,-2.2983,0.0,-2.3941,-2.4472,-2.5664,-2.5703,-2.5703,-2.5703,-2.5703,-2.5703,-2.5703,-2.5703,-2.5703,-2.5703,-2.5703,-2.5703,-2.5703,-2.5703,-2.5703,-2.5703,-2.5703,-2.5703,-2.5703,-2.5703,-2.5703,-2.5703,-2.5703,-2.5703,-2.5742,-2.6032,-2.6494,-2.7099,-2.789,-2.875,-2.9506,-2.9967,-3.0318,-3.0679,-3.1198,-3.0929,-3.0602,-3.116,-3.1256,-3.1314,-3.1641,-3.2737,-3.3814,-3.4122,-3.4872,-3.5493,-3.5493,-3.5493,-3.5493,-3.5493,-3.5493,-3.5493,-3.5493,-3.5493,-3.5493,-3.5493,-3.5949,-3.6488,-3.7046,-3.7463,-3.7986,-3.8762,-3.8315,-3.8238,-3.8796,-3.9123,-3.9662,-4.0469,-4.0489,-4.0642,-4.095,-4.0662,-4.0642,-4.095,-4.0642,-4.0489,-4.0489,-4.0489,-4.0489]}]]